[[{"header":{"parameterUnit":"m.s-1","parameterCategory":1,"la1":30.6,"la2":29.2853,"lo1":-89.7004,"lo2":-87.6739,"dx":0.0162,"dy":0.0183,"nx":112,"ny":82,"refTime":"2022-12-05T18:00:00:Z","depth":0,"parameterNumber":2,"parameterNumberName":"U-component_of_WINDS"},"data":[0.0,0.0,0.0,0.0,0.0,0.0,0.0,0.0,0.0,0.0,0.0,0.0,0.0,0.0,0.0,0.0,0.0,0.0,0.0,0.0,0.0,0.0,0.0,0.0,0.0,0.0,0.0,0.0,0.0,0.0,0.0,0.0,0.0,0.0,0.0,0.0,0.0,0.0,0.0,0.0,0.0,0.0,0.0,0.0,0.0,0.0,0.0,0.0,0.0,0.0,0.0,0.0,0.0,0.0,0.0,0.0,0.0,0.0,0.0,0.0,0.0,0.0,0.0,0.0,0.0,0.0,0.0,0.0,0.0,0.0,0.0,0.0,0.0,0.0,0.0,0.0,0.0,0.0,0.0,0.0,0.0,0.0,0.0,0.0,0.0,0.0,0.0,0.0,0.0,0.0,-1.8885,-1.7253,-1.9,-2.0308,-2.0308,-2.0308,-1.8481,-1.4168,0.0,0.0,0.0,0.0,0.0,0.0,0.0,0.0,0.0,0.0,0.0,0.0,0.0,0.0,0.0,0.0,0.0,0.0,0.0,0.0,0.0,0.0,0.0,0.0,0.0,0.0,0.0,0.0,0.0,0.0,0.0,0.0,0.0,0.0,0.0,0.0,0.0,0.0,0.0,0.0,0.0,0.0,0.0,0.0,0.0,0.0,0.0,0.0,0.0,0.0,0.0,0.0,0.0,0.0,0.0,0.0,0.0,0.0,0.0,0.0,0.0,0.0,0.0,0.0,0.0,0.0,0.0,0.0,0.0,0.0,0.0,0.0,0.0,0.0,0.0,0.0,0.0,0.0,0.0,0.0,0.0,0.0,0.0,0.0,0.0,0.0,0.0,0.0,0.0,0.0,0.0,0.0,0.0,0.0,0.0,0.0,0.0,0.0,0.0,0.0,0.0,0.0,0.0,0.0,-1.6942,-1.9442,-2.0077,-2.0308,-2.0308,-2.0308,-1.8481,-1.4168,0.0,0.0,0.0,0.0,0.0,0.0,0.0,0.0,0.0,0.0,0.0,0.0,0.0,0.0,0.0,0.0,0.0,0.0,0.0,0.0,0.0,0.0,0.0,0.0,0.0,0.0,0.0,0.0,0.0,0.0,0.0,0.0,0.0,0.0,0.0,0.0,0.0,0.0,0.0,0.0,0.0,0.0,0.0,0.0,0.0,0.0,0.0,0.0,0.0,0.0,0.0,0.0,0.0,0.0,0.0,0.0,0.0,0.0,0.0,0.0,0.0,0.0,0.0,0.0,0.0,0.0,0.0,0.0,0.0,0.0,0.0,0.0,0.0,0.0,0.0,0.0,0.0,0.0,0.0,0.0,0.0,0.0,0.0,0.0,0.0,0.0,0.0,0.0,0.0,0.0,0.0,0.0,0.0,0.0,0.0,0.0,0.0,0.0,0.0,0.0,0.0,0.0,0.0,-1.6869,-1.7023,-1.9981,-2.0308,-2.0308,-2.0308,-2.0308,-1.8481,-1.4168,-1.4,0.0,0.0,0.0,0.0,0.0,0.0,0.0,0.0,0.0,0.0,0.0,0.0,0.0,0.0,0.0,0.0,0.0,0.0,0.0,0.0,0.0,0.0,0.0,0.0,0.0,0.0,0.0,0.0,0.0,0.0,0.0,0.0,0.0,0.0,0.0,0.0,0.0,0.0,0.0,0.0,0.0,0.0,0.0,0.0,0.0,0.0,0.0,0.0,0.0,0.0,0.0,0.0,0.0,0.0,0.0,0.0,0.0,0.0,0.0,0.0,0.0,0.0,0.0,0.0,0.0,0.0,0.0,0.0,0.0,0.0,0.0,0.0,0.0,0.0,0.0,0.0,0.0,0.0,0.0,0.0,0.0,0.0,0.0,0.0,0.0,0.0,0.0,0.0,0.0,0.0,0.0,0.0,0.0,0.0,0.0,0.0,0.0,0.0,0.0,0.0,0.0,0.0,-1.6558,-1.8022,-1.996,-2.0176,-2.0176,-2.0176,-2.0176,-1.8279,-1.382,-1.4217,0.0,0.0,0.0,0.0,0.0,0.0,0.0,0.0,0.0,0.0,0.0,0.0,0.0,0.0,0.0,0.0,0.0,0.0,0.0,0.0,0.0,0.0,0.0,0.0,0.0,0.0,0.0,0.0,0.0,0.0,0.0,0.0,0.0,0.0,0.0,0.0,0.0,0.0,0.0,0.0,0.0,0.0,0.0,0.0,0.0,0.0,0.0,0.0,0.0,0.0,0.0,0.0,0.0,0.0,0.0,0.0,0.0,0.0,0.0,0.0,0.0,0.0,0.0,0.0,0.0,0.0,0.0,0.0,0.0,0.0,0.0,0.0,0.0,0.0,0.0,0.0,0.0,0.0,0.0,0.0,0.0,0.0,0.0,0.0,0.0,0.0,0.0,0.0,0.0,0.0,0.0,0.0,0.0,0.0,0.0,0.0,0.0,0.0,0.0,0.0,0.0,0.0,-1.6706,-1.963,-1.9824,-1.9843,-1.9843,-1.9843,-1.9843,-1.7742,-1.2821,-1.2739,0.0,0.0,0.0,0.0,0.0,0.0,0.0,0.0,0.0,0.0,0.0,0.0,0.0,0.0,0.0,0.0,0.0,0.0,0.0,0.0,0.0,0.0,0.0,0.0,0.0,0.0,0.0,0.0,0.0,0.0,0.0,0.0,0.0,0.0,0.0,0.0,0.0,0.0,0.0,0.0,0.0,0.0,0.0,0.0,0.0,0.0,0.0,0.0,0.0,0.0,0.0,0.0,0.0,0.0,0.0,0.0,0.0,0.0,0.0,0.0,0.0,0.0,0.0,0.0,0.0,0.0,0.0,0.0,0.0,0.0,0.0,0.0,0.0,0.0,0.0,0.0,0.0,0.0,0.0,0.0,0.0,0.0,0.0,0.0,0.0,0.0,0.0,0.0,0.0,0.0,0.0,0.0,0.0,0.0,0.0,0.0,0.0,0.0,0.0,0.0,0.0,0.0,-1.5333,-1.8036,-1.9639,-1.979,-1.979,-1.979,-1.979,-1.7687,-1.27,0.0,0.0,0.0,0.0,0.0,0.0,0.0,0.0,0.0,0.0,0.0,0.0,0.0,0.0,0.0,0.0,0.0,0.0,0.0,0.0,0.0,0.0,0.0,0.0,0.0,0.0,0.0,0.0,0.0,0.0,0.0,0.0,0.0,0.0,0.0,0.0,0.0,0.0,0.0,0.0,0.0,0.0,0.0,0.0,0.0,0.0,0.0,0.0,0.0,0.0,0.0,0.0,0.0,0.0,0.0,0.0,0.0,0.0,0.0,0.0,0.0,0.0,0.0,0.0,0.0,0.0,0.0,0.0,0.0,0.0,0.0,0.0,0.0,0.0,0.0,0.0,0.0,0.0,0.0,0.0,0.0,0.0,0.0,0.0,0.0,0.0,0.0,0.0,0.0,0.0,0.0,0.0,0.0,0.0,0.0,0.0,0.0,0.0,0.0,0.0,0.0,0.0,-1.232,-1.5093,-1.7707,-1.9463,-1.9638,-1.9638,-1.9638,-1.9638,-1.7772,-1.338,0.0,0.0,0.0,0.0,0.0,0.0,0.0,0.0,0.0,0.0,0.0,0.0,0.0,0.0,0.0,0.0,0.0,0.0,0.0,0.0,0.0,0.0,0.0,0.0,0.0,0.0,0.0,0.0,0.0,0.0,0.0,0.0,0.0,0.0,0.0,0.0,0.0,0.0,0.0,0.0,0.0,0.0,0.0,0.0,0.0,0.0,0.0,0.0,0.0,0.0,0.0,0.0,0.0,0.0,0.0,0.0,0.0,0.0,0.0,0.0,0.0,0.0,0.0,0.0,0.0,0.0,0.0,0.0,0.0,0.0,0.0,0.0,0.0,0.0,0.0,0.0,0.0,0.0,0.0,0.0,0.0,0.0,0.0,0.0,0.0,0.0,0.0,0.0,0.0,0.0,0.0,0.0,0.0,0.0,0.0,0.0,0.0,0.0,0.0,0.0,0.0,0.0,-1.2209,-1.638,-1.9315,-1.9315,-1.9315,-1.9315,-1.9297,-1.9297,-1.7967,0.0,0.0,0.0,0.0,0.0,0.0,0.0,0.0,0.0,0.0,0.0,0.0,0.0,0.0,0.0,0.0,0.0,0.0,0.0,0.0,0.0,0.0,0.0,0.0,0.0,0.0,0.0,0.0,0.0,0.0,0.0,0.0,0.0,0.0,0.0,0.0,0.0,0.0,0.0,0.0,0.0,0.0,0.0,0.0,0.0,0.0,0.0,0.0,0.0,0.0,0.0,0.0,0.0,0.0,0.0,0.0,0.0,0.0,0.0,0.0,0.0,0.0,0.0,0.0,0.0,0.0,0.0,0.0,0.0,0.0,0.0,0.0,0.0,0.0,0.0,0.0,0.0,0.0,0.0,0.0,0.0,0.0,0.0,0.0,0.0,0.0,0.0,0.0,0.0,0.0,0.0,0.0,0.0,0.0,0.0,0.0,0.0,0.0,0.0,0.0,0.0,0.0,0.0,-1.3118,-1.7741,-2.0839,-2.0199,-2.0144,-1.9913,-1.9352,-1.9297,-1.7945,-1.4724,0.0,0.0,0.0,0.0,0.0,0.0,0.0,0.0,0.0,0.0,0.0,0.0,0.0,0.0,0.0,0.0,0.0,0.0,0.0,0.0,0.0,0.0,0.0,0.0,0.0,0.0,0.0,0.0,0.0,0.0,0.0,0.0,0.0,0.0,0.0,0.0,0.0,0.0,0.0,0.0,0.0,0.0,0.0,0.0,0.0,0.0,0.0,0.0,0.0,0.0,0.0,0.0,0.0,0.0,0.0,0.0,0.0,0.0,0.0,0.0,0.0,0.0,0.0,0.0,0.0,0.0,0.0,0.0,0.0,0.0,0.0,0.0,0.0,0.0,0.0,0.0,0.0,0.0,0.0,0.0,0.0,0.0,0.0,0.0,0.0,0.0,0.0,0.0,0.0,0.0,0.0,0.0,0.0,0.0,0.0,0.0,0.0,0.0,0.0,0.0,0.0,0.0,-1.3505,-1.8323,-2.1592,-2.107,-2.1015,-2.0813,-2.0344,-2.0307,-1.9187,-1.6573,0.0,0.0,0.0,0.0,0.0,0.0,0.0,0.0,0.0,0.0,0.0,0.0,0.0,0.0,0.0,0.0,0.0,0.0,0.0,0.0,0.0,0.0,0.0,0.0,0.0,0.0,0.0,0.0,0.0,0.0,0.0,0.0,0.0,0.0,0.0,0.0,0.0,0.0,0.0,0.0,0.0,0.0,0.0,0.0,0.0,0.0,0.0,0.0,0.0,0.0,0.0,0.0,0.0,0.0,0.0,0.0,0.0,0.0,0.0,0.0,0.0,0.0,0.0,0.0,0.0,0.0,0.0,0.0,0.0,0.0,0.0,0.0,0.0,0.0,0.0,0.0,0.0,0.0,0.0,0.0,0.0,0.0,0.0,0.0,0.0,0.0,0.0,0.0,0.0,0.0,0.0,0.0,0.0,0.0,0.0,0.0,0.0,0.0,0.0,0.0,0.0,0.0,-1.3692,-1.8537,-2.1996,-2.1923,-2.1904,-2.1886,-2.1812,-2.1794,-2.117,-1.9701,0.0,0.0,0.0,0.0,0.0,0.0,0.0,0.0,0.0,0.0,0.0,0.0,0.0,0.0,0.0,0.0,0.0,0.0,0.0,0.0,0.0,0.0,0.0,0.0,0.0,0.0,0.0,0.0,0.0,0.0,0.0,0.0,0.0,0.0,0.0,0.0,0.0,0.0,0.0,0.0,0.0,0.0,0.0,0.0,0.0,0.0,0.0,0.0,0.0,0.0,0.0,0.0,0.0,0.0,0.0,0.0,0.0,0.0,0.0,0.0,-1.313,-1.0284,0.0,0.0,0.0,0.0,0.0,0.0,0.0,0.0,0.0,0.0,0.0,0.0,0.0,0.0,0.0,0.0,0.0,0.0,0.0,0.0,0.0,0.0,0.0,0.0,0.0,0.0,0.0,0.0,0.0,0.0,0.0,0.0,0.0,0.0,0.0,0.0,0.0,0.0,0.0,0.0,-1.5141,-2.016,-2.3456,-2.2813,-2.2731,-2.2483,-2.1849,-2.1794,-2.1831,-2.1886,-1.9774,0.0,0.0,0.0,0.0,0.0,0.0,0.0,0.0,0.0,0.0,0.0,0.0,0.0,0.0,0.0,0.0,0.0,0.0,0.0,0.0,0.0,0.0,0.0,0.0,0.0,0.0,0.0,0.0,0.0,0.0,0.0,0.0,0.0,0.0,0.0,0.0,0.0,0.0,0.0,0.0,0.0,0.0,0.0,0.0,0.0,0.0,0.0,0.0,0.0,0.0,0.0,0.0,0.0,0.0,0.0,0.0,0.0,0.0,0.0,-1.5704,-1.409,0.0,0.0,0.0,0.0,0.0,0.0,0.0,0.0,0.0,0.0,0.0,0.0,0.0,0.0,0.0,0.0,0.0,0.0,0.0,0.0,0.0,0.0,0.0,0.0,0.0,0.0,0.0,0.0,0.0,0.0,0.0,0.0,0.0,0.0,0.0,0.0,0.0,0.0,0.0,0.0,-1.5698,-2.0692,-2.4043,-2.3621,-2.3584,-2.3419,-2.2987,-2.2951,-2.2914,-2.2795,-2.2593,0.0,0.0,0.0,0.0,0.0,0.0,0.0,0.0,0.0,0.0,0.0,0.0,0.0,0.0,0.0,0.0,0.0,0.0,0.0,0.0,0.0,0.0,0.0,0.0,0.0,0.0,0.0,0.0,0.0,0.0,0.0,0.0,0.0,0.0,0.0,0.0,0.0,0.0,0.0,0.0,0.0,0.0,0.0,0.0,0.0,0.0,0.0,0.0,0.0,0.0,0.0,0.0,0.0,-1.6984,-1.7527,-1.8174,-1.8174,-1.9256,-2.1006,-1.8335,-1.8445,-2.0126,-1.5325,0.0,0.0,0.0,0.0,0.0,0.0,0.0,0.0,0.0,0.0,0.0,0.0,0.0,0.0,0.0,0.0,0.0,0.0,0.0,0.0,0.0,0.0,-1.6387,-1.6153,-1.7889,-1.8823,-1.6107,0.0,0.0,0.0,0.0,0.0,0.0,0.0,0.0,0.0,0.0,0.0,-1.6573,-2.1015,-2.419,-2.419,-2.419,-2.419,-2.419,-2.419,-2.3914,-2.3244,-2.3823,-2.3547,0.0,0.0,0.0,0.0,0.0,0.0,0.0,0.0,0.0,0.0,0.0,0.0,0.0,0.0,0.0,0.0,0.0,0.0,0.0,0.0,0.0,0.0,0.0,0.0,0.0,0.0,0.0,0.0,0.0,0.0,0.0,0.0,-1.4664,-1.5172,0.0,0.0,0.0,0.0,0.0,0.0,0.0,0.0,0.0,0.0,0.0,0.0,0.0,-1.5619,-1.6725,-1.8724,-1.9759,-1.9887,-2.2042,-2.3144,-2.3235,-2.3235,-2.3419,-2.3694,-2.3254,0.0,-2.0401,-1.8941,0.0,0.0,0.0,0.0,0.0,0.0,0.0,0.0,0.0,0.0,0.0,0.0,0.0,0.0,0.0,0.0,0.0,0.0,0.0,0.0,0.0,0.0,-2.1368,-2.1315,-2.1773,-2.2071,-2.1647,-1.8796,-1.6207,-1.5769,-1.2879,-0.8718,0.0,0.0,0.0,0.0,0.0,0.0,-1.9667,-2.2409,-2.419,-2.419,-2.419,-2.419,-2.419,-2.419,-2.4153,-2.4043,-2.4135,-2.2859,-1.9866,-2.1914,0.0,0.0,0.0,0.0,0.0,0.0,0.0,0.0,0.0,0.0,0.0,0.0,0.0,0.0,0.0,0.0,0.0,0.0,0.0,0.0,0.0,0.0,0.0,0.0,0.0,0.0,0.0,0.0,0.0,-1.2997,-1.4526,-1.5576,-1.3972,-1.1934,0.0,0.0,0.0,0.0,0.0,0.0,0.0,0.0,0.0,-1.8291,-1.8401,-1.9245,-2.0988,-2.2052,-2.2593,-2.2593,-2.3676,-2.419,-2.419,-2.419,-2.4094,-2.3917,-2.3917,-2.3198,-2.1918,-2.054,-1.8374,-1.5752,0.0,0.0,0.0,0.0,-1.3219,-1.3536,-1.659,-1.7402,-1.7161,-1.7672,0.0,0.0,0.0,0.0,0.0,0.0,0.0,-1.5382,-1.7815,-1.9486,-2.0807,-2.202,-2.25,-2.2708,-2.2708,-2.1417,-2.0386,-2.0866,-1.984,-1.683,-1.0325,-0.9206,0.0,0.0,0.0,-2.1153,-2.0566,-2.2666,-2.419,-2.419,-2.419,-2.419,-2.419,-2.419,-2.419,-2.419,-2.419,-2.3547,-2.2106,-2.1666,-1.9638,0.0,0.0,0.0,0.0,0.0,0.0,0.0,0.0,0.0,0.0,0.0,0.0,0.0,0.0,0.0,0.0,0.0,0.0,0.0,0.0,0.0,0.0,0.0,0.0,0.0,0.0,0.0,0.0,-1.4459,-1.5443,-1.668,-1.5826,-1.3835,0.0,0.0,0.0,0.0,0.0,0.0,-1.6753,-1.6888,-1.8317,-2.1355,-2.1447,-2.2327,-2.4171,-2.419,-2.4161,-2.4074,-2.4074,-2.4026,-2.3937,-2.3937,-2.3806,-2.3566,-2.3566,-2.3426,-2.31,-2.1762,-2.0354,-1.8905,-1.706,-1.5463,-1.438,-1.5793,-1.6201,-1.6491,-1.9759,-2.0569,-2.0096,-1.9749,-1.8895,-1.7641,-1.562,0.0,0.0,0.0,0.0,-1.6505,-1.9105,-1.9843,-2.0317,-2.1918,-2.245,-2.2599,-2.2599,-2.2444,-2.2538,-2.3287,-2.3649,-2.203,-1.6461,-1.5574,0.0,-1.4563,-1.9287,-2.2575,-2.1575,-2.307,-2.419,-2.419,-2.419,-2.419,-2.419,-2.4113,-2.4074,-2.4074,-2.4074,-2.4074,-2.4074,-2.1814,-2.1317,-2.2905,0.0,0.0,0.0,0.0,0.0,0.0,0.0,0.0,0.0,0.0,0.0,0.0,0.0,0.0,0.0,0.0,0.0,0.0,0.0,0.0,0.0,0.0,0.0,0.0,0.0,0.0,0.0,0.0,0.0,-1.9849,-2.0032,0.0,0.0,0.0,0.0,-1.4679,-1.5664,-1.7345,-1.975,-2.0122,-2.141,-2.3933,-2.4006,-2.4061,-2.419,-2.419,-2.4036,-2.3742,-2.3742,-2.3555,-2.3247,-2.3247,-2.3236,-2.3242,-2.3242,-2.323,-2.32,-2.31,-2.168,-1.9544,-1.9439,-1.7945,-1.6158,-1.851,-1.9376,-1.971,-2.2204,-2.3012,-2.2988,-2.2965,-2.0886,-1.8435,-1.8742,-1.691,0.0,0.0,-1.8887,-1.9371,-2.1559,-2.2141,-2.2175,-2.2262,-2.231,-2.2307,-2.2307,-2.1762,-2.1648,-2.2952,-2.2984,-2.18,-1.8726,0.0,-1.8671,-1.8617,-1.915,-2.0637,-2.3621,-2.4116,-2.419,-2.419,-2.419,-2.419,-2.419,-2.3907,-2.3742,-2.3742,-2.3742,-2.3742,-2.3742,-2.388,-2.2556,-1.9609,-2.2171,0.0,0.0,0.0,0.0,0.0,0.0,0.0,0.0,0.0,0.0,0.0,0.0,0.0,0.0,0.0,0.0,0.0,0.0,0.0,0.0,0.0,0.0,0.0,0.0,0.0,0.0,0.0,0.0,-1.9055,-1.9543,0.0,-1.6,-1.7567,-1.861,-1.8235,-2.021,-2.1808,-2.2693,-2.2616,-2.2958,-2.385,-2.3671,-2.3555,-2.3555,-2.3555,-2.35,-2.338,-2.3606,-2.3533,-2.32,-2.3426,-2.3288,-2.2885,-2.2885,-2.2776,-2.2624,-2.2624,-2.2228,-2.1591,-2.1591,-2.096,-2.0191,-2.1205,-2.1497,-2.149,-2.2524,-2.2768,-2.2624,-2.2624,-2.1837,-2.0943,-2.1113,-2.0437,-1.9838,-2.0866,-2.1155,-2.1345,-2.209,-2.2296,-2.2296,-2.2296,-2.2296,-2.2296,-2.2296,-2.2076,-2.2055,-2.252,-2.2285,-2.1218,-1.8808,-2.0219,-2.0961,-1.8886,-2.0428,-2.2231,-2.3411,-2.3735,-2.3886,-2.3886,-2.4074,-2.419,-2.419,-2.4094,-2.4016,-2.4016,-2.3816,-2.3703,-2.3703,-2.3816,-2.3331,-2.2141,-2.348,-2.3437,0.0,0.0,0.0,0.0,0.0,0.0,0.0,0.0,0.0,0.0,0.0,0.0,0.0,0.0,0.0,0.0,0.0,0.0,0.0,0.0,0.0,0.0,0.0,0.0,0.0,-1.7842,-1.9314,-1.8704,-2.0033,-1.9992,-1.7462,-1.96,-2.11,-2.0997,-2.2665,-2.3692,-2.3692,-2.3588,-2.3533,-2.3533,-2.3323,-2.3247,-2.3369,-2.3265,-2.32,-2.32,-2.3311,-2.3195,-2.2908,-2.3117,-2.2982,-2.2577,-2.2577,-2.2463,-2.2296,-2.2296,-2.2398,-2.2577,-2.2577,-2.245,-2.2307,-2.25,-2.245,-2.2338,-2.25,-2.245,-2.2296,-2.2296,-2.2296,-2.2296,-2.2296,-2.2296,-2.2296,-2.2296,-2.2296,-2.2296,-2.2296,-2.2296,-2.2296,-2.2296,-2.2296,-2.2296,-2.2296,-2.2296,-2.2296,-2.2296,-2.2044,-2.1368,-1.997,-2.1563,-2.2224,-1.9835,-2.1608,-2.3112,-2.2864,-2.3242,-2.3533,-2.3533,-2.3724,-2.3847,-2.3847,-2.3121,-2.3002,-2.3811,-2.2994,-2.2852,-2.3667,-2.2998,-2.2622,-2.2622,-2.2831,-2.2464,-2.1473,0.0,0.0,0.0,0.0,0.0,0.0,0.0,0.0,0.0,0.0,0.0,0.0,0.0,0.0,0.0,0.0,0.0,0.0,0.0,0.0,0.0,0.0,0.0,-1.8894,-1.923,-1.9427,-1.9224,-2.1826,-2.2604,-1.9949,-2.1812,-2.3057,-2.2721,-2.2708,-2.2721,-2.2721,-2.3021,-2.3177,-2.3177,-2.3177,-2.3335,-2.3649,-2.3335,-2.3165,-2.3165,-2.286,-2.2563,-2.2296,-2.231,-2.231,-2.2296,-2.2296,-2.2296,-2.2296,-2.2296,-2.2296,-2.2296,-2.2296,-2.2296,-2.2296,-2.2296,-2.2296,-2.2296,-2.2296,-2.2296,-2.2296,-2.2296,-2.2296,-2.2296,-2.2296,-2.2296,-2.2296,-2.2296,-2.2296,-2.2296,-2.2296,-2.2296,-2.2296,-2.2296,-2.2296,-2.2296,-2.2296,-2.2296,-2.2296,-2.2296,-2.2296,-2.2296,-2.2296,-2.2514,-2.2452,-2.1725,-2.2498,0.0,-2.2209,-2.2746,-2.3189,-2.3153,-2.3165,-2.3177,-2.3177,-2.1035,-2.0696,-2.3047,-2.1289,-2.1225,-2.3563,-2.1689,-2.0596,-2.0604,-2.0604,-1.9193,-1.6358,0.0,0.0,0.0,0.0,0.0,0.0,0.0,0.0,0.0,0.0,0.0,0.0,0.0,0.0,0.0,0.0,0.0,0.0,0.0,0.0,0.0,-1.7264,-1.8894,-1.8894,-2.0403,-2.1483,-2.143,-2.2171,-2.2384,-2.1639,-2.234,-2.281,-2.2708,-2.2935,-2.3069,-2.3069,-2.2923,-2.2835,-2.2835,-2.2643,-2.2584,-2.2677,-2.2584,-2.2561,-2.2561,-2.2652,-2.2563,-2.231,-2.25,-2.2473,-2.2296,-2.2296,-2.2296,-2.2296,-2.2296,-2.2296,-2.2296,-2.2296,-2.2296,-2.2296,-2.2296,-2.2296,-2.2296,-2.2296,-2.2296,-2.2296,-2.2296,-2.2296,-2.2296,-2.2296,-2.2296,-2.2296,-2.2296,-2.2296,-2.2296,-2.2296,-2.2296,-2.2296,-2.2296,-2.2296,-2.2296,-2.2296,-2.2296,-2.2296,-2.2296,-2.2296,-2.2296,-2.2296,-2.236,-2.233,-2.2143,-2.2357,-2.2462,-2.227,-2.2595,-2.2713,-2.237,-2.2542,-2.269,-2.269,-2.2077,-2.2136,-2.3141,-2.2435,-2.2282,-2.2937,-2.2638,-2.2568,-2.2809,-2.272,-2.243,0.0,0.0,0.0,0.0,0.0,0.0,0.0,0.0,0.0,0.0,0.0,0.0,0.0,0.0,0.0,0.0,0.0,0.0,0.0,0.0,0.0,0.0,-1.913,-2.0331,-2.0331,-2.1451,-2.2296,-2.2296,-2.2402,-2.2463,-2.2463,-2.2612,-2.2708,-2.2708,-2.2781,-2.2824,-2.2824,-2.2643,-2.2523,-2.2523,-2.2374,-2.2346,-2.2463,-2.2363,-2.2363,-2.2463,-2.2514,-2.245,-2.231,-2.2463,-2.245,-2.2296,-2.2296,-2.2296,-2.2296,-2.2296,-2.2296,-2.2296,0.0,0.0,0.0,0.0,-2.2296,-2.2296,-2.2296,-2.2296,-2.2296,-2.2296,-2.2296,-2.2296,-2.2296,-2.2296,-2.2296,-2.2296,-2.2296,-2.2296,-2.2296,-2.2296,-2.2296,-2.2296,-2.2296,-2.2296,-2.2296,-2.2296,-2.2296,-2.2296,-2.2296,0.0,-2.2296,-2.2296,-2.2209,-2.1887,-2.2107,-2.2178,-2.187,-2.2248,-2.2435,-2.2153,-2.2298,-2.2423,-2.2423,-2.16,0.0,0.0,0.0,-2.1394,-2.1394,-2.1715,0.0,0.0,0.0,-2.2648,-2.3785,-2.3785,0.0,0.0,-2.1084,-1.9032,0.0,0.0,0.0,0.0,0.0,0.0,0.0,0.0,0.0,0.0,0.0,0.0,0.0,0.0,0.0,0.0,-2.0873,-2.2296,-2.2296,-2.2296,-2.2296,-2.2296,-2.2514,-2.2643,-2.2643,-2.2643,-2.2643,-2.2643,-2.2422,-2.2296,-2.2296,-2.2296,0.0,0.0,0.0,-2.2412,-2.266,-2.2426,-2.2426,-2.266,-2.2412,-2.2296,-2.2296,-2.2296,-2.2296,-2.2296,-2.2296,-2.2296,-2.2296,-2.2381,-2.2415,-2.2429,-2.233,-2.2296,-2.2296,-2.2296,-2.2296,-2.2296,-2.2296,0.0,0.0,-2.2296,-2.2296,-2.2296,-2.2296,-2.2296,-2.2296,-2.2296,-2.2296,-2.2296,-2.2296,-2.2296,-2.2296,-2.2296,-2.2296,-2.2296,-2.2296,-2.2296,-2.2296,-2.2296,-2.2296,-2.2296,-2.2296,-2.2296,-2.209,-2.1427,-2.187,-2.2073,-2.141,-2.1904,-2.2276,-2.2217,-2.2217,0.0,-2.2217,-2.0462,-2.0312,-2.2509,-2.0929,-1.9924,-1.9949,-2.0205,-2.0215,-1.9949,-2.0205,-2.1298,-2.32,-2.3153,-2.3335,-2.3613,-2.0042,-1.8903,0.0,0.0,0.0,0.0,0.0,0.0,0.0,0.0,0.0,0.0,0.0,0.0,0.0,0.0,0.0,-1.9676,-2.1197,-2.2296,-2.2296,-2.2296,-2.2296,-2.2296,-2.2349,-2.2374,-2.2374,-2.2374,-2.2374,-2.2374,-2.2321,-2.2296,-2.2296,-2.2296,-2.2296,-2.2296,-2.2296,-2.2321,-2.2374,-2.2338,-2.2338,-2.2374,-2.2321,0.0,-2.2296,-2.2296,-2.2296,-2.2296,-2.2296,-2.2296,-2.2347,-2.2936,-2.319,-2.3122,-2.2533,-2.2296,-2.2296,-2.2296,-2.2296,-2.2296,-2.2296,-2.2296,-2.2296,-2.2296,-2.2296,-2.2296,-2.2296,-2.2296,0.0,-2.2296,-2.2296,-2.2296,-2.2296,-2.2296,-2.2296,-2.2296,-2.2296,-2.2296,-2.2296,-2.2296,-2.2296,-2.2296,-2.2296,-2.2296,-2.2296,-2.2296,-2.2245,-2.2124,-2.2212,-2.2245,-2.2124,-2.2212,-2.2139,-2.1696,-2.1653,-2.1653,-2.1653,-2.1278,-2.1421,-2.232,-2.1993,-2.188,-2.2086,-2.1953,-2.1958,-2.2099,-2.1941,-2.2301,-2.32,-2.2935,-2.3105,-2.3685,-2.2903,-2.2799,0.0,0.0,0.0,0.0,0.0,0.0,0.0,0.0,0.0,0.0,0.0,-1.6931,-1.767,0.0,-2.0281,-2.1028,-2.1806,-2.2296,-2.2296,-2.2296,-2.2296,-2.2296,-2.2296,-2.2296,-2.2296,-2.2296,-2.2296,-2.2296,-2.2296,-2.2296,-2.2296,-2.2296,-2.2296,-2.2296,-2.2296,-2.2296,-2.2296,-2.2682,-2.2852,-2.2852,-2.3224,-2.3393,-2.3393,-2.3393,-2.3393,-2.3393,-2.3393,-2.3393,-2.3427,-2.3814,-2.3949,-2.3915,-2.3528,-2.3173,-2.2852,-2.2852,-2.3088,-2.3342,-2.2987,-2.2852,-2.2801,-2.2415,-2.2296,-2.2296,-2.2296,-2.2296,-2.2296,-2.2296,-2.2296,-2.2296,-2.2296,-2.2296,-2.2296,-2.2296,-2.2296,-2.2296,-2.2296,-2.2296,-2.2296,-2.2296,-2.2296,-2.2296,-2.2296,-2.2296,-2.2296,-2.2296,-2.2296,-2.2296,-2.2296,-2.2296,-2.22,-2.1938,-2.19,-2.19,-2.19,-2.19,-2.202,-2.2276,-2.2296,-2.236,-2.2487,-2.25,-2.25,-2.25,-2.25,-2.2594,-2.2747,-2.2581,-2.2832,-2.3448,-2.3448,-2.3639,0.0,0.0,0.0,0.0,0.0,0.0,0.0,-1.3904,-1.4208,-1.6441,-1.785,-1.886,-1.9452,-2.0581,-2.1613,-2.2195,-2.2296,-2.2296,-2.2296,-2.2296,-2.2296,-2.2296,-2.2296,-2.2296,-2.2296,-2.2296,-2.2296,-2.2296,-2.2296,-2.2347,-2.2513,-2.2499,-2.2581,-2.2733,-2.2733,-2.2733,-2.2733,-2.3308,-2.3613,-2.3613,-2.422,-2.4491,-2.4491,-2.4491,-2.4491,-2.4491,-2.4491,-2.4575,-2.4711,-2.4711,-2.4711,-2.4711,-2.4711,-2.4355,-2.3799,-2.3663,-2.4,-2.4406,-2.3831,-2.3613,-2.3526,-2.2919,-2.2733,-2.2733,-2.2733,-2.2733,-2.2733,-2.2733,-2.2733,-2.2733,-2.2733,-2.2733,-2.2733,-2.2733,-2.2733,-2.2733,-2.2733,-2.2733,-2.2733,-2.2733,-2.2733,-2.2733,-2.2733,-2.2615,-2.2465,-2.2313,-2.2296,-2.2296,-2.2296,-2.2296,-2.2296,-2.2296,-2.2296,-2.2296,-2.2296,-2.2296,-2.2296,-2.2296,-2.2296,-2.2296,-2.2296,-2.2514,-2.2527,-2.231,-2.2514,-2.2537,-2.2374,-2.2338,-2.2584,-2.3105,-2.3165,-2.3414,-1.4622,-1.3701,-1.3523,-1.3996,-1.4115,-1.5366,0.0,-1.9621,-1.8809,-2.1079,-2.1671,-2.1823,-2.189,-2.206,-2.2195,-2.2279,-2.2296,-2.2296,-2.2296,-2.2296,-2.2296,-2.2296,-2.2296,-2.2296,-2.2296,-2.2296,-2.2296,-2.2296,-2.2296,-2.2584,-2.3241,-2.3274,-2.3579,-2.422,-2.4254,-2.4254,-2.4254,-2.4338,-2.4372,-2.4372,-2.4457,-2.4491,-2.4491,-2.4491,-2.4491,-2.4491,-2.4491,-2.488,-2.549,-2.549,-2.549,-2.549,-2.549,-2.5439,-2.527,-2.4626,-2.4423,-2.4491,-2.4406,-2.4372,-2.4355,-2.4271,-2.4254,-2.4254,-2.4254,-2.4254,-2.4254,-2.4254,-2.4254,-2.4254,-2.4254,-2.4254,-2.4254,-2.4254,-2.4254,-2.4254,-2.4254,-2.4254,-2.4254,-2.4254,-2.4254,-2.4254,-2.4254,-2.3712,-2.3054,-2.2398,-2.2296,-2.2296,-2.2296,-2.2296,-2.2296,-2.2296,-2.2296,-2.2296,-2.2296,-2.2296,-2.2296,-2.2296,-2.2296,-2.2296,-2.2296,-2.2321,-2.2321,-2.2296,-2.2321,-2.2453,-2.2643,-2.2412,-2.2467,-2.2772,-2.3057,-2.3544,-1.8403,-1.7518,-1.679,-1.7529,-1.7687,-1.8262,-2.0458,-2.0217,-2.0065,-2.1924,-2.2296,-2.2296,-2.2296,-2.2296,-2.2296,-2.2296,-2.2296,-2.2296,-2.2296,-2.2296,-2.2296,-2.2296,-2.2296,-2.2296,-2.2296,-2.2296,-2.2482,-2.2919,-2.2936,-2.3257,-2.4,-2.4051,-2.4186,-2.4491,-2.4491,-2.4491,-2.4491,-2.4931,-2.5135,-2.5152,-2.5591,-2.5794,-2.5794,-2.5794,-2.5794,-2.5794,-2.5794,-2.5947,-2.6234,-2.6234,-2.6234,-2.6234,-2.6234,-2.6234,-2.615,-2.5406,-2.5406,-2.5726,-2.5287,-2.5135,-2.5067,-2.4643,-2.4491,-2.4491,-2.4491,-2.4491,-2.4491,-2.4491,-2.4491,-2.4491,-2.4491,-2.4491,-2.4491,-2.4491,-2.4491,-2.4491,-2.4491,-2.4491,-2.4491,-2.4491,-2.4491,-2.4491,-2.4491,-2.4237,-2.3797,-2.3054,-2.2567,-2.2296,-2.2296,-2.2296,-2.2296,-2.2296,-2.2296,-2.2296,-2.2296,-2.2296,-2.2296,-2.2296,-2.2296,-2.2296,-2.2296,-2.2296,-2.2296,-2.2296,-2.2296,-2.2363,-2.2463,-2.2346,-2.244,-2.2708,-2.2848,-2.3165,-1.9464,-1.9295,-1.9029,-1.9558,-2.0166,-2.0627,-2.0627,-2.0627,-2.0961,-2.2076,-2.2296,-2.2296,-2.2296,-2.2296,-2.2296,-2.2296,-2.2296,-2.2296,-2.2296,-2.2296,-2.2296,-2.2296,-2.2482,-2.26,-2.26,-2.26,-2.2919,-2.3646,-2.3697,-2.4034,-2.4762,-2.4795,-2.4897,-2.51,-2.5117,-2.5117,-2.5117,-2.5642,-2.5913,-2.5913,-2.6437,-2.6691,-2.6691,-2.6691,-2.6691,-2.6691,-2.6691,-2.6691,-2.6691,-2.6691,-2.6691,-2.6691,-2.6691,-2.6691,-2.664,-2.6099,-2.6234,-2.6623,-2.6099,-2.5913,-2.5828,-2.5286,-2.5117,-2.5117,-2.5117,-2.5117,-2.5117,-2.5117,-2.5117,-2.5117,-2.5117,-2.5117,-2.5117,-2.5117,-2.5117,-2.5117,-2.5117,-2.5117,-2.5117,-2.5117,-2.5117,-2.5117,-2.5117,-2.4948,-2.4626,-2.4086,-2.3376,-2.2767,-2.2347,-2.2296,-2.2296,-2.2296,-2.2296,-2.2296,-2.2296,-2.2296,-2.2296,-2.2296,-2.2296,-2.2296,-2.2296,-2.2296,-2.2296,-2.2296,-2.2296,-2.2296,-2.2296,-2.2296,-2.2402,-2.2586,-2.2673,-2.2835,-1.6153,-1.7304,-1.8922,-1.8927,-2.0602,-2.2229,-2.2229,-2.2229,-2.2245,-2.2279,-2.2296,-2.2296,-2.2296,-2.2296,-2.2296,-2.2296,-2.2296,-2.2296,-2.2296,-2.2296,-2.2296,-2.2296,-2.2936,-2.3359,-2.3359,-2.3359,-2.3663,-2.4406,-2.4457,-2.4795,-2.5541,-2.5575,-2.5896,-2.6607,-2.6623,-2.6623,-2.6623,-2.6674,-2.6657,-2.6657,-2.6691,-2.6691,-2.6691,-2.6691,-2.6691,-2.6691,-2.6691,-2.6691,-2.6691,-2.6691,-2.6691,-2.6691,-2.6691,-2.6691,-2.6691,-2.6674,-2.6674,-2.6691,-2.6674,-2.6657,-2.6657,-2.664,-2.6623,-2.6623,-2.6623,-2.6623,-2.6623,-2.6623,-2.6623,-2.6623,-2.6623,-2.6623,-2.6623,-2.6623,-2.6623,-2.6623,-2.6623,-2.6623,-2.6623,-2.6623,-2.6623,-2.6623,-2.6623,-2.6048,-2.5558,-2.5541,-2.4914,-2.3915,-2.2482,-2.2296,-2.2296,-2.2296,-2.2296,-2.2296,-2.2296,-2.2296,-2.2296,-2.2296,-2.2296,-2.2296,-2.2296,-2.2296,-2.2296,-2.2296,-2.2296,-2.2296,-2.2296,-2.2296,-2.231,-2.2324,-2.2573,-2.2708,-1.8391,-1.9068,-1.9879,-2.0906,-2.1721,-2.2296,-2.2296,-2.2296,-2.2296,-2.2296,-2.2296,-2.2296,-2.2296,-2.2296,-2.2296,-2.2296,-2.2296,-2.2465,-2.297,-2.3038,-2.3207,-2.3712,-2.3983,-2.4321,-2.4814,-2.4423,-2.444,-2.5169,-2.522,-2.5541,-2.6285,-2.6336,-2.6437,-2.6691,-2.6691,-2.6691,-2.6691,-2.6691,-2.6691,-2.6691,-2.6691,-2.6691,-2.6691,-2.6691,-2.6691,-2.6691,-2.6691,-2.6691,-2.6691,-2.6691,-2.6691,-2.6691,-2.6691,-2.6691,-2.6691,-2.6691,-2.6691,-2.6691,-2.6691,-2.6691,-2.6691,-2.6691,-2.6691,-2.6691,-2.6691,-2.6691,-2.6691,-2.6691,-2.6691,-2.6691,-2.6691,-2.6691,-2.6691,-2.6691,-2.6691,-2.6691,-2.6691,-2.6691,-2.6691,-2.6691,-2.6691,-2.6691,-2.6691,-2.6488,-2.6167,-2.566,-2.4966,-2.4321,-2.3831,-2.3763,-2.3763,-2.3763,-2.3325,-2.3038,-2.3038,-2.2581,-2.2296,-2.2296,-2.2296,-2.2296,-2.2296,-2.2296,-2.2296,-2.2296,-2.2296,-2.2296,-2.2296,-2.2296,-2.2296,-2.231,-2.2402,-2.2422,-1.9596,-2.0002,-2.0373,-2.1907,-2.2296,-2.2296,-2.2296,-2.2296,-2.2296,-2.2296,-2.2076,-2.1989,-2.2245,-2.209,-2.2073,-2.2615,-2.2919,-2.3241,-2.3729,-2.4019,-2.4255,-2.4474,-2.4728,-2.5067,-2.5542,-2.5406,-2.5489,-2.5964,-2.5998,-2.6201,-2.6674,-2.6691,-2.6691,-2.6691,-2.6691,-2.6691,-2.6691,-2.6691,-2.6691,-2.6691,-2.6691,-2.6691,-2.6691,-2.6691,-2.6691,-2.6691,-2.6691,-2.6691,-2.6691,-2.6691,-2.6691,-2.6691,-2.6691,-2.6691,-2.6691,-2.6691,-2.6691,-2.6691,-2.6691,-2.6691,-2.6691,-2.6691,-2.6691,-2.6691,-2.6691,-2.6691,-2.6691,-2.6691,-2.6691,-2.6691,-2.6691,-2.6691,-2.6691,-2.6691,-2.6691,-2.6691,-2.6691,-2.6691,-2.6691,-2.6691,-2.6691,-2.6691,-2.6691,-2.6691,-2.6539,-2.6065,-2.5592,-2.51,-2.4558,-2.4491,-2.4491,-2.4491,-2.4085,-2.3695,-2.341,-2.297,-2.2581,-2.2313,-2.2296,-2.2296,-2.2296,-2.2296,-2.2296,-2.2296,-2.2296,-2.2296,-2.2296,-2.2296,-2.2296,-2.2296,-2.2296,-2.2296,-1.9664,-2.0086,-2.0475,-2.1924,-2.2296,-2.2296,-2.2296,-2.2296,-2.2279,-2.2195,-2.1634,-2.1326,-2.1921,-2.1532,-2.1597,-2.3004,-2.3915,-2.4457,-2.4541,-2.5152,-2.5355,-2.4694,-2.522,-2.5659,-2.5659,-2.6285,-2.6691,-2.6691,-2.6691,-2.6691,-2.6691,-2.6691,-2.6691,-2.6691,-2.6691,-2.6691,-2.6691,-2.6691,-2.6691,-2.6691,-2.6691,-2.6691,-2.6691,-2.6691,-2.6691,-2.6691,-2.6691,-2.6691,-2.6691,-2.6691,-2.6691,-2.6691,-2.6691,-2.6691,-2.6691,-2.6691,-2.6691,-2.6691,-2.6691,-2.6691,-2.6691,-2.6691,-2.6691,-2.6691,-2.6691,-2.6691,-2.6691,-2.6691,-2.6691,-2.6691,-2.6674,-2.6657,-2.6657,-2.6641,-2.6607,-2.6641,-2.6657,-2.6657,-2.6674,-2.6691,-2.6691,-2.6691,-2.6691,-2.6691,-2.6691,-2.6691,-2.6691,-2.62,-2.4795,-2.4609,-2.4609,-2.4609,-2.4575,-2.4271,-2.3562,-2.3477,-2.3156,-2.2448,-2.2381,-2.2347,-2.2347,-2.2313,-2.2296,-2.2296,-2.2296,-2.2296,-2.2296,-2.2296,-2.2296,-2.2296,-2.2296,-2.2296,-2.0636,-2.1295,-2.1806,-2.2195,-2.2296,-2.2296,-2.2296,-2.2296,-2.1975,-2.0812,-2.0437,-1.9858,-1.8398,-1.9316,-2.0437,-2.0809,-2.2446,-2.4052,-2.5169,-2.549,-2.5744,-2.6099,-2.6319,-2.642,-2.642,-2.659,-2.6691,-2.6691,-2.6691,-2.6691,-2.6691,-2.6691,-2.6691,-2.6691,-2.6691,-2.6691,-2.6691,-2.6691,-2.6691,-2.6691,-2.6691,-2.6691,-2.6691,-2.6691,-2.6691,-2.6691,-2.6691,-2.6691,-2.6691,-2.6691,-2.6691,-2.6691,-2.6691,-2.6691,-2.6691,-2.6691,-2.6691,-2.6691,-2.6691,-2.6691,-2.6691,-2.6691,-2.6691,-2.6691,-2.6691,-2.6691,-2.6691,-2.6691,-2.6691,-2.6624,-2.6262,-2.6191,-2.6068,-2.5672,-2.558,-2.5691,-2.6086,-2.6191,-2.6279,-2.6641,-2.6691,-2.6691,-2.6691,-2.6691,-2.6691,-2.6691,-2.6691,-2.6556,-2.62,-2.6149,-2.6149,-2.6149,-2.5642,-2.5236,-2.5067,-2.4541,-2.4135,-2.3949,-2.341,-2.3122,-2.3122,-2.2584,-2.2296,-2.2296,-2.2296,-2.2296,-2.2296,-2.2296,-2.2296,-2.2296,-2.2296,-2.2296,-2.1465,-2.1989,-2.2296,-2.2296,-2.2296,-2.211,-2.1451,-2.1299,-2.0775,-1.8927,-1.8555,-1.8065,-1.6502,-1.829,-2.0132,-2.0467,-2.2953,-2.5135,-2.5964,-2.6353,-2.659,-2.6691,-2.6691,-2.6691,-2.6691,-2.6691,-2.6691,-2.6691,-2.6691,-2.6691,-2.6691,-2.6691,-2.6691,-2.6691,-2.6691,-2.6691,-2.6691,-2.6691,-2.6691,-2.6691,-2.6691,-2.6691,-2.6691,-2.6691,-2.6691,-2.6691,-2.6691,-2.6691,-2.6691,-2.6691,-2.6691,-2.6691,-2.6691,-2.6691,-2.6691,-2.6691,-2.6691,-2.6691,-2.6691,-2.6691,-2.6691,-2.6691,-2.6691,-2.6691,-2.6691,-2.6691,-2.6691,-2.6691,-2.6691,-2.659,-2.612,-2.6013,-2.587,-2.5335,-2.5202,-2.5278,-2.5596,-2.5652,-2.5726,-2.5998,-2.6228,-2.6384,-2.6384,-2.6556,-2.6691,-2.6691,-2.6691,-2.6691,-2.6691,-2.6691,-2.6691,-2.6691,-2.6336,-2.5947,-2.5626,-2.522,-2.4846,-2.4508,-2.4118,-2.3881,-2.3881,-2.3173,-2.2784,-2.2784,-2.2448,-2.2296,-2.2296,-2.2296,-2.2296,-2.2296,-2.2296,-2.2296,-2.2141,-2.2296,-2.2296,-2.2296,-2.2296,-2.189,-2.0339,-1.9917,-1.9203,-1.6874,-1.6326,-1.5994,-1.5165,-1.7411,-1.9744,-2.0733,-2.3915,-2.6353,-2.6657,-2.7249,-2.7418,-2.6776,-2.6691,-2.6691,-2.6691,-2.6691,-2.6691,-2.6691,-2.6691,-2.6691,-2.6691,-2.6691,-2.6691,-2.6691,-2.6691,-2.6691,-2.6691,-2.6691,-2.6691,-2.6691,-2.6691,-2.6691,-2.6691,-2.6691,-2.6691,-2.6725,-2.6793,-2.6793,-2.6708,-2.6928,-2.6877,-2.6708,-2.681,-2.6776,-2.6691,-2.6691,-2.6691,-2.6691,-2.6691,-2.6691,-2.6691,-2.6691,-2.6657,-2.6607,-2.6607,-2.6556,-2.6505,-2.6505,-2.6505,-2.6385,-2.5924,-2.5797,-2.5652,-2.5125,-2.4989,-2.5008,-2.5086,-2.5163,-2.5202,-2.5202,-2.5577,-2.5888,-2.5888,-2.6228,-2.6522,-2.6607,-2.6607,-2.6641,-2.6691,-2.6691,-2.6691,-2.6691,-2.6691,-2.6437,-2.5812,-2.5761,-2.5473,-2.4829,-2.4694,-2.4643,-2.4643,-2.3949,-2.3545,-2.3545,-2.2818,-2.2448,-2.2448,-2.2347,-2.2296,-2.2296,-2.2296,-2.2296,-2.2262,-2.2296,-2.2296,-2.2296,-2.2296,-2.189,-2.0339,-1.9524,-1.8285,-1.545,-1.4403,-1.354,-1.2135,-1.4344,-1.7016,-1.899,-2.1921,-2.4611,-2.6437,-2.681,-2.6843,-2.6708,-2.6691,-2.6691,-2.6691,-2.6691,-2.6691,-2.6691,-2.6691,-2.6691,-2.6691,-2.6691,-2.6691,-2.6691,-2.6691,-2.6691,-2.6691,-2.6691,-2.6691,-2.6691,-2.6691,-2.6691,-2.6691,-2.6691,-2.6691,-2.6725,-2.7334,-2.7249,-2.6793,-2.8079,-2.7859,-2.6759,-2.7367,-2.7249,-2.6691,-2.6691,-2.6691,-2.6691,-2.6691,-2.6691,-2.6691,-2.6691,-2.6436,-2.612,-2.612,-2.5817,-2.5468,-2.5468,-2.5468,-2.5354,-2.4796,-2.4692,-2.4536,-2.4012,-2.3879,-2.3991,-2.445,-2.4891,-2.5202,-2.5202,-2.5278,-2.5335,-2.5335,-2.5411,-2.5617,-2.605,-2.612,-2.6262,-2.6657,-2.6691,-2.6691,-2.6691,-2.6691,-2.664,-2.6522,-2.6505,-2.6437,-2.6336,-2.5744,-2.5423,-2.5423,-2.4711,-2.4305,-2.4305,-2.3579,-2.3207,-2.3207,-2.2598,-2.2296,-2.2296,-2.2296,-2.2296,-2.2296,-2.2296,-2.2296,-2.2296,-2.2296,-2.1586,-1.891,-1.8014,-1.6688,-1.2931,-1.2178,-1.1746,-1.0223,-1.3049,-1.595,-1.6999,-2.067,-2.39,-2.5354,-2.6217,-2.6691,-2.6691,-2.6691,-2.6691,-2.6691,-2.6691,-2.6691,-2.6691,-2.6691,-2.6691,-2.6691,-2.6691,-2.6691,-2.6691,-2.6691,-2.6691,-2.6691,-2.6691,-2.6691,-2.6691,-2.7097,-2.7283,-2.73,-2.7706,-2.791,-2.7893,-2.7824,-2.7841,-2.7927,-2.823,-2.818,-2.7943,-2.8281,-2.8197,-2.791,-2.791,-2.7621,-2.7334,-2.7757,-2.7429,-2.6878,-2.7296,-2.677,-2.6013,-2.6013,-2.5633,-2.5202,-2.5202,-2.5202,-2.5086,-2.4552,-2.441,-2.4266,-2.373,-2.3595,-2.3681,-2.3943,-2.4199,-2.4369,-2.4369,-2.4576,-2.4776,-2.4776,-2.5028,-2.5297,-2.554,-2.5596,-2.5762,-2.6279,-2.6087,-2.6123,-2.6641,-2.647,-2.6436,-2.6674,-2.647,-2.6436,-2.6691,-2.637,-2.6167,-2.6167,-2.5456,-2.5067,-2.5067,-2.4355,-2.3966,-2.3966,-2.3613,-2.3241,-2.2868,-2.2868,-2.2682,-2.2296,-2.2296,-2.2296,-2.2296,-2.2296,-2.1329,-1.7562,-1.658,-1.5233,-1.0886,-1.0335,-1.0324,-0.9315,-1.2152,-1.4902,-1.5697,-1.9549,-2.2917,-2.4305,-2.5625,-2.6522,-2.6674,-2.6691,-2.6691,-2.6691,-2.6691,-2.6691,-2.6691,-2.6691,-2.6691,-2.6691,-2.6691,-2.6776,-2.6928,-2.6776,-2.686,-2.7182,-2.6877,-2.6877,-2.7199,-2.7621,-2.7891,-2.8077,-2.8704,-2.8993,-2.8976,-2.8501,-2.8569,-2.8976,-2.867,-2.8631,-2.8827,-2.8979,-2.8871,-2.8607,-2.8607,-2.8204,-2.7751,-2.8406,-2.7888,-2.7056,-2.7702,-2.6977,-2.5861,-2.5861,-2.5407,-2.4871,-2.4871,-2.4871,-2.4756,-2.4328,-2.4241,-2.4116,-2.3702,-2.3595,-2.3595,-2.3595,-2.3595,-2.3595,-2.3595,-2.3927,-2.4241,-2.4241,-2.4572,-2.491,-2.5012,-2.5028,-2.5221,-2.5744,-2.5449,-2.5505,-2.6298,-2.605,-2.5979,-2.635,-2.605,-2.5997,-2.635,-2.6487,-2.6556,-2.6556,-2.6083,-2.5845,-2.5845,-2.5101,-2.4745,-2.4745,-2.4575,-2.4203,-2.363,-2.346,-2.3088,-2.2296,-2.2296,-2.2296,-2.2296,-2.2296,-2.1329,-1.7562,-1.618,-1.4614,-1.0785,-0.9529,-0.9264,-0.9804,-1.0791,-1.2626,-1.6028,-1.8127,-2.053,-2.4,-2.5186,-2.5947,-2.6623,-2.6691,-2.6691,-2.6691,-2.6691,-2.6691,-2.6691,-2.6691,-2.6691,-2.6691,-2.6691,-2.7012,-2.7672,-2.7046,-2.7385,-2.8773,-2.7385,-2.7385,-2.879,-2.8129,-2.8197,-2.8891,-2.8976,-2.8993,-2.9027,-2.9634,-2.955,-2.9094,-3.0381,-2.9822,-2.8256,-2.892,-2.8433,-2.7368,-2.7368,-2.732,-2.7272,-2.7336,-2.7278,-2.7189,-2.7253,-2.6446,-2.5456,-2.5456,-2.4664,-2.3745,-2.3745,-2.3745,-2.3745,-2.3702,-2.3681,-2.3659,-2.3616,-2.3595,-2.3595,-2.3595,-2.3595,-2.3595,-2.3595,-2.3638,-2.3681,-2.3681,-2.3709,-2.3921,-2.441,-2.4471,-2.4672,-2.5186,-2.524,-2.524,-2.5335,-2.5297,-2.5297,-2.5319,-2.5297,-2.5297,-2.5335,-2.5781,-2.605,-2.605,-2.642,-2.659,-2.659,-2.5879,-2.5507,-2.5507,-2.4829,-2.4457,-2.4372,-2.3712,-2.3359,-2.2296,-2.2296,-2.2296,-2.2296,-2.1972,-2.0653,-1.6891,-1.5477,-1.3861,-1.0121,-0.9111,-0.8999,-0.9275,-0.9946,-1.1383,-1.426,-1.6316,-1.8415,-2.0801,-2.2953,-2.4374,-2.4678,-2.5507,-2.6201,-2.6657,-2.6691,-2.6691,-2.6691,-2.6691,-2.6894,-2.7334,-2.735,-2.7723,-2.8501,-2.8248,-2.8383,-2.8993,-2.84,-2.84,-2.8993,-2.9127,-2.9345,-2.9685,-3.0108,-3.033,-3.033,-3.0176,-2.9967,-2.9792,-2.9926,-2.9568,-2.8909,-2.9205,-2.8989,-2.8531,-2.8531,-2.8237,-2.7934,-2.8387,-2.7996,-2.738,-2.7825,-2.7149,-2.61,-2.6033,-2.5453,-2.4807,-2.4807,-2.4807,-2.4807,-2.4807,-2.4507,-2.4201,-2.4201,-2.3894,-2.3595,-2.3595,-2.3595,-2.3595,-2.3595,-2.3595,-2.3595,-2.3595,-2.3595,-2.3681,-2.39,-2.3921,-2.4116,-2.4652,-2.443,-2.4369,-2.4677,-2.4732,-2.4835,-2.5182,-2.4894,-2.4871,-2.5182,-2.5392,-2.5521,-2.5521,-2.5691,-2.5944,-2.6279,-2.5996,-2.5983,-2.6251,-2.5681,-2.533,-2.5152,-2.4528,-2.4176,-2.2229,-2.2296,-2.2296,-2.2296,-2.1752,-2.0226,-1.6468,-1.5028,-1.3422,-0.967,-0.8897,-0.8897,-0.8897,-0.9326,-1.0419,-1.2694,-1.4565,-1.6553,-1.891,-2.1262,-2.2987,-2.3661,-2.4644,-2.5558,-2.6302,-2.6573,-2.6691,-2.6691,-2.6894,-2.7368,-2.8094,-2.8365,-2.8755,-2.9314,-2.9111,-2.9213,-2.9653,-2.9213,-2.9213,-2.9653,-2.9956,-3.0114,-3.018,-3.07,-3.0838,-3.0645,-3.0125,-2.9951,-2.9989,-2.9466,-2.9221,-2.9134,-2.9134,-2.9019,-2.8857,-2.8857,-2.8543,-2.8175,-2.8684,-2.8241,-2.7546,-2.8045,-2.764,-2.6894,-2.6763,-2.6213,-2.5615,-2.5615,-2.5615,-2.5615,-2.5615,-2.5247,-2.4844,-2.4649,-2.4231,-2.3849,-2.364,-2.3595,-2.3595,-2.3595,-2.3595,-2.3595,-2.3595,-2.3595,-2.3595,-2.3595,-2.3595,-2.3745,-2.4116,-2.3837,-2.373,-2.4116,-2.4158,-2.4307,-2.4697,-2.4369,-2.4328,-2.4697,-2.4891,-2.4969,-2.4969,-2.5125,-2.5373,-2.576,-2.5744,-2.5943,-2.6263,-2.5926,-2.5679,-2.5462,-2.4869,-2.4462,-2.2107,-2.2296,-2.2296,-2.2296,-2.1752,-2.0226,-1.6468,-1.5028,-1.3422,-0.967,-0.8897,-0.8897,-0.8897,-0.8914,-0.9653,-1.1942,-1.2948,-1.4979,-1.9452,-2.075,-2.2037,-2.422,-2.4491,-2.4795,-2.5541,-2.6268,-2.6691,-2.6691,-2.7367,-2.8128,-2.8942,-2.9685,-3.0072,-3.0091,-2.9382,-2.9704,-3.1157,-2.9738,-2.9738,-3.1157,-3.0446,-3.0174,-3.0314,-3.0314,-2.9978,-2.9429,-2.9406,-2.9406,-2.9406,-2.939,-2.9042,-2.8511,-2.8511,-2.814,-2.7625,-2.7625,-2.761,-2.761,-2.7625,-2.761,-2.761,-2.7625,-2.7585,-2.7585,-2.7585,-2.6671,-2.5615,-2.5615,-2.5615,-2.5615,-2.5615,-2.5576,-2.5412,-2.4769,-2.4605,-2.441,-2.3744,-2.3595,-2.3595,-2.3595,-2.3595,-2.3595,-2.3595,-2.3595,-2.3595,-2.3595,-2.3595,-2.3595,-2.3595,-2.3595,-2.3595,-2.3595,-2.3595,-2.3595,-2.3616,-2.3616,-2.3595,-2.3616,-2.4116,-2.441,-2.441,-2.493,-2.5202,-2.5221,-2.5221,-2.5221,-2.5221,-2.5221,-2.5221,-2.5189,-2.446,-2.3956,-2.0044,-2.0335,-2.0487,-1.9473,-1.8674,-1.7416,-1.4708,-1.354,-1.2212,-0.9467,-0.8897,-0.8897,-0.8897,-0.8897,-1.0145,-1.3938,-1.4327,-1.5518,-1.949,-2.1143,-2.2209,-2.2919,-2.478,-2.6099,-2.6336,-2.6556,-2.6691,-2.6691,-2.7367,-2.8145,-2.8959,-2.9702,-3.0345,-3.0835,-3.0632,-3.0717,-3.119,-3.0734,-3.0734,-3.119,-3.0543,-3.0261,-3.0293,-2.987,-2.9585,-2.9406,-2.9406,-2.9157,-2.8779,-2.8779,-2.8439,-2.787,-2.787,-2.776,-2.76,-2.76,-2.76,-2.76,-2.76,-2.76,-2.76,-2.76,-2.76,-2.76,-2.76,-2.73,-2.6971,-2.6971,-2.6971,-2.6971,-2.6971,-2.6641,-2.6108,-2.545,-2.4933,-2.441,-2.3744,-2.3595,-2.3595,-2.3595,-2.3595,-2.3595,-2.3595,-2.3595,-2.3595,-2.3595,-2.3595,-2.3595,-2.3595,-2.3595,-2.3595,-2.3595,-2.3595,-2.3595,-2.3595,-2.3595,-2.3595,-2.3595,-2.3752,-2.3858,-2.3858,-2.4012,-2.4266,-2.4652,-2.4637,-2.4835,-2.5202,-2.4831,-2.4637,-2.4657,-2.4805,-2.481,-1.8157,-1.8737,-1.8949,-1.8036,-1.699,-1.5688,-1.3819,-1.2569,-1.1234,-0.9286,-0.8897,-0.8897,-0.8897,-0.8897,-0.9907,-1.299,-1.3591,-1.496,-1.865,-2.0487,-2.184,-2.2987,-2.5,-2.6285,-2.6285,-2.6539,-2.681,-2.7097,-2.7824,-2.8586,-2.9364,-3.0108,-3.0734,-3.119,-3.119,-3.119,-3.119,-3.0975,-3.0858,-3.0858,-3.0251,-2.9848,-2.9607,-2.9225,-2.8943,-2.8717,-2.8717,-2.8519,0.0,-2.8165,-2.7959,-2.76,-2.76,-2.76,-2.76,-2.76,-2.76,-2.76,-2.76,-2.76,-2.76,-2.76,-2.76,-2.76,-2.76,-2.76,-2.76,-2.76,-2.76,-2.76,-2.76,-2.7285,-2.6821,-2.6138,-2.5674,-2.5158,-2.4507,-2.4163,-2.3984,-2.3984,-2.3774,-2.3595,-2.3595,-2.3595,-2.3595,-2.3595,-2.3595,-2.3595,-2.3595,-2.3595,-2.3595,-2.3595,-2.3595,-2.3595,-2.3595,-2.3595,-2.3595,-2.3595,-2.3595,-2.3595,-2.3595,-2.3595,-2.3752,-2.4095,-2.4095,-2.4266,-2.4612,-2.4266,-2.4095,-2.4116,-2.445,-2.4697,0.0,-1.716,-1.744,-1.7321,-1.6126,-1.4648,-1.3404,-1.1937,0.0,-0.9156,-0.888,-0.8936,-0.9111,-0.9004,-0.9252,-1.0372,-1.1664,-1.3836,-1.7597,-1.9439,-2.1485,-2.4389,-2.5287,-2.5694,-2.5745,-2.6336,-2.7012,-2.7739,-2.8552,-2.9331,-3.0074,-3.0801,-3.119,-3.119,-3.1151,-3.1151,-3.1151,-3.0597,-3.0272,-3.023,-2.9629,-2.9042,-2.8487,-2.8479,-2.814,-2.76,-2.76,-2.76,-2.76,-2.76,-2.76,-2.76,-2.76,-2.76,-2.76,-2.76,-2.76,-2.76,-2.76,-2.76,-2.76,-2.76,-2.76,-2.76,-2.76,-2.76,-2.76,-2.76,-2.76,-2.76,-2.76,-2.76,-2.742,-2.6752,-2.6587,-2.6408,-2.5749,-2.5113,-2.4679,-2.4679,-2.4126,-2.367,-2.367,-2.3625,-2.3595,-2.3595,-2.3595,-2.3595,-2.3595,-2.3595,-2.3595,-2.3595,-2.3595,-2.3595,-2.3595,-2.3595,-2.3595,-2.3595,-2.3595,-2.3595,-2.3595,-2.3595,-2.3595,-2.3595,-2.3595,-2.3595,-2.3595,-2.3595,-2.3595,-2.3595,-2.3595,-2.3879,-1.1598,0.0,-1.3809,-1.279,-1.2108,-1.1491,0.0,-1.0232,-0.9809,-0.8929,-0.8742,-0.9317,-1.1166,-0.9998,-1.0326,-1.5177,-1.5325,-1.6323,-2.064,-2.2989,-2.4967,-2.681,-2.6691,-2.6657,-2.7232,-2.6928,-2.7012,-2.7739,-2.8552,-2.9331,-3.0074,-3.0801,-3.119,-3.119,-3.074,-3.0518,-3.0518,-3.0372,-3.0081,-2.9607,-2.9012,-2.8654,-2.8487,-2.8018,-2.7735,-2.76,-2.76,-2.76,-2.76,-2.76,-2.76,-2.76,-2.76,-2.76,-2.76,-2.76,-2.76,-2.76,-2.76,-2.76,-2.76,-2.76,-2.76,-2.76,-2.76,-2.76,-2.76,-2.76,-2.76,-2.76,-2.76,-2.76,-2.742,-2.6752,-2.6587,-2.6408,-2.5749,-2.5495,-2.5352,-2.5352,-2.4814,-2.4365,-2.4365,-2.3954,-2.3595,-2.3595,-2.3595,-2.3595,-2.3595,-2.3595,-2.3595,-2.3595,-2.3595,-2.3595,-2.3595,-2.3595,-2.3595,-2.3595,-2.3595,-2.3595,-2.3595,-2.3595,-2.3595,-2.3595,-2.3595,-2.3595,-2.3595,-2.3595,-2.3595,-2.3595,-2.3595,-2.3659,-0.9157,-1.0964,-1.2581,-1.1864,-1.1259,-1.0788,-1.0487,-0.9693,-0.8937,-0.863,-0.8561,-0.9049,-1.0672,-1.0834,-1.18,-1.5064,-1.6738,-1.9068,-2.3226,-2.5744,-2.7317,-2.7756,-2.7774,-2.7757,-2.7807,-2.7435,-2.7655,-2.877,-2.9262,-2.982,-3.0565,-3.0717,-3.0797,-3.0797,-3.0208,-3.0021,-3.0293,-2.9761,-2.9316,-2.8989,-2.8367,-2.8091,-2.8067,-2.776,-2.76,-2.76,-2.76,-2.76,-2.76,-2.76,-2.76,-2.76,-2.76,-2.76,-2.76,-2.76,-2.76,-2.76,-2.76,-2.76,-2.76,-2.76,-2.76,-2.76,-2.76,-2.76,-2.76,-2.76,-2.76,-2.76,-2.76,-2.76,-2.751,-2.7151,-2.7061,-2.6971,-2.6587,-2.6273,-2.6063,-2.6063,-2.5525,-2.5053,-2.5053,-2.45,-2.4073,-2.4073,-2.3804,-2.3595,-2.3595,-2.3595,-2.3595,-2.3595,-2.3595,-2.3595,-2.3595,-2.3595,-2.3595,-2.3595,-2.3595,-2.3595,-2.3595,-2.3595,-2.3595,-2.3595,-2.3595,-2.3595,-2.3595,-2.3595,-2.3595,-2.3595,-2.3595,-2.3595,-0.8398,-1.0525,-1.2532,-1.2167,-1.1675,-1.1284,-1.126,-0.9703,-0.8331,-0.8609,-0.8573,-0.8913,-1.0272,-1.1854,-1.3221,-1.4037,-1.7614,-2.1493,-2.4991,-2.7264,-2.8361,-2.7857,-2.8328,-2.846,-2.7902,-2.7851,-2.8442,-2.9875,-3.0051,-3.0374,-3.1021,-3.0597,-3.0251,-3.0166,-2.9585,-2.9518,-3.0021,-2.8996,-2.8439,-2.8359,-2.7845,-2.76,-2.76,-2.76,-2.76,-2.76,-2.76,-2.76,-2.76,-2.76,-2.76,-2.76,-2.76,-2.76,-2.76,-2.76,-2.76,-2.76,-2.76,-2.76,-2.76,-2.76,-2.76,-2.76,-2.76,-2.76,-2.76,-2.76,-2.76,-2.76,-2.76,-2.76,-2.76,-2.76,-2.76,-2.76,-2.76,-2.7151,-2.6761,-2.6761,-2.6213,-2.5749,-2.5749,-2.5187,-2.4724,-2.4619,-2.4133,-2.3714,-2.361,-2.3595,-2.3595,-2.3595,-2.3595,-2.3595,-2.3595,-2.3595,-2.3595,-2.3595,-2.3595,-2.3595,-2.3595,-2.3595,-2.3595,-2.3595,-2.3595,-2.3595,-2.3595,-2.3595,-2.3595,-2.3595,-2.3595,-2.3595,-0.9932,-1.1544,-1.2275,-1.0162,-1.0681,-1.1428,-1.0381,-0.953,-0.9119,-0.9722,-0.939,-1.0335,-1.4765,-1.3749,-1.3858,-1.8738,-2.0655,-2.2311,-2.4593,-2.5804,-2.6795,-2.7687,-2.7444,-2.7448,-2.7998,-2.8048,-2.8411,-2.9277,-2.9808,-3.0202,-3.0423,-3.0351,-3.0081,-2.9563,-2.8966,-2.8677,-2.8779,-2.8583,-2.8222,-2.7735,-2.7635,-2.76,-2.76,-2.76,-2.76,-2.76,-2.76,-2.76,-2.76,-2.76,-2.76,-2.76,-2.76,-2.76,-2.76,-2.76,-2.76,-2.76,-2.76,-2.76,-2.76,-2.76,-2.76,-2.76,-2.76,-2.76,-2.76,-2.76,-2.76,-2.76,-2.76,-2.76,-2.76,-2.76,-2.76,-2.76,-2.76,-2.7525,-2.745,-2.745,-2.6911,-2.6437,-2.6437,-2.5899,-2.5247,-2.4694,-2.4515,-2.4231,-2.367,-2.3595,-2.3595,-2.3595,-2.3595,-2.3595,-2.3595,-2.3595,-2.3595,-2.3595,-2.3595,-2.3595,-2.3595,-2.3595,-2.3595,-2.3595,-2.3595,-2.3595,-2.3595,-2.3595,-2.3595,-2.3595,-2.3595,-2.3595,-0.8992,-1.0713,-1.2077,-1.1288,-1.2791,-1.4292,-1.371,-1.3136,-1.2705,-1.2659,-1.2391,-1.3016,-1.5714,-1.615,-1.7638,-2.2371,-2.3074,-2.3644,-2.5373,-2.6259,-2.6941,-2.7479,-2.7642,-2.7838,-2.8174,-2.8494,-2.8866,-2.9275,-2.9877,-3.0088,-2.9832,-2.9496,-2.9203,-2.8919,-2.8319,-2.8018,-2.8018,-2.8018,-2.787,-2.76,-2.76,-2.76,-2.76,-2.76,-2.76,-2.76,-2.76,-2.76,-2.76,-2.76,-2.76,-2.76,-2.76,-2.76,-2.76,-2.76,-2.76,-2.76,-2.76,-2.76,-2.76,-2.76,-2.76,-2.76,-2.76,-2.76,-2.76,-2.76,-2.76,-2.76,-2.76,-2.76,-2.76,-2.76,-2.76,-2.76,-2.76,-2.76,-2.76,-2.76,-2.7345,-2.7151,-2.7151,-2.6572,-2.6033,-2.5734,-2.5367,-2.4889,-2.4216,-2.4141,-2.4014,-2.364,-2.3595,-2.3595,-2.3595,-2.3595,-2.3595,-2.3595,-2.3595,-2.3595,-2.3595,-2.3595,-2.3595,-2.3595,-2.3595,-2.3595,-2.3595,-2.3595,-2.3595,-2.3595,-2.3595,-2.3595,-0.8694,-1.0393,-1.2235,-1.3059,-1.4649,-1.6189,-1.6786,-1.6099,-1.5365,-1.5456,-1.5351,-1.5545,-1.6518,-1.8662,-2.1159,-2.3929,-2.4165,-2.4421,-2.568,-2.6345,-2.6785,-2.7002,-2.7578,-2.7969,-2.8078,-2.8667,-2.9076,-2.9194,-2.9739,-2.9827,-2.9225,-2.8756,-2.8455,-2.8286,-2.7835,-2.76,-2.76,-2.76,-2.76,-2.76,-2.76,-2.76,-2.76,-2.76,-2.76,-2.76,-2.76,-2.76,-2.76,-2.76,-2.76,-2.76,-2.76,-2.76,-2.76,-2.76,-2.76,-2.76,-2.76,-2.76,-2.76,-2.76,-2.76,-2.76,-2.76,-2.76,-2.76,-2.76,-2.76,-2.76,-2.76,-2.76,-2.76,-2.76,-2.76,-2.76,-2.76,-2.76,-2.76,-2.76,-2.76,-2.76,-2.76,-2.718,-2.6791,-2.6617,-2.6153,-2.56,-2.4918,-2.4829,-2.4634,-2.4118,-2.3939,-2.3774,-2.361,-2.3595,-2.3595,-2.3595,-2.3595,-2.3595,-2.3595,-2.3595,-2.3595,-2.3595,-2.3595,-2.3595,-2.3595,-2.3595,-2.3595,-2.3595,-2.3595,-2.3595,-1.1037,-1.2115,-1.3044,-1.4332,-1.4333,-1.4649,-1.7071,-1.5725,-1.4619,-1.6996,-1.6995,-1.7145,-1.9079,-2.1094,-2.2365,-2.2009,-2.2911,-2.3834,-2.4451,-2.458,-2.5023,-2.6149,-2.6434,-2.6791,-2.7388,-2.8116,-2.8544,-2.8559,-2.9111,-2.9203,-2.8606,-2.8511,-2.8222,-2.7685,-2.7625,-2.76,-2.76,-2.76,-2.76,-2.76,-2.76,-2.76,-2.76,-2.76,-2.76,-2.76,-2.76,-2.76,-2.76,-2.76,-2.76,-2.76,-2.76,-2.76,-2.76,-2.76,-2.76,-2.76,-2.76,-2.76,-2.76,-2.76,-2.76,-2.76,-2.76,-2.76,-2.76,-2.76,-2.76,-2.76,-2.76,-2.76,-2.76,-2.76,-2.76,-2.76,-2.76,-2.76,-2.76,-2.76,-2.76,-2.76,-2.76,-2.7555,-2.7315,-2.6701,-2.6557,-2.6288,-2.5615,-2.554,-2.5501,-2.5465,-2.4889,-2.4276,-2.3655,-2.3595,-2.3595,-2.3595,-2.3595,-2.3595,-2.3595,-2.3595,-2.3595,-2.3595,-2.3595,-2.3595,-2.3595,-2.3595,-2.3595,-2.3595,-2.3595,-2.3595,-0.9797,-1.1377,-1.313,-1.4466,-1.5202,-1.6189,-1.8433,-1.9154,-1.9705,-2.1096,-2.0872,-2.0543,-2.0872,-2.2203,-2.3041,-2.2418,-2.3026,-2.3831,-2.4448,-2.4516,-2.5013,-2.6298,-2.6481,-2.6788,-2.7455,-2.8132,-2.8343,-2.7968,-2.8511,-2.8567,-2.7968,-2.7959,-2.7835,-2.7625,-2.76,-2.76,-2.76,-2.76,-2.76,-2.76,-2.76,-2.76,-2.76,-2.76,-2.76,-2.76,-2.76,-2.76,-2.76,-2.76,-2.76,-2.76,-2.76,-2.76,-2.76,-2.76,-2.76,-2.76,-2.76,-2.76,-2.76,-2.76,-2.76,-2.76,-2.76,-2.76,-2.76,-2.76,-2.76,-2.76,-2.76,-2.7255,-2.7034,-2.7484,-2.7255,-2.7034,-2.7484,-2.76,-2.76,-2.76,-2.76,-2.76,-2.76,-2.76,-2.751,-2.727,-2.7225,-2.6822,-2.5697,-2.5535,-2.5374,-2.4956,-2.5103,-2.4948,-2.4276,-2.459,-2.4492,-2.3655,-2.3595,-2.3595,-2.3595,-2.3595,-2.3595,-2.3595,-2.3595,-2.3595,-2.3595,-2.3595,-2.3595,-2.3595,-2.3595,-2.3595,-1.0187,-1.1901,-1.4002,-1.5126,-1.6383,-1.7787,-1.9615,-2.0921,-2.2104,-2.334,-2.2936,-2.2313,-2.2074,-2.2547,-2.2921,-2.2733,-2.3212,-2.3834,-2.4515,-2.4605,-2.5098,-2.6437,-2.6587,-2.6866,-2.7525,-2.7968,-2.8042,-2.7625,-2.7968,-2.8042,-2.7625,-2.76,-2.76,-2.76,-2.76,-2.76,-2.76,-2.76,-2.76,-2.76,-2.76,-2.76,-2.76,-2.76,-2.76,-2.76,-2.76,-2.76,-2.76,-2.76,-2.76,-2.76,-2.76,-2.76,-2.76,-2.76,-2.76,-2.76,-2.76,-2.76,-2.76,-2.76,-2.7433,-2.7306,-2.7524,-2.7433,-2.7306,-2.7534,-2.7433,-2.7255,-2.7255,-2.6878,-2.6642,-2.7111,-2.668,-2.6283,-2.6785,-2.6916,-2.6916,-2.6916,-2.6916,-2.6916,-2.6916,-2.6916,-2.6916,-2.6916,-2.6916,-2.6573,-2.559,-2.5481,-2.5213,-2.4549,-2.4933,-2.4956,-2.4291,-2.487,-2.4766,-2.3636,-2.3777,-2.3819,-2.361,-2.3595,-2.3595,-2.3595,-2.3595,-2.3595,-2.3595,-2.3595,-2.3595,-2.3595,-2.3595,-2.3595,-1.2954,-1.4255,-1.5934,-1.6547,-1.7712,-1.9091,-2.0419,-2.0213,-2.0471,-2.3071,-2.2607,-2.1939,-2.2583,-2.2164,-2.1919,-2.2583,-2.3212,-2.3849,-2.4515,-2.4619,-2.5113,-2.6437,-2.6602,-2.6881,-2.754,-2.76,-2.76,-2.76,-2.76,-2.76,-2.76,-2.76,-2.76,-2.76,-2.76,-2.76,-2.76,-2.76,-2.76,-2.76,-2.76,-2.76,-2.76,-2.76,-2.76,-2.76,-2.76,-2.76,-2.76,-2.76,-2.76,-2.76,-2.76,-2.76,-2.76,-2.76,-2.76,-2.76,-2.76,-2.76,-2.76,-2.7575,-2.7086,-2.6642,-2.7357,-2.706,-2.6642,-2.7382,-2.7034,-2.6484,-2.6484,-2.6484,-2.6484,-2.6484,-2.5933,-2.5398,-2.5398,-2.5398,-2.5398,-2.5398,-2.5398,-2.5398,-2.5398,-2.5398,-2.5398,-2.5398,-2.5398,-2.5398,-2.5398,-2.5398,-2.5136,-2.4474,-2.4405,-2.4131,-2.3487,-2.4069,-2.4224,-2.3531,-2.4187,-2.4306,-2.3625,-2.3595,-2.3595,-2.3595,-2.3595,-2.3595,-2.3595,-2.3595,-2.3595,-2.3595,-2.3595,-2.3595,-1.1067,-1.3235,-1.5844,-1.6024,-1.8809,-2.1625,-2.2029,-2.2278,-2.2802,-2.4036,-2.3992,-2.3535,-2.2838,-2.2877,-2.2951,-2.2748,-2.361,-2.453,-2.5202,-2.5719,-2.6318,-2.721,-2.73,-2.739,-2.757,-2.76,-2.76,-2.76,-2.76,-2.76,-2.76,-2.76,-2.76,-2.76,-2.76,-2.76,-2.76,-2.76,-2.76,-2.76,-2.76,-2.76,-2.76,-2.76,-2.76,-2.76,-2.76,-2.76,-2.76,-2.76,-2.76,-2.76,-2.76,-2.76,-2.76,-2.76,-2.76,-2.7524,-2.7008,-2.6826,-2.6747,-2.6215,-2.5892,-2.5755,-2.6,-2.5892,-2.5783,-2.6,-2.5892,-2.5728,-2.5728,-2.5342,-2.5063,-2.5591,-2.5147,-2.4766,-2.5287,-2.5398,-2.5398,-2.5398,-2.5398,-2.5398,-2.5398,-2.5398,-2.5398,-2.5398,-2.5398,-2.5203,-2.4681,-2.4624,-2.4557,-2.4341,-2.4791,-2.4832,-2.4158,-2.4731,-2.4642,-2.3506,-2.4122,-2.4256,-2.3618,-2.3187,-2.3179,-2.3595,-2.3187,-2.3179,-2.3595,-2.3595,-2.3595,-2.3595,-2.3595,-2.3595,-1.378,-1.5919,-1.827,-1.8779,-2.0606,-2.2523,-2.3266,-2.3535,-2.3714,-2.4111,-2.4007,-2.3684,-2.3146,-2.3167,-2.3302,-2.343,-2.4096,-2.4933,-2.5869,-2.6348,-2.6866,-2.7525,-2.76,-2.76,-2.76,-2.76,-2.76,-2.76,-2.76,-2.76,-2.76,-2.76,-2.76,-2.76,-2.76,-2.76,-2.76,-2.76,-2.76,-2.76,-2.76,-2.76,-2.76,-2.76,-2.76,-2.76,-2.76,-2.76,-2.76,-2.76,-2.76,-2.76,-2.76,-2.76,-2.76,-2.76,-2.7408,-2.71,-2.6642,-2.631,-2.5987,-2.5536,-2.5203,-2.5007,-2.5315,-2.5203,-2.5007,-2.5315,-2.5175,-2.4951,-2.4951,-2.4394,-2.4031,-2.4781,-2.4394,-2.3943,-2.4381,-2.4496,-2.4496,-2.4496,-2.4496,-2.4496,-2.4496,-2.4496,-2.4496,-2.4496,-2.4496,-2.4323,-2.3884,-2.3826,-2.3826,-2.3826,-2.4221,-2.4321,-2.392,-2.4537,-2.4502,-2.342,-2.4062,-2.4184,-2.3551,-2.2976,-2.2748,-2.2831,-2.2483,-2.2597,-2.3246,-2.2995,-2.298,-2.3246,-2.2958,-2.2854,-1.8597,-2.0258,-2.1799,-2.3026,-2.2592,-2.2338,-2.4111,-2.4044,-2.3625,-2.3684,-2.3212,-2.2972,-2.358,-2.3236,-2.3266,-2.4485,-2.4739,-2.5202,-2.6422,-2.6632,-2.6926,-2.7525,-2.76,-2.76,-2.76,-2.76,-2.76,-2.76,-2.76,-2.76,-2.76,-2.76,-2.76,-2.76,-2.76,-2.76,-2.76,-2.76,-2.76,-2.76,-2.76,-2.76,-2.76,-2.76,-2.76,-2.76,-2.76,-2.76,-2.76,-2.76,-2.76,-2.76,-2.76,-2.756,-2.7484,-2.7484,-2.7034,-2.6404,-2.631,-2.5864,-2.5287,-2.5203,-2.4724,-2.4321,-2.4979,-2.4724,-2.4337,-2.5007,-2.4696,-2.4205,-2.4205,-2.3662,-2.3275,-2.4031,-2.3619,-2.3108,-2.3108,-2.3108,-2.3108,-2.3108,-2.3108,-2.3108,-2.3108,-2.3108,-2.3108,-2.3108,-2.3108,-2.3108,-2.3108,-2.3108,-2.3108,-2.3108,-2.3108,-2.3108,-2.3108,-2.3767,-2.394,-2.3304,-2.3919,-2.3998,-2.332,-2.2849,-2.2338,-2.1779,-2.1653,-2.1922,-2.2603,-2.1993,-2.1993,-2.2603,-2.1969,-2.1697,-1.4451,-1.7147,-2.0322,-2.1126,-2.2278,-2.3295,-2.3729,-2.3699,-2.3744,-2.4276,-2.3864,-2.361,-2.4261,-2.4276,-2.444,-2.5247,-2.5839,-2.6273,-2.6557,-2.7061,-2.7435,-2.7585,-2.76,-2.76,-2.76,-2.76,-2.76,-2.76,-2.76,-2.76,-2.76,-2.76,-2.76,-2.76,-2.76,-2.76,-2.76,-2.76,-2.76,-2.76,-2.76,-2.76,-2.76,-2.76,-2.76,-2.76,-2.76,-2.76,-2.76,-2.76,-2.76,-2.76,-2.76,-2.7255,-2.6747,-2.6747,-2.6283,-2.5536,-2.4951,-2.4681,-2.4423,-2.3783,-2.3501,-2.3395,-2.356,-2.3471,-2.3395,-2.356,-2.3471,-2.3365,-2.3365,-2.3215,-2.3125,-2.3305,-2.3215,-2.3108,-2.3108,-2.3108,-2.3108,-2.3108,-2.3108,-2.3108,-2.3108,-2.3108,-2.3108,-2.3108,-2.3108,-2.3108,-2.3108,-2.3108,-2.3108,-2.3108,-2.3108,-2.3108,-2.3108,-2.3245,-2.3314,-2.3158,-2.3391,-2.3245,-2.2565,-2.2089,-2.2011,-2.2393,-2.1477,-2.1307,-2.1899,-2.1781,-2.1767,-2.1899,-2.1781,-2.1697,-1.5694,-1.8105,-2.0483,-2.1769,-2.2847,-2.3595,-2.3595,-2.3595,-2.3699,-2.4059,-2.4096,-2.4186,-2.4545,-2.4859,-2.5292,-2.5974,-2.6363,-2.6692,-2.7046,-2.7375,-2.76,-2.76,-2.76,-2.76,-2.76,-2.76,-2.76,-2.76,-2.76,-2.76,-2.76,-2.76,-2.76,-2.76,-2.76,-2.76,-2.76,-2.76,-2.76,-2.76,-2.76,-2.76,-2.76,-2.76,-2.76,-2.76,-2.76,-2.76,-2.76,-2.76,-2.7382,-2.706,-2.706,-2.6628,-2.5987,-2.5987,-2.5508,-2.4823,-2.4423,-2.406,-2.3662,-2.3258,-2.3108,-2.3108,-2.3108,-2.3108,-2.3108,-2.3108,-2.3108,-2.3108,-2.3108,-2.3108,-2.3108,-2.3108,-2.3108,-2.3108,-2.3108,-2.3108,-2.3108,-2.3108,-2.3108,-2.3108,-2.3108,-2.3108,-2.3108,-2.3108,-2.3108,-2.3108,-2.3108,-2.3108,-2.3108,-2.3108,-2.3108,-2.3108,-2.3108,-2.3108,-2.3108,-2.3108,-2.3161,-2.3054,-2.2698,-2.2194,-2.1874,-2.1692,-2.1316,-2.1171,-2.1269,-2.1246,-2.1232,-2.1245,-2.0928,-2.0805,-1.7297,-1.9405,-2.1017,-2.3086,-2.3595,-2.3595,-2.3595,-2.3595,-2.3625,-2.3744,-2.4201,-2.4649,-2.4754,-2.5307,-2.5989,-2.6647,-2.6752,-2.6971,-2.7525,-2.76,-2.76,-2.76,-2.76,-2.76,-2.76,-2.76,-2.76,-2.76,-2.76,-2.76,-2.76,-2.76,-2.76,-2.76,-2.76,-2.76,-2.76,-2.76,-2.76,-2.76,-2.76,-2.76,-2.76,-2.76,-2.76,-2.76,-2.7473,-2.7408,-2.7408,-2.7265,-2.6864,-2.631,-2.631,-2.5864,-2.5203,-2.5203,-2.4738,-2.4089,-2.4089,-2.3662,-2.3108,-2.3108,-2.3108,-2.3108,-2.3108,-2.3108,-2.3108,-2.3108,-2.3108,-2.3108,-2.3108,-2.3108,-2.3108,-2.3108,-2.3108,-2.3108,-2.3108,-2.3108,-2.3108,-2.3108,-2.3108,-2.3108,-2.3108,-2.3108,-2.3108,-2.3108,-2.3108,-2.3108,-2.3108,-2.3108,-2.3108,-2.3108,-2.3108,-2.3108,-2.3108,-2.3108,-2.3108,-2.3108,-2.3108,-2.3108,-2.3108,-2.2669,-2.1983,-2.0993,-2.1333,-2.1328,-2.0923,-2.0755,-2.0781,-2.0897,-2.0144,-1.9861,-1.2688,-1.6263,-2.0441,-2.2966,-2.3595,-2.3595,-2.3595,-2.3595,-2.3759,-2.435,-2.4545,-2.4784,-2.5352,-2.6019,-2.6701,-2.736,-2.7465,-2.7495,-2.7585,-2.76,-2.76,-2.76,-2.76,-2.76,-2.76,-2.76,-2.76,-2.76,-2.76,-2.76,-2.76,-2.76,-2.76,-2.76,-2.76,-2.76,-2.76,-2.76,-2.76,-2.76,-2.76,-2.76,-2.76,-2.76,-2.76,-2.756,-2.693,-2.6642,-2.659,-2.5946,-2.5646,-2.5536,-2.5536,-2.5091,-2.4452,-2.4452,-2.3943,-2.3245,-2.3245,-2.3198,-2.3108,-2.3108,-2.3108,-2.3108,-2.3108,-2.3108,-2.3108,-2.3108,-2.3108,-2.3108,-2.3108,-2.3108,-2.3108,-2.3108,-2.3108,-2.3108,-2.3108,-2.3108,-2.3108,-2.3108,-2.3108,-2.3108,-2.3108,-2.3108,-2.3108,-2.3108,-2.3108,-2.3108,-2.3108,-2.3108,-2.3108,-2.3108,-2.3108,-2.3108,-2.3108,-2.3108,-2.3108,-2.3108,-2.3108,-2.3108,-2.3108,-2.3032,-2.2706,-2.2108,-2.1694,-2.1473,-2.1392,-2.0947,-2.0947,-2.138,-2.0303,-2.0075,-1.3752,-1.7071,-2.0337,-2.2951,-2.3595,-2.3595,-2.3595,-2.3595,-2.3789,-2.447,-2.4903,-2.5375,-2.6033,-2.6692,-2.727,-2.754,-2.76,-2.76,-2.76,-2.76,-2.76,-2.76,-2.76,-2.76,-2.76,-2.76,-2.76,-2.76,-2.76,-2.76,-2.76,-2.76,-2.76,-2.76,-2.76,-2.76,-2.76,-2.76,-2.76,-2.76,-2.76,-2.76,-2.76,-2.7178,-2.6982,-2.6956,-2.6642,-2.6256,-2.5864,-2.5536,-2.5147,-2.4794,-2.4794,-2.4308,-2.3632,-2.3632,-2.3395,-2.3108,-2.3108,-2.3108,-2.3108,-2.3108,-2.3108,-2.3108,-2.3108,-2.3108,-2.3108,-2.3108,-2.3108,-2.3108,-2.3108,-2.3108,-2.3108,-2.3108,-2.3108,-2.3108,-2.3108,-2.3108,-2.3108,-2.3108,-2.3108,-2.3108,-2.3108,-2.3108,-2.3108,-2.3108,-2.3108,-2.3108,-2.3108,-2.3108,-2.3108,-2.3108,-2.3108,-2.3108,-2.3108,-2.3108,-2.3108,-2.3108,-2.3108,-2.3108,-2.3108,-2.3108,-2.2995,-2.2744,-2.2506,-2.2108,-2.1493,-2.1556,-2.1556,-2.1481,-2.0978,-2.0878,-1.4008,-1.6667,-1.8897,-2.1859,-2.2862,-2.3191,-2.3535,-2.3595,-2.3849,-2.4679,-2.5247,-2.5869,-2.6692,-2.727,-2.76,-2.76,-2.76,-2.76,-2.76,-2.76,-2.76,-2.76,-2.76,-2.76,-2.76,-2.76,-2.76,-2.76,-2.76,-2.76,-2.76,-2.76,-2.76,-2.76,-2.76,-2.76,-2.76,-2.76,-2.76,-2.76,-2.76,-2.7484,-2.7306,-2.6747,-2.6283,-2.5933,-2.5933,-2.5618,-2.5091,-2.4894,-2.4496,-2.4002,-2.4002,-2.3632,-2.3108,-2.3108,-2.3108,-2.3108,-2.3108,-2.3108,-2.3108,-2.3108,-2.3108,-2.3108,-2.3108,-2.3108,-2.3108,-2.3108,-2.3108,-2.3108,-2.3108,-2.3108,-2.3108,-2.3108,-2.3108,-2.3108,-2.3108,-2.3108,-2.3108,-2.3108,-2.3108,-2.3108,-2.3108,-2.3108,-2.3108,-2.3108,-2.3108,-2.3108,-2.3108,-2.3108,-2.3108,-2.3108,-2.3108,-2.3108,-2.3108,-2.3108,-2.3108,-2.3108,-2.3108,-2.3108,-2.3108,-2.3108,-2.3108,-2.3108,-2.3108,-2.2706,-2.1907,-2.2184,-2.2171,-2.1895,-2.1619,-2.1556,-1.0538,-1.2586,-1.5052,-1.8929,-2.0861,-2.2113,-2.3325,-2.3595,-2.3969,-2.5285,-2.5585,-2.6004,-2.7315,-2.757,-2.76,-2.76,-2.76,-2.76,-2.76,-2.76,-2.76,-2.76,-2.76,-2.76,-2.76,-2.76,-2.76,-2.76,-2.76,-2.76,-2.76,-2.76,-2.76,-2.76,-2.76,-2.76,-2.76,-2.76,-2.76,-2.76,-2.76,-2.7229,-2.6563,-2.651,-2.5728,-2.4408,-2.4408,-2.4408,-2.4292,-2.3531,-2.3198,-2.3155,-2.3155,-2.3138,-2.3108,-2.3108,-2.3108,-2.3108,-2.3108,-2.3108,-2.3108,-2.3108,-2.3108,-2.3108,-2.3108,-2.3108,-2.3108,-2.3108,-2.3108,-2.3108,-2.3108,-2.3108,-2.3108,-2.3108,-2.3108,-2.3108,-2.3108,-2.3108,-2.3108,-2.3108,-2.3108,-2.3108,-2.3108,-2.3108,-2.3108,-2.3108,-2.3108,-2.3108,-2.3108,-2.3108,-2.3108,-2.3108,-2.3108,-2.3108,-2.3108,-2.3108,-2.3108,-2.3108,-2.3108,-2.3108,-2.3108,-2.3108,-2.3108,-2.3108,-2.3108,-2.3083,-2.302,-2.2518,-2.2543,-2.2995,-2.197,-2.1769,-1.0155,-1.1645,-1.3271,-1.6398,-1.8824,-2.0546,-2.0996,-2.2398,-2.3984,-2.5307,-2.5615,-2.6019,-2.7345,-2.76,-2.76,-2.76,-2.76,-2.76,-2.76,-2.76,-2.76,-2.76,-2.76,-2.76,-2.76,-2.76,-2.76,-2.76,-2.76,-2.76,-2.76,-2.76,-2.76,-2.76,-2.76,-2.76,-2.76,-2.76,-2.76,-2.76,-2.7111,-2.6747,-2.6484,-2.5508,-2.4794,-2.4263,-2.3738,-2.3543,-2.3514,-2.3215,-2.3108,-2.3108,-2.3108,-2.3108,-2.3108,-2.3108,-2.3108,-2.3108,-2.3108,-2.3108,-2.3108,-2.3108,-2.3108,-2.3108,-2.3108,-2.3108,-2.3108,-2.3108,-2.3108,-2.3108,-2.3108,-2.3108,-2.3108,-2.3108,-2.3108,-2.3108,-2.3108,-2.3108,-2.3108,-2.3108,-2.3108,-2.3108,-2.3108,-2.3108,-2.3108,-2.3108,-2.3108,-2.3108,-2.3108,-2.3108,-2.3108,-2.3108,-2.3108,-2.3108,-2.3108,-2.3108,-2.3108,-2.3108,-2.3108,-2.3108,-2.3108,-2.3108,-2.3108,-2.3108,-2.3108,-2.3108,-2.3108,-2.2907,-2.2907,-2.3095,-2.2706,-2.2619,-0.8437,-0.9788,-1.1516,-1.4406,-1.6263,-1.7971,-2.0202,-2.1535,-2.2862,-2.4844,-2.545,-2.5944,-2.7061,-2.745,-2.76,-2.76,-2.76,-2.76,-2.76,-2.76,-2.76,-2.76,-2.76,-2.76,-2.76,-2.76,-2.76,-2.76,-2.76,-2.76,-2.76,-2.76,-2.76,-2.76,-2.76,-2.76,-2.76,-2.7357,-2.7229,-2.7229,-2.6469,-2.6014,-2.5728,-2.4766,-2.4147,-2.3855,-2.3335,-2.3108,-2.3108,-2.3108,-2.3108,-2.3108,-2.3108,-2.3108,-2.3108,-2.3108,-2.3233,-2.3396,-2.3396,-2.3396,-2.3421,-2.3609,-2.3409,-2.3145,-2.3333,-2.3258,-2.3108,-2.3108,-2.3108,-2.3145,-2.3346,-2.3396,-2.3346,-2.3145,-2.3108,-2.3108,-2.3108,-2.3108,-2.3108,-2.3108,-2.3108,-2.3108,-2.3108,-2.3108,-2.3108,-2.3108,-2.3108,-2.3108,-2.3108,-2.3108,-2.3108,-2.3108,-2.3108,-2.3108,-2.3108,-2.3108,-2.3108,-2.3108,-2.3108,-2.3108,-2.3108,-2.3108,-2.3108,-2.3108,-2.3108,-2.3108,-2.3108,-2.3108,-2.3108,-2.3108,-2.3108,-2.3108,0.0,0.0,0.0,-1.2807,-1.3166,-1.4421,-2.0876,-2.0921,-2.0513,-2.3812,-2.5008,-2.5719,-2.6452,-2.7151,-2.76,-2.76,-2.76,-2.76,-2.76,-2.76,-2.76,-2.76,-2.76,-2.76,-2.76,-2.76,-2.76,-2.76,-2.76,-2.76,-2.76,-2.76,-2.76,-2.76,-2.7575,-2.7575,-2.7575,-2.6826,-2.6484,-2.6457,-2.5728,-2.4979,-2.4292,-2.4292,-2.3826,-2.3108,-2.3108,-2.3108,-2.3108,-2.3108,-2.3108,-2.3133,-2.3133,-2.3145,-2.3158,-2.3158,-2.3509,-2.4017,-2.4017,-2.4017,-2.4117,-2.4612,-2.4048,-2.3258,-2.3853,-2.3597,-2.3158,-2.3158,-2.3158,-2.3283,-2.3879,-2.4017,-2.3879,-2.3271,-2.3133,-2.312,-2.3108,-2.3108,-2.3108,-2.3108,-2.3108,-2.3108,-2.3108,-2.3108,-2.3108,-2.3108,-2.3108,-2.3108,-2.3108,-2.3108,-2.3108,-2.3108,-2.3108,-2.3108,-2.3108,-2.3108,-2.3108,-2.3108,-2.3108,-2.3108,-2.3108,-2.3108,-2.3108,-2.3108,-2.3108,-2.3108,-2.3108,-2.3108,-2.3108,-2.3108,-2.3108,-2.3108,-0.6428,0.0,0.0,0.0,0.0,0.0,-1.3663,-1.5545,-1.7806,-2.1092,-2.2323,-2.3565,-2.6123,-2.7151,-2.76,-2.76,-2.76,-2.76,-2.76,-2.76,-2.76,-2.76,-2.76,-2.76,-2.76,-2.76,-2.76,-2.76,-2.76,-2.76,-2.76,-2.76,-2.76,-2.76,-2.7086,-2.68,-2.68,-2.6054,-2.5701,-2.5701,-2.4951,-2.4509,-2.4292,-2.3708,-2.3305,-2.3108,-2.3108,-2.3108,-2.3108,-2.3108,-2.3358,-2.3753,-2.3753,-2.4004,-2.4324,-2.4324,-2.4424,-2.4594,-2.4594,-2.4594,-2.4587,-2.4738,-2.4575,-2.4349,-2.4512,-2.4449,-2.4324,-2.4324,-2.4324,-2.4362,-2.4525,-2.4594,-2.4456,-2.3891,-2.3753,-2.364,-2.3195,-2.3108,-2.3108,-2.3108,-2.3108,-2.3108,-2.3108,-2.3108,-2.3108,-2.3108,-2.3108,-2.3108,-2.3108,-2.3108,-2.3108,-2.3108,-2.3108,-2.3108,-2.3108,-2.3108,-2.3108,-2.3108,-2.3108,-2.3108,-2.3108,-2.3108,-2.3108,-2.3108,-2.3108,-2.3108,-2.3108,-2.3108,-2.3108,-2.3108,-2.3108,-2.3108,-0.66,-0.6657,-0.7081,-0.7805,0.0,0.0,-1.3176,-1.4657,-1.6562,-2.1002,-2.2667,-2.3909,-2.5824,-2.6971,-2.7484,-2.7203,-2.7408,-2.76,-2.76,-2.76,-2.76,-2.76,-2.76,-2.76,-2.76,-2.76,-2.76,-2.76,-2.76,-2.7473,-2.7178,-2.7137,-2.7008,-2.6692,-2.6549,-2.6336,-2.6041,-2.5315,-2.4922,-2.4922,-2.4176,-2.3796,-2.3767,-2.3305,-2.3108,-2.3108,-2.3108,-2.3246,-2.3471,-2.3471,-2.369,-2.4017,-2.4255,-2.4512,-2.4788,-2.4788,-2.4926,-2.5146,-2.5146,-2.5146,-2.5184,-2.5423,-2.5197,-2.4825,-2.5084,-2.4996,-2.4788,-2.4788,-2.4938,-2.5096,-2.485,-2.4983,-2.5008,-2.4469,-2.4343,-2.4255,-2.3885,-2.381,-2.3672,-2.3195,-2.3108,-2.3108,-2.3108,-2.3108,-2.3108,-2.3108,-2.3108,-2.3108,-2.3108,-2.3108,-2.3108,-2.3108,-2.3108,-2.3108,-2.3108,-2.3108,-2.3108,-2.3108,-2.3108,-2.3108,-2.3108,-2.3108,-2.3108,-2.3108,-2.2763,-2.261,-2.2598,-2.2944,-2.3108,-2.3108,-2.3108,-2.3108,-0.6614,-0.6618,-0.7407,-0.8877,-0.7668,0.0,-1.5301,-1.5404,-1.5522,-2.1004,-2.3187,-2.4201,-2.45,-2.5583,-2.6224,-2.5561,-2.6256,-2.7041,-2.7414,-2.7549,-2.76,-2.76,-2.7524,-2.7524,-2.76,-2.7524,-2.7524,-2.76,-2.7509,-2.7203,-2.6537,-2.6431,-2.6095,-2.5425,-2.596,-2.5933,-2.5287,-2.4538,-2.4176,-2.4147,-2.3454,-2.3108,-2.3108,-2.3108,-2.3145,-2.3195,-2.3195,-2.3521,-2.4092,-2.4155,-2.418,-2.423,-2.4687,-2.4913,-2.5008,-2.5008,-2.5297,-2.5686,-2.5686,-2.5686,-2.5774,-2.6336,-2.5799,-2.5096,-2.5548,-2.5294,-2.48,-2.469,-2.4979,-2.5261,-2.4769,-2.5025,-2.5236,-2.4682,-2.457,-2.4546,-2.4484,-2.4471,-2.4186,-2.3164,-2.3131,-2.3296,-2.3296,-2.3296,-2.3271,-2.3208,-2.3195,-2.3183,-2.3108,-2.3108,-2.3108,-2.3108,-2.3108,-2.3108,-2.3108,-2.3108,-2.3108,-2.3108,-2.3108,-2.3108,-2.3108,-2.3108,-2.3108,-2.3108,-2.2322,-2.1846,-2.1753,-2.2659,-2.3108,-2.3108,-2.3108,-2.3108,-0.9275,-0.8399,-0.8026,-0.7662,-0.786,0.0,-0.7971,-0.902,-1.0576,-1.2572,-1.3962,-1.5458,-1.7556,-1.8615,-1.9089,-1.8958,-2.0918,-2.3435,-2.6292,-2.7229,-2.76,-2.76,-2.7086,-2.6956,-2.7534,-2.706,-2.6956,-2.7575,-2.7034,-2.6642,-2.651,-2.5933,-2.5536,-2.5398,-2.4951,-2.4652,-2.4509,-2.3738,-2.3335,-2.3335,-2.3198,-2.3108,-2.3108,-2.3108,-2.3358,-2.3828,-2.3828,-2.4155,-2.4695,-2.5109,-2.5285,-2.5297,-2.5398,-2.5724,-2.6172,-2.6172,-2.6235,-2.6323,-2.6323,-2.6323,-2.6348,-2.6461,-2.6348,-2.6197,-2.6298,-2.5687,-2.4777,-2.3964,-2.3843,-2.39,-2.3761,-2.3843,-2.375,-2.3258,-2.3097,-2.2994,-2.256,-2.2468,-2.2411,-2.2172,-2.34,-2.4462,-2.4462,-2.4462,-2.4311,-2.3904,-2.3828,-2.3665,-2.3158,-2.3108,-2.3108,-2.3108,-2.3108,-2.3108,-2.3108,-2.3108,-2.3108,-2.3108,-2.3108,-2.3108,-2.3108,-2.3108,-2.3108,-2.3108,-2.2322,-2.1553,-2.0846,-2.2372,-2.3108,-2.3108,-2.3108,-2.3108,-0.9576,-0.8582,-0.8244,-0.8247,-0.8028,0.0,0.0,-0.8993,-0.9748,-1.2225,-1.3071,-1.3833,-1.5413,-1.6256,-1.6579,-1.6214,-1.8987,-2.1217,-2.126,-2.4283,-2.6654,-2.7008,-2.6721,-2.68,-2.7524,-2.693,-2.651,-2.6508,-2.5837,-2.5398,-2.5398,-2.5035,-2.4681,-2.4266,-2.4279,-2.4118,-2.3721,-2.3305,-2.3108,-2.3108,-2.3108,-2.3258,-2.3534,-2.3534,-2.3866,-2.4406,-2.4406,-2.4707,-2.5222,-2.5485,-2.5774,-2.6059,-2.6059,-2.6235,-2.6499,-2.6499,-2.6499,-2.6499,-2.6499,-2.6164,-2.5734,-2.5734,-2.5394,-2.4981,-2.4981,-2.466,-2.4156,-2.3635,-2.3514,-2.3514,-2.3514,-2.3514,-2.3422,-2.3176,-2.312,-2.3017,-2.2771,-2.2715,-2.2715,-2.2715,-2.3491,-2.3973,-2.3451,-2.3746,-2.3957,-2.3689,-2.4062,-2.4274,-2.3985,-2.3948,-2.3667,-2.2965,-2.291,-2.2632,-2.192,-2.2249,-2.2506,-2.2506,-2.2884,-2.3108,-2.3108,-2.2689,-2.2082,-2.1215,-2.1227,-2.0814,-1.9944,-2.1227,-2.2082,-2.2506,-2.2914,-2.2884,-1.0068,-0.9135,-0.9075,-0.9283,-0.8565,-0.8411,0.0,0.0,0.0,-1.2722,-1.3137,-1.3114,-1.3538,-1.3983,-1.4112,-1.3613,-1.6633,-1.8078,-1.5358,-1.9736,-2.3596,-2.4554,-2.5514,-2.6146,-2.6352,-2.5727,-2.5341,-2.5412,-2.4133,-2.3608,-2.4253,-2.4147,-2.3767,-2.3138,-2.3738,-2.3767,-2.3108,-2.3108,-2.3158,-2.3271,-2.3271,-2.3572,-2.4155,-2.4155,-2.4456,-2.4938,-2.4938,-2.5272,-2.5762,-2.5762,-2.6072,-2.6499,-2.6499,-2.6499,-2.6499,-2.6499,-2.6499,-2.6452,-2.628,-2.5699,-2.4969,-2.4779,-2.4156,-2.3478,-2.3257,-2.322,-2.3184,-2.2999,-2.2936,-2.2936,-2.2936,-2.2936,-2.2936,-2.2936,-2.2936,-2.2936,-2.2936,-2.2936,-2.2936,-2.2936,-2.2936,-2.2794,-2.2297,-2.2857,-2.3301,-2.3195,-2.389,-2.4353,-2.4243,-2.423,-2.3818,-2.269,-2.2533,-2.2108,-2.0937,-2.1495,-2.189,-2.189,-2.2423,-2.2807,-2.2972,-2.2278,-2.108,-1.9332,-1.9977,-1.9911,-1.9044,-1.9911,-2.0878,-2.1908,-2.2372,-2.2353,-1.3333,-1.2276,-1.184,-0.9664,-1.0108,-1.0272,-0.7254,0.0,-0.8106,-0.7066,0.0,-0.7515,-0.758,0.0,0.0,-0.7512,-0.9609,-1.1213,-1.1291,-1.3663,-1.6082,-1.7942,-2.1941,-2.3852,-2.2098,-2.1407,-2.2297,-2.5177,-2.1957,-2.1169,-2.4149,-2.3619,-2.3185,-2.3108,-2.3198,-2.3198,-2.3108,-2.3108,-2.3358,-2.3904,-2.3904,-2.4192,-2.47,-2.47,-2.5008,-2.5511,-2.5511,-2.5871,-2.6399,-2.6399,-2.6436,-2.6499,-2.6499,-2.6499,-2.6499,-2.6499,-2.6499,-2.6383,-2.5476,-2.5087,-2.4862,-2.3963,-2.3588,-2.3331,-2.244,-2.2178,-2.2,-2.1155,-2.0934,-2.0934,-2.0934,-2.0934,-2.0934,-2.0934,-2.0934,-2.0934,-2.0934,-2.0934,-2.0934,-2.0934,-2.0934,-2.142,-2.304,-2.343,-2.3309,-2.2835,-2.2884,-2.2761,-2.2286,-2.2229,-2.2173,-2.2014,-2.2003,-2.1912,-2.1753,-2.1856,-2.189,-2.189,-2.1598,-2.1755,-2.2543,-2.2147,-2.108,-1.9332,-1.9398,-1.9011,-1.8144,-1.9011,-2.0301,-2.1877,-2.1195,-2.1239,-1.3285,-1.2962,-1.299,-1.0939,-1.1018,-1.0836,-0.7909,-0.7043,-0.6742,-0.6344,0.0,0.0,0.0,0.0,0.0,0.0,-0.7794,-0.895,-0.7593,-1.096,-1.4301,-1.6239,-1.7977,-1.9423,-2.0461,-2.0079,-2.0965,-2.3843,-2.0706,-2.0103,-2.3423,-2.3275,-2.3108,-2.3108,-2.3108,-2.3108,-2.3108,-2.3446,-2.3753,-2.4004,-2.4318,-2.4757,-2.5272,-2.5272,-2.5573,-2.6135,-2.6135,-2.6273,-2.6499,-2.6499,-2.6499,-2.6452,-2.5873,-2.599,-2.6418,-2.5838,-2.5629,-2.5476,-2.448,-2.3745,-2.311,-2.2113,-2.1821,-2.1745,-2.1336,-2.1193,-2.1116,-2.0712,-2.0605,-2.0605,-2.0605,-2.0605,-2.0605,-2.0605,-2.0605,-2.0605,-2.0605,-2.0605,-2.0605,-2.0605,-2.0605,-2.0867,-2.168,-2.2264,-2.2552,-2.2321,-2.2812,-2.3061,-2.286,-2.2827,-2.2512,-2.1703,-2.16,-2.1279,-2.0456,-2.0839,-2.1156,-2.1156,-2.1446,-2.153,-2.1393,-2.1251,-2.0436,-1.8901,-1.9153,-1.8869,-1.8008,-1.862,-1.9427,-2.0398,-2.0526,-2.0526,-1.4457,-1.4302,-1.4282,-1.165,-1.1162,-1.0734,-0.8363,-0.7244,-0.6688,-0.6611,-0.6348,0.0,0.0,0.0,0.0,0.0,0.0,-0.7285,-0.5275,-0.8298,-1.1324,-1.3006,-1.3668,0.0,0.0,-1.7352,-1.8017,-2.1694,-1.877,-1.8657,-2.2882,-2.3108,-2.3108,-2.3108,-2.3108,-2.3108,-2.3108,-2.3703,-2.4067,-2.423,-2.477,-2.531,-2.5871,-2.5871,-2.6097,-2.6499,-2.6499,-2.6499,-2.6499,-2.6499,-2.6349,-2.6025,-2.53,-2.53,-2.5569,-2.485,-2.46,-2.4456,-2.3441,-2.244,-2.1517,-2.0818,-2.0605,-2.0605,-2.0605,-2.0605,-2.0605,-2.0605,-2.0605,-2.0605,-2.0605,-2.0605,-2.0605,-2.0605,-2.0605,-2.0605,-2.0605,-2.0605,-2.0605,-2.0605,-2.0605,-2.0605,-2.0605,-2.1155,-2.1631,-2.1631,-2.2226,-2.2713,-2.2713,-2.2713,-2.2323,-2.129,-2.1185,-2.0775,-1.9732,-2.0236,-2.0539,-2.0416,-2.1243,-2.1249,-2.0293,-2.0461,-2.0032,-1.8818,-1.9131,-1.8984,-1.8359,-1.8662,-1.8899,-1.9119,-1.9648,-1.9694,-1.8498,-1.7411,-1.627,-1.1211,-1.0345,-1.0005,-0.7275,-0.7859,-0.8536,-0.6934,-0.7859,-0.8484,-0.6871,0.0,0.0,0.0,0.0,0.0,0.0,-0.4651,-0.4827,-0.5989,-0.8923,0.0,0.0,-1.1648,-1.2121,0.0,-1.556,-1.6203,-2.2757,-2.3108,-2.3108,-2.3108,-2.3108,-2.3108,-2.3108,-2.3703,-2.4268,-2.4775,-2.5322,-2.5908,-2.6461,-2.6461,-2.6474,-2.6499,-2.6499,-2.6499,-2.6499,-2.6499,-2.5921,-2.504,-2.5004,-2.4409,-2.3588,-2.3551,-2.3562,-2.3404,-2.2403,-2.1451,-2.0644,-2.0605,-2.0605,-2.0605,-2.0605,-2.0605,-2.0605,-2.0605,-2.0605,-2.0605,-2.0605,-2.0605,-2.0605,-2.0605,-2.0605,-2.0605,-2.0605,-2.0605,-2.0605,-2.0605,-2.0605,-2.0605,-2.0605,-2.0644,-2.0644,-2.0644,-2.0673,-2.0683,-2.0683,-2.0683,-2.0673,-2.0624,-2.0624,-2.0615,-2.0566,-2.0595,-2.0419,-1.9959,-2.0747,-2.0673,-1.937,-2.015,-2.0175,-1.9304,-1.9277,-1.9277,-1.9248,-1.9258,-1.9043,-1.8603,-1.8262,-1.8529,0.0,-2.0507,-1.9562,-1.4536,-1.3374,-1.2366,-0.8102,-0.816,-0.8624,-0.6946,-0.7934,-0.8586,-0.6908,0.0,0.0,0.0,0.0,0.0,0.0,0.0,-0.3847,0.0,0.0,0.0,0.0,0.0,0.0,0.0,-1.724,0.0,-2.2869,-2.3108,-2.3108,-2.3108,-2.3108,-2.3108,-2.3108,-2.4048,-2.4612,-2.48,-2.5737,-2.6298,-2.6499,-2.6499,-2.6499,-2.6499,-2.6499,-2.6499,-2.6499,-2.6499,-2.5908,-2.4933,-2.4264,-2.3404,-2.2515,-2.2515,-2.2515,-2.2366,-2.1413,-2.0857,-2.0605,-2.0605,-2.0605,-2.0605,-2.0605,-2.0605,-2.0605,-2.0605,-2.0605,-2.0605,-2.0605,-2.0605,-2.0605,-2.0605,-2.0605,-2.0605,-2.0605,-2.0605,-2.0605,-2.0605,-2.0605,-2.0605,-2.0605,-2.0605,-2.0605,-2.0605,-2.0605,-2.0605,-2.0605,-2.0605,-2.0605,-2.0605,-2.0605,-2.0605,-2.0605,-2.0605,-2.0537,-2.0352,-2.0639,-2.0607,-2.0175,-2.042,-2.0319,-1.9707,-1.999,-1.9891,-1.9287,-1.957,-1.9482,-1.9062,-1.8916,-1.872,-2.2738,-2.2549,0.0,-1.7042,-1.5687,-1.4249,-0.9629,-0.9604,-1.0081,-0.8402,-0.8612,-0.9189,-0.9491,0.0,0.0,0.0,0.0,0.0,0.0,-0.3766,0.0,0.0,0.0,0.0,0.0,0.0,0.0,0.0,0.0,0.0,0.0,-2.3108,-2.3108,-2.3108,-2.3108,-2.3108,-2.3108,-2.4023,-2.4619,-2.48,-2.5724,-2.6298,-2.6499,-2.6499,-2.6499,-2.6499,-2.6499,-2.6499,-2.6499,-2.6499,-2.5699,-2.4409,-2.3745,-2.2664,-2.1479,-2.1479,-2.1479,-2.1413,-2.0828,-2.0605,-2.0605,-2.0605,-2.0605,-2.0605,-2.0605,-2.0605,-2.0605,-2.0605,-2.0605,-2.0605,-2.0605,-2.0605,-2.0605,-2.0605,-2.0605,-2.0605,-2.0605,-2.0605,-2.0605,-2.0605,-2.0605,-2.0605,-2.0605,-2.0605,-2.0605,-2.0605,-2.0605,-2.0605,-2.0605,-2.0605,-2.0605,-2.0605,-2.0605,-2.0605,-2.0605,-2.0605,-2.0605,-2.0605,-2.0605,-2.0605,-2.0605,-2.0605,-2.0478,-2.0146,-2.0458,-2.0331,-1.9774,-2.001,-1.9922,-1.9512,-1.9512,-1.9131]},{"header":{"parameterUnit":"m.s-1","parameterCategory":1,"la1":30.6,"la2":29.2853,"lo1":-89.7004,"lo2":-87.6739,"dx":0.0162,"dy":0.0183,"nx":112,"ny":82,"refTime":"2022-12-05T18:00:00:Z","depth":0,"parameterNumber":3,"parameterNumberName":"V-component_of_WINDS"},"data":[0.0,0.0,0.0,0.0,0.0,0.0,0.0,0.0,0.0,0.0,0.0,0.0,0.0,0.0,0.0,0.0,0.0,0.0,0.0,0.0,0.0,0.0,0.0,0.0,0.0,0.0,0.0,0.0,0.0,0.0,0.0,0.0,0.0,0.0,0.0,0.0,0.0,0.0,0.0,0.0,0.0,0.0,0.0,0.0,0.0,0.0,0.0,0.0,0.0,0.0,0.0,0.0,0.0,0.0,0.0,0.0,0.0,0.0,0.0,0.0,0.0,0.0,0.0,0.0,0.0,0.0,0.0,0.0,0.0,0.0,0.0,0.0,0.0,0.0,0.0,0.0,0.0,0.0,0.0,0.0,0.0,0.0,0.0,0.0,0.0,0.0,0.0,0.0,0.0,0.0,0.3351,0.3042,0.3372,0.3604,0.3604,0.3604,0.3279,0.2546,0.0,0.0,0.0,0.0,0.0,0.0,0.0,0.0,0.0,0.0,0.0,0.0,0.0,0.0,0.0,0.0,0.0,0.0,0.0,0.0,0.0,0.0,0.0,0.0,0.0,0.0,0.0,0.0,0.0,0.0,0.0,0.0,0.0,0.0,0.0,0.0,0.0,0.0,0.0,0.0,0.0,0.0,0.0,0.0,0.0,0.0,0.0,0.0,0.0,0.0,0.0,0.0,0.0,0.0,0.0,0.0,0.0,0.0,0.0,0.0,0.0,0.0,0.0,0.0,0.0,0.0,0.0,0.0,0.0,0.0,0.0,0.0,0.0,0.0,0.0,0.0,0.0,0.0,0.0,0.0,0.0,0.0,0.0,0.0,0.0,0.0,0.0,0.0,0.0,0.0,0.0,0.0,0.0,0.0,0.0,0.0,0.0,0.0,0.0,0.0,0.0,0.0,0.0,0.0,0.3006,0.345,0.3563,0.3604,0.3604,0.3604,0.3279,0.2546,0.0,0.0,0.0,0.0,0.0,0.0,0.0,0.0,0.0,0.0,0.0,0.0,0.0,0.0,0.0,0.0,0.0,0.0,0.0,0.0,0.0,0.0,0.0,0.0,0.0,0.0,0.0,0.0,0.0,0.0,0.0,0.0,0.0,0.0,0.0,0.0,0.0,0.0,0.0,0.0,0.0,0.0,0.0,0.0,0.0,0.0,0.0,0.0,0.0,0.0,0.0,0.0,0.0,0.0,0.0,0.0,0.0,0.0,0.0,0.0,0.0,0.0,0.0,0.0,0.0,0.0,0.0,0.0,0.0,0.0,0.0,0.0,0.0,0.0,0.0,0.0,0.0,0.0,0.0,0.0,0.0,0.0,0.0,0.0,0.0,0.0,0.0,0.0,0.0,0.0,0.0,0.0,0.0,0.0,0.0,0.0,0.0,0.0,0.0,0.0,0.0,0.0,0.0,0.2974,0.3002,0.3546,0.3604,0.3604,0.3604,0.3604,0.3279,0.2546,0.2484,0.0,0.0,0.0,0.0,0.0,0.0,0.0,0.0,0.0,0.0,0.0,0.0,0.0,0.0,0.0,0.0,0.0,0.0,0.0,0.0,0.0,0.0,0.0,0.0,0.0,0.0,0.0,0.0,0.0,0.0,0.0,0.0,0.0,0.0,0.0,0.0,0.0,0.0,0.0,0.0,0.0,0.0,0.0,0.0,0.0,0.0,0.0,0.0,0.0,0.0,0.0,0.0,0.0,0.0,0.0,0.0,0.0,0.0,0.0,0.0,0.0,0.0,0.0,0.0,0.0,0.0,0.0,0.0,0.0,0.0,0.0,0.0,0.0,0.0,0.0,0.0,0.0,0.0,0.0,0.0,0.0,0.0,0.0,0.0,0.0,0.0,0.0,0.0,0.0,0.0,0.0,0.0,0.0,0.0,0.0,0.0,0.0,0.0,0.0,0.0,0.0,0.0,0.3256,0.3605,0.397,0.399,0.399,0.399,0.399,0.3615,0.2702,0.2603,0.0,0.0,0.0,0.0,0.0,0.0,0.0,0.0,0.0,0.0,0.0,0.0,0.0,0.0,0.0,0.0,0.0,0.0,0.0,0.0,0.0,0.0,0.0,0.0,0.0,0.0,0.0,0.0,0.0,0.0,0.0,0.0,0.0,0.0,0.0,0.0,0.0,0.0,0.0,0.0,0.0,0.0,0.0,0.0,0.0,0.0,0.0,0.0,0.0,0.0,0.0,0.0,0.0,0.0,0.0,0.0,0.0,0.0,0.0,0.0,0.0,0.0,0.0,0.0,0.0,0.0,0.0,0.0,0.0,0.0,0.0,0.0,0.0,0.0,0.0,0.0,0.0,0.0,0.0,0.0,0.0,0.0,0.0,0.0,0.0,0.0,0.0,0.0,0.0,0.0,0.0,0.0,0.0,0.0,0.0,0.0,0.0,0.0,0.0,0.0,0.0,0.0,0.4282,0.5145,0.5173,0.5178,0.5178,0.5178,0.5178,0.4568,0.3152,0.2534,0.0,0.0,0.0,0.0,0.0,0.0,0.0,0.0,0.0,0.0,0.0,0.0,0.0,0.0,0.0,0.0,0.0,0.0,0.0,0.0,0.0,0.0,0.0,0.0,0.0,0.0,0.0,0.0,0.0,0.0,0.0,0.0,0.0,0.0,0.0,0.0,0.0,0.0,0.0,0.0,0.0,0.0,0.0,0.0,0.0,0.0,0.0,0.0,0.0,0.0,0.0,0.0,0.0,0.0,0.0,0.0,0.0,0.0,0.0,0.0,0.0,0.0,0.0,0.0,0.0,0.0,0.0,0.0,0.0,0.0,0.0,0.0,0.0,0.0,0.0,0.0,0.0,0.0,0.0,0.0,0.0,0.0,0.0,0.0,0.0,0.0,0.0,0.0,0.0,0.0,0.0,0.0,0.0,0.0,0.0,0.0,0.0,0.0,0.0,0.0,0.0,0.0,0.4126,0.4981,0.5262,0.5303,0.5303,0.5303,0.5303,0.4698,0.3314,0.0,0.0,0.0,0.0,0.0,0.0,0.0,0.0,0.0,0.0,0.0,0.0,0.0,0.0,0.0,0.0,0.0,0.0,0.0,0.0,0.0,0.0,0.0,0.0,0.0,0.0,0.0,0.0,0.0,0.0,0.0,0.0,0.0,0.0,0.0,0.0,0.0,0.0,0.0,0.0,0.0,0.0,0.0,0.0,0.0,0.0,0.0,0.0,0.0,0.0,0.0,0.0,0.0,0.0,0.0,0.0,0.0,0.0,0.0,0.0,0.0,0.0,0.0,0.0,0.0,0.0,0.0,0.0,0.0,0.0,0.0,0.0,0.0,0.0,0.0,0.0,0.0,0.0,0.0,0.0,0.0,0.0,0.0,0.0,0.0,0.0,0.0,0.0,0.0,0.0,0.0,0.0,0.0,0.0,0.0,0.0,0.0,0.0,0.0,0.0,0.0,0.0,0.3446,0.4542,0.5477,0.5812,0.584,0.584,0.584,0.584,0.5264,0.3931,0.0,0.0,0.0,0.0,0.0,0.0,0.0,0.0,0.0,0.0,0.0,0.0,0.0,0.0,0.0,0.0,0.0,0.0,0.0,0.0,0.0,0.0,0.0,0.0,0.0,0.0,0.0,0.0,0.0,0.0,0.0,0.0,0.0,0.0,0.0,0.0,0.0,0.0,0.0,0.0,0.0,0.0,0.0,0.0,0.0,0.0,0.0,0.0,0.0,0.0,0.0,0.0,0.0,0.0,0.0,0.0,0.0,0.0,0.0,0.0,0.0,0.0,0.0,0.0,0.0,0.0,0.0,0.0,0.0,0.0,0.0,0.0,0.0,0.0,0.0,0.0,0.0,0.0,0.0,0.0,0.0,0.0,0.0,0.0,0.0,0.0,0.0,0.0,0.0,0.0,0.0,0.0,0.0,0.0,0.0,0.0,0.0,0.0,0.0,0.0,0.0,0.0,0.4011,0.576,0.7006,0.7006,0.7006,0.7006,0.7,0.7,0.6429,0.0,0.0,0.0,0.0,0.0,0.0,0.0,0.0,0.0,0.0,0.0,0.0,0.0,0.0,0.0,0.0,0.0,0.0,0.0,0.0,0.0,0.0,0.0,0.0,0.0,0.0,0.0,0.0,0.0,0.0,0.0,0.0,0.0,0.0,0.0,0.0,0.0,0.0,0.0,0.0,0.0,0.0,0.0,0.0,0.0,0.0,0.0,0.0,0.0,0.0,0.0,0.0,0.0,0.0,0.0,0.0,0.0,0.0,0.0,0.0,0.0,0.0,0.0,0.0,0.0,0.0,0.0,0.0,0.0,0.0,0.0,0.0,0.0,0.0,0.0,0.0,0.0,0.0,0.0,0.0,0.0,0.0,0.0,0.0,0.0,0.0,0.0,0.0,0.0,0.0,0.0,0.0,0.0,0.0,0.0,0.0,0.0,0.0,0.0,0.0,0.0,0.0,0.0,0.4437,0.6304,0.7559,0.7377,0.7357,0.7248,0.702,0.7,0.6487,0.5287,0.0,0.0,0.0,0.0,0.0,0.0,0.0,0.0,0.0,0.0,0.0,0.0,0.0,0.0,0.0,0.0,0.0,0.0,0.0,0.0,0.0,0.0,0.0,0.0,0.0,0.0,0.0,0.0,0.0,0.0,0.0,0.0,0.0,0.0,0.0,0.0,0.0,0.0,0.0,0.0,0.0,0.0,0.0,0.0,0.0,0.0,0.0,0.0,0.0,0.0,0.0,0.0,0.0,0.0,0.0,0.0,0.0,0.0,0.0,0.0,0.0,0.0,0.0,0.0,0.0,0.0,0.0,0.0,0.0,0.0,0.0,0.0,0.0,0.0,0.0,0.0,0.0,0.0,0.0,0.0,0.0,0.0,0.0,0.0,0.0,0.0,0.0,0.0,0.0,0.0,0.0,0.0,0.0,0.0,0.0,0.0,0.0,0.0,0.0,0.0,0.0,0.0,0.4634,0.6534,0.7832,0.7669,0.7649,0.7575,0.7379,0.7366,0.696,0.6032,0.0,0.0,0.0,0.0,0.0,0.0,0.0,0.0,0.0,0.0,0.0,0.0,0.0,0.0,0.0,0.0,0.0,0.0,0.0,0.0,0.0,0.0,0.0,0.0,0.0,0.0,0.0,0.0,0.0,0.0,0.0,0.0,0.0,0.0,0.0,0.0,0.0,0.0,0.0,0.0,0.0,0.0,0.0,0.0,0.0,0.0,0.0,0.0,0.0,0.0,0.0,0.0,0.0,0.0,0.0,0.0,0.0,0.0,0.0,0.0,0.0,0.0,0.0,0.0,0.0,0.0,0.0,0.0,0.0,0.0,0.0,0.0,0.0,0.0,0.0,0.0,0.0,0.0,0.0,0.0,0.0,0.0,0.0,0.0,0.0,0.0,0.0,0.0,0.0,0.0,0.0,0.0,0.0,0.0,0.0,0.0,0.0,0.0,0.0,0.0,0.0,0.0,0.4748,0.6633,0.7979,0.7952,0.7945,0.7939,0.7912,0.7905,0.7679,0.7146,0.0,0.0,0.0,0.0,0.0,0.0,0.0,0.0,0.0,0.0,0.0,0.0,0.0,0.0,0.0,0.0,0.0,0.0,0.0,0.0,0.0,0.0,0.0,0.0,0.0,0.0,0.0,0.0,0.0,0.0,0.0,0.0,0.0,0.0,0.0,0.0,0.0,0.0,0.0,0.0,0.0,0.0,0.0,0.0,0.0,0.0,0.0,0.0,0.0,0.0,0.0,0.0,0.0,0.0,0.0,0.0,0.0,0.0,0.0,0.0,0.4698,0.3667,0.0,0.0,0.0,0.0,0.0,0.0,0.0,0.0,0.0,0.0,0.0,0.0,0.0,0.0,0.0,0.0,0.0,0.0,0.0,0.0,0.0,0.0,0.0,0.0,0.0,0.0,0.0,0.0,0.0,0.0,0.0,0.0,0.0,0.0,0.0,0.0,0.0,0.0,0.0,0.0,0.5455,0.7313,0.8537,0.8303,0.8301,0.8183,0.7925,0.7905,0.7919,0.7939,0.7173,0.0,0.0,0.0,0.0,0.0,0.0,0.0,0.0,0.0,0.0,0.0,0.0,0.0,0.0,0.0,0.0,0.0,0.0,0.0,0.0,0.0,0.0,0.0,0.0,0.0,0.0,0.0,0.0,0.0,0.0,0.0,0.0,0.0,0.0,0.0,0.0,0.0,0.0,0.0,0.0,0.0,0.0,0.0,0.0,0.0,0.0,0.0,0.0,0.0,0.0,0.0,0.0,0.0,0.0,0.0,0.0,0.0,0.0,0.0,0.5735,0.5146,0.0,0.0,0.0,0.0,0.0,0.0,0.0,0.0,0.0,0.0,0.0,0.0,0.0,0.0,0.0,0.0,0.0,0.0,0.0,0.0,0.0,0.0,0.0,0.0,0.0,0.0,0.0,0.0,0.0,0.0,0.0,0.0,0.0,0.0,0.0,0.0,0.0,0.0,0.0,0.0,0.5694,0.7506,0.8751,0.8597,0.8584,0.8524,0.8338,0.8325,0.8312,0.8297,0.8223,0.0,0.0,0.0,0.0,0.0,0.0,0.0,0.0,0.0,0.0,0.0,0.0,0.0,0.0,0.0,0.0,0.0,0.0,0.0,0.0,0.0,0.0,0.0,0.0,0.0,0.0,0.0,0.0,0.0,0.0,0.0,0.0,0.0,0.0,0.0,0.0,0.0,0.0,0.0,0.0,0.0,0.0,0.0,0.0,0.0,0.0,0.0,0.0,0.0,0.0,0.0,0.0,0.0,0.6161,0.6379,0.666,0.666,0.7056,0.7672,0.6673,0.6713,0.735,0.5578,0.0,0.0,0.0,0.0,0.0,0.0,0.0,0.0,0.0,0.0,0.0,0.0,0.0,0.0,0.0,0.0,0.0,0.0,0.0,0.0,0.0,0.0,0.7926,0.8476,0.8677,0.8479,0.7468,0.0,0.0,0.0,0.0,0.0,0.0,0.0,0.0,0.0,0.0,0.0,0.6032,0.7649,0.8804,0.8804,0.8804,0.8804,0.8804,0.8804,0.8704,0.8489,0.8671,0.8571,0.0,0.0,0.0,0.0,0.0,0.0,0.0,0.0,0.0,0.0,0.0,0.0,0.0,0.0,0.0,0.0,0.0,0.0,0.0,0.0,0.0,0.0,0.0,0.0,0.0,0.0,0.0,0.0,0.0,0.0,0.0,0.0,0.6093,0.5597,0.0,0.0,0.0,0.0,0.0,0.0,0.0,0.0,0.0,0.0,0.0,0.0,0.0,0.5685,0.6129,0.6861,0.7216,0.7263,0.8023,0.8424,0.8457,0.8457,0.8524,0.8624,0.8464,0.0,0.745,0.6894,0.0,0.0,0.0,0.0,0.0,0.0,0.0,0.0,0.0,0.0,0.0,0.0,0.0,0.0,0.0,0.0,0.0,0.0,0.0,0.0,0.0,0.0,1.2089,1.2182,1.176,1.1276,1.1119,0.9091,0.7005,0.5955,0.4703,0.3173,0.0,0.0,0.0,0.0,0.0,0.0,0.7182,0.8156,0.8804,0.8804,0.8804,0.8804,0.8804,0.8804,0.8791,0.8751,0.8784,0.8292,0.7206,0.7976,0.0,0.0,0.0,0.0,0.0,0.0,0.0,0.0,0.0,0.0,0.0,0.0,0.0,0.0,0.0,0.0,0.0,0.0,0.0,0.0,0.0,0.0,0.0,0.0,0.0,0.0,0.0,0.0,0.0,0.5267,0.5649,0.5688,0.5068,0.4329,0.0,0.0,0.0,0.0,0.0,0.0,0.0,0.0,0.0,0.668,0.672,0.7028,0.7665,0.8053,0.8223,0.8223,0.8617,0.8804,0.8804,0.8804,0.9008,0.9361,0.9361,0.9372,0.9247,0.7859,0.6961,0.6424,0.0,0.0,0.0,0.0,0.5748,0.6187,0.6851,0.7589,0.8254,0.8453,0.0,0.0,0.0,0.0,0.0,0.0,0.0,0.8222,1.0079,1.1053,1.1772,1.2681,1.2344,1.1789,1.1789,1.0883,0.9751,0.8777,0.7666,0.6126,0.3783,0.3373,0.0,0.0,0.0,0.7725,0.7511,0.825,0.8804,0.8804,0.8804,0.8804,0.8804,0.8804,0.8804,0.8804,0.8804,0.8571,0.8019,0.7859,0.7148,0.0,0.0,0.0,0.0,0.0,0.0,0.0,0.0,0.0,0.0,0.0,0.0,0.0,0.0,0.0,0.0,0.0,0.0,0.0,0.0,0.0,0.0,0.0,0.0,0.0,0.0,0.0,0.0,0.5659,0.5986,0.6361,0.5858,0.5104,0.0,0.0,0.0,0.0,0.0,0.0,0.6389,0.6251,0.6667,0.7799,0.7832,0.8154,0.8798,0.8804,0.8883,0.9061,0.9061,0.9133,0.9309,0.9309,0.9588,1.0064,1.0064,1.0338,1.068,0.9014,0.8379,0.8392,0.7685,0.7459,0.7526,0.7448,0.7727,0.8245,0.8875,0.9729,1.0461,0.9766,0.968,0.9628,0.8481,0.0,0.0,0.0,0.0,0.8938,1.0892,1.1255,1.1407,1.2623,1.2476,1.208,1.208,1.1997,1.1608,1.0551,0.9917,0.8873,0.6651,0.6135,0.0,0.5608,0.7139,0.8216,0.7879,0.8397,0.8804,0.8804,0.8804,0.8804,0.8804,0.8956,0.9061,0.9061,0.9061,0.9061,0.9061,0.8021,0.7732,0.8337,0.0,0.0,0.0,0.0,0.0,0.0,0.0,0.0,0.0,0.0,0.0,0.0,0.0,0.0,0.0,0.0,0.0,0.0,0.0,0.0,0.0,0.0,0.0,0.0,0.0,0.0,0.0,0.0,0.0,0.8374,0.7765,0.0,0.0,0.0,0.0,0.75,0.7263,0.7474,0.8307,0.7749,0.7819,0.8711,0.8738,0.8758,0.8804,0.8804,0.9106,0.9744,0.9744,1.009,1.0686,1.0686,1.0712,1.0745,1.0745,1.0771,1.0788,1.068,1.0167,0.9427,0.9376,0.8874,0.8255,0.9053,0.9372,0.9533,1.0383,1.0731,1.0781,1.0739,1.0018,0.9292,1.0097,0.9134,0.0,0.0,1.0362,1.0738,1.2385,1.2783,1.2803,1.2886,1.2881,1.2847,1.2847,1.2501,1.1907,1.0948,1.1241,1.1078,0.9234,0.0,0.7949,0.7926,0.7447,0.7486,0.8597,0.8778,0.8804,0.8804,0.8804,0.8804,0.8804,0.9387,0.9744,0.9744,0.9744,0.9744,0.9744,0.9077,0.821,0.7113,0.807,0.0,0.0,0.0,0.0,0.0,0.0,0.0,0.0,0.0,0.0,0.0,0.0,0.0,0.0,0.0,0.0,0.0,0.0,0.0,0.0,0.0,0.0,0.0,0.0,0.0,0.0,0.0,0.0,0.8911,0.8829,0.0,0.7739,0.789,0.8092,0.8214,0.8217,0.8371,0.8682,0.888,0.913,0.9425,0.9865,1.009,1.009,1.009,1.0218,1.044,1.002,1.0141,1.0788,1.0338,1.0644,1.1441,1.1441,1.1699,1.2157,1.2157,1.1695,1.0972,1.0972,1.1086,1.1192,1.1039,1.128,1.1668,1.1507,1.1758,1.2157,1.2157,1.1888,1.1609,1.1945,1.1592,1.1224,1.1866,1.203,1.2169,1.2754,1.2905,1.2905,1.2905,1.2905,1.2905,1.2905,1.2778,1.2541,1.2227,1.1756,1.0928,0.9377,0.9509,0.958,0.8857,0.9148,0.9609,1.0028,0.971,0.9439,0.9439,0.9061,0.8804,0.8804,0.9008,0.9159,0.9159,0.9562,0.9788,0.9788,0.9562,0.9249,0.8806,0.8808,0.853,0.0,0.0,0.0,0.0,0.0,0.0,0.0,0.0,0.0,0.0,0.0,0.0,0.0,0.0,0.0,0.0,0.0,0.0,0.0,0.0,0.0,0.0,0.0,0.0,0.0,0.8993,0.963,0.9582,0.9582,0.9349,0.8706,0.9036,0.9367,0.9596,0.9738,0.9814,0.9814,1.0012,1.0141,1.0141,1.0568,1.0686,1.0466,1.0695,1.0788,1.0788,1.0593,1.0847,1.1484,1.1057,1.1334,1.2163,1.2163,1.2452,1.2905,1.2905,1.2608,1.2163,1.2163,1.2476,1.2847,1.2344,1.2476,1.2832,1.2344,1.2476,1.2905,1.2905,1.2905,1.2905,1.2905,1.2905,1.2905,1.2905,1.2905,1.2905,1.2905,1.2905,1.2905,1.2905,1.2905,1.2905,1.2905,1.2905,1.2905,1.2905,1.2282,1.1482,1.0534,1.081,1.0839,0.9943,1.0364,1.0747,1.0631,1.0318,1.0141,1.0141,0.9736,0.9484,0.9484,0.9195,0.9177,0.947,0.9407,0.9495,0.9773,0.9292,0.9025,0.9025,0.8593,0.8176,0.7816,0.0,0.0,0.0,0.0,0.0,0.0,0.0,0.0,0.0,0.0,0.0,0.0,0.0,0.0,0.0,0.0,0.0,0.0,0.0,0.0,0.0,0.0,0.0,1.0908,1.0387,1.014,1.0519,1.0177,0.9829,0.9622,1.0345,1.1091,1.1765,1.1789,1.1765,1.1765,1.1166,1.0838,1.0838,1.0838,1.0542,0.9917,1.0542,1.0864,1.0864,1.1491,1.2187,1.2905,1.2881,1.2881,1.2905,1.2905,1.2905,1.2905,1.2905,1.2905,1.2905,1.2905,1.2905,1.2905,1.2905,1.2905,1.2905,1.2905,1.2905,1.2905,1.2905,1.2905,1.2905,1.2905,1.2905,1.2905,1.2905,1.2905,1.2905,1.2905,1.2905,1.2905,1.2905,1.2905,1.2905,1.2905,1.2905,1.2905,1.2905,1.2905,1.2905,1.2905,1.232,1.1688,1.1309,1.1034,0.0,1.0327,1.0607,1.0813,1.0797,1.0771,1.0746,1.0746,0.9977,0.9871,1.0747,0.9423,0.8982,0.982,0.8407,0.7598,0.7576,0.7576,0.7057,0.5994,0.0,0.0,0.0,0.0,0.0,0.0,0.0,0.0,0.0,0.0,0.0,0.0,0.0,0.0,0.0,0.0,0.0,0.0,0.0,0.0,0.0,0.9942,1.0908,1.0908,1.1573,1.2124,1.2217,1.2132,1.2027,1.1964,1.1692,1.1591,1.1789,1.1341,1.1065,1.1065,1.1366,1.1541,1.1541,1.2039,1.223,1.2058,1.223,1.2314,1.2314,1.1981,1.2187,1.2881,1.2344,1.2393,1.2905,1.2905,1.2905,1.2905,1.2905,1.2905,1.2905,1.2905,1.2905,1.2905,1.2905,1.2905,1.2905,1.2905,1.2905,1.2905,1.2905,1.2905,1.2905,1.2905,1.2905,1.2905,1.2905,1.2905,1.2905,1.2905,1.2905,1.2905,1.2905,1.2905,1.2905,1.2905,1.2905,1.2905,1.2905,1.2905,1.2905,1.2905,1.2715,1.257,1.2464,1.2361,1.2291,1.2155,1.1794,1.1262,1.058,1.0066,0.9778,0.9778,0.9571,0.9826,1.073,1.0852,1.0988,1.1249,1.0376,0.9667,0.9187,0.9353,0.8977,0.0,0.0,0.0,0.0,0.0,0.0,0.0,0.0,0.0,0.0,0.0,0.0,0.0,0.0,0.0,0.0,0.0,0.0,0.0,0.0,0.0,0.0,1.1045,1.1738,1.1738,1.2416,1.2905,1.2905,1.2642,1.2452,1.2452,1.2055,1.1789,1.1789,1.1733,1.1692,1.1692,1.2039,1.2261,1.2261,1.2691,1.274,1.2452,1.2749,1.2749,1.2452,1.232,1.2476,1.2881,1.2452,1.2476,1.2905,1.2905,1.2905,1.2905,1.2905,1.2905,1.2905,0.0,0.0,0.0,0.0,1.2905,1.2905,1.2905,1.2905,1.2905,1.2905,1.2905,1.2905,1.2905,1.2905,1.2905,1.2905,1.2905,1.2905,1.2905,1.2905,1.2905,1.2905,1.2905,1.2905,1.2905,1.2905,1.2905,1.2905,1.2905,0.0,1.2905,1.2905,1.2822,1.2637,1.2764,1.2837,1.2627,1.2396,1.2055,1.1501,1.1087,1.0876,1.0876,1.0245,0.0,0.0,0.0,1.0842,1.0842,1.0184,0.0,0.0,0.0,0.9526,0.964,0.964,0.0,0.0,0.7857,0.6927,0.0,0.0,0.0,0.0,0.0,0.0,0.0,0.0,0.0,0.0,0.0,0.0,0.0,0.0,0.0,0.0,1.2051,1.2905,1.2905,1.2905,1.2905,1.2905,1.232,1.1913,1.1913,1.1913,1.1913,1.1913,1.2525,1.2905,1.2905,1.2905,0.0,0.0,0.0,1.2584,1.1922,1.2559,1.2559,1.1922,1.2584,1.2905,1.2905,1.2905,1.2905,1.2905,1.2905,1.2905,1.2905,1.2954,1.2974,1.2949,1.2925,1.2905,1.2905,1.2905,1.2905,1.2905,1.2905,0.0,0.0,1.2905,1.2905,1.2905,1.2905,1.2905,1.2905,1.2905,1.2905,1.2905,1.2905,1.2905,1.2905,1.2905,1.2905,1.2905,1.2905,1.2905,1.2905,1.2905,1.2905,1.2905,1.2905,1.2905,1.2754,1.234,1.2627,1.2744,1.233,1.2646,1.2861,1.273,1.273,0.0,1.273,1.143,1.0971,1.1874,1.0635,0.9852,0.9757,0.9261,0.9239,0.9757,0.9261,0.9594,1.0788,1.0889,1.0542,0.9751,0.7794,0.6997,0.0,0.0,0.0,0.0,0.0,0.0,0.0,0.0,0.0,0.0,0.0,0.0,0.0,0.0,0.0,1.1389,1.2269,1.2905,1.2905,1.2905,1.2905,1.2905,1.2774,1.2691,1.2691,1.2691,1.2691,1.2691,1.2822,1.2905,1.2905,1.2905,1.2905,1.2905,1.2905,1.2822,1.2691,1.2832,1.2832,1.2691,1.2822,0.0,1.2905,1.2905,1.2905,1.2905,1.2905,1.2905,1.2935,1.3242,1.3389,1.335,1.3042,1.2905,1.2905,1.2905,1.2905,1.2905,1.2905,1.2905,1.2905,1.2905,1.2905,1.2905,1.2905,1.2905,0.0,1.2905,1.2905,1.2905,1.2905,1.2905,1.2905,1.2905,1.2905,1.2905,1.2905,1.2905,1.2905,1.2905,1.2905,1.2905,1.2905,1.2905,1.2876,1.2773,1.2856,1.2876,1.2773,1.2856,1.259,1.178,1.1695,1.1695,1.1695,1.1403,1.1631,1.2628,1.2412,1.1973,1.1375,1.1796,1.1829,1.1351,1.182,1.164,1.0788,1.1341,1.099,0.978,0.937,0.8895,0.0,0.0,0.0,0.0,0.0,0.0,0.0,0.0,0.0,0.0,0.0,0.9775,1.0176,0.0,1.1709,1.2171,1.2621,1.2905,1.2905,1.2905,1.2905,1.2905,1.2905,1.2905,1.2905,1.2905,1.2905,1.2905,1.2905,1.2905,1.2905,1.2905,1.2905,1.2905,1.2905,1.2905,1.2905,1.3096,1.3193,1.3193,1.3408,1.3506,1.3506,1.3506,1.3506,1.3506,1.3506,1.3506,1.3525,1.3714,1.3792,1.3773,1.3584,1.3379,1.3193,1.3193,1.333,1.3477,1.3271,1.3193,1.3164,1.2974,1.2905,1.2905,1.2905,1.2905,1.2905,1.2905,1.2905,1.2905,1.2905,1.2905,1.2905,1.2905,1.2905,1.2905,1.2905,1.2905,1.2905,1.2905,1.2905,1.2905,1.2905,1.2905,1.2905,1.2905,1.2905,1.2905,1.2905,1.2905,1.272,1.2191,1.2139,1.2139,1.2139,1.2139,1.2364,1.2861,1.2905,1.2715,1.2369,1.2344,1.2344,1.2344,1.2344,1.2172,1.1841,1.2197,1.1633,1.0287,1.0287,0.9943,0.0,0.0,0.0,0.0,0.0,0.0,0.0,0.8027,0.8203,0.9492,1.0332,1.0889,1.123,1.1853,1.2447,1.2846,1.2905,1.2905,1.2905,1.2905,1.2905,1.2905,1.2905,1.2905,1.2905,1.2905,1.2905,1.2905,1.2905,1.2935,1.2998,1.3023,1.3037,1.3125,1.3125,1.3125,1.3125,1.3457,1.3633,1.3633,1.3948,1.4104,1.4104,1.4104,1.4104,1.4104,1.4104,1.4153,1.4231,1.4231,1.4231,1.4231,1.4231,1.4026,1.374,1.3662,1.3821,1.4055,1.3724,1.3633,1.3549,1.3232,1.3125,1.3125,1.3125,1.3125,1.3125,1.3125,1.3125,1.3125,1.3125,1.3125,1.3125,1.3125,1.3125,1.3125,1.3125,1.3125,1.3125,1.3125,1.3125,1.3125,1.3125,1.3057,1.3003,1.2915,1.2905,1.2905,1.2905,1.2905,1.2905,1.2905,1.2905,1.2905,1.2905,1.2905,1.2905,1.2905,1.2905,1.2905,1.2905,1.232,1.2295,1.2881,1.232,1.2236,1.2691,1.2832,1.223,1.099,1.0864,1.0364,0.8463,0.791,0.7788,0.8101,0.817,0.8894,0.0,1.1328,1.0859,1.2201,1.2543,1.2631,1.267,1.2768,1.2846,1.2895,1.2905,1.2905,1.2905,1.2905,1.2905,1.2905,1.2905,1.2905,1.2905,1.2905,1.2905,1.2905,1.2905,1.3071,1.3418,1.3437,1.3613,1.3948,1.3968,1.3968,1.3968,1.4016,1.4036,1.4036,1.4085,1.4104,1.4104,1.4104,1.4104,1.4104,1.4104,1.4328,1.4717,1.4717,1.4717,1.4717,1.4717,1.4687,1.459,1.4182,1.4065,1.4104,1.4055,1.4036,1.4026,1.3977,1.3968,1.3968,1.3968,1.3968,1.3968,1.3968,1.3968,1.3968,1.3968,1.3968,1.3968,1.3968,1.3968,1.3968,1.3968,1.3968,1.3968,1.3968,1.3968,1.3968,1.3968,1.3656,1.3311,1.2964,1.2905,1.2905,1.2905,1.2905,1.2905,1.2905,1.2905,1.2905,1.2905,1.2905,1.2905,1.2905,1.2905,1.2905,1.2905,1.2822,1.2822,1.2905,1.2822,1.251,1.1913,1.2584,1.2486,1.1665,1.1091,1.0115,1.0625,1.0088,0.9669,1.0146,1.0263,1.0596,1.1871,1.1702,1.1614,1.269,1.2905,1.2905,1.2905,1.2905,1.2905,1.2905,1.2905,1.2905,1.2905,1.2905,1.2905,1.2905,1.2905,1.2905,1.2905,1.2905,1.3013,1.3232,1.3242,1.3428,1.3821,1.3851,1.3929,1.4104,1.4104,1.4104,1.4104,1.4358,1.4512,1.4521,1.4738,1.4855,1.4855,1.4855,1.4855,1.4855,1.4855,1.498,1.5146,1.5146,1.5146,1.5146,1.5146,1.5146,1.5098,1.4668,1.4668,1.4816,1.46,1.4512,1.4473,1.4192,1.4104,1.4104,1.4104,1.4104,1.4104,1.4104,1.4104,1.4104,1.4104,1.4104,1.4104,1.4104,1.4104,1.4104,1.4104,1.4104,1.4104,1.4104,1.4104,1.4104,1.4104,1.3958,1.3704,1.3311,1.3062,1.2905,1.2905,1.2905,1.2905,1.2905,1.2905,1.2905,1.2905,1.2905,1.2905,1.2905,1.2905,1.2905,1.2905,1.2905,1.2905,1.2905,1.2905,1.2749,1.2452,1.274,1.2535,1.1789,1.1516,1.0864,1.1209,1.1112,1.0986,1.132,1.1672,1.1969,1.1969,1.1969,1.2132,1.2778,1.2905,1.2905,1.2905,1.2905,1.2905,1.2905,1.2905,1.2905,1.2905,1.2905,1.2905,1.2905,1.3013,1.3081,1.3081,1.3081,1.3232,1.3652,1.3682,1.3841,1.426,1.428,1.4338,1.4455,1.4465,1.4465,1.4465,1.4805,1.4961,1.4961,1.5264,1.541,1.541,1.541,1.541,1.541,1.541,1.541,1.541,1.541,1.541,1.541,1.541,1.541,1.5342,1.5068,1.5146,1.5371,1.5068,1.4961,1.4912,1.4562,1.4465,1.4465,1.4465,1.4465,1.4465,1.4465,1.4465,1.4465,1.4465,1.4465,1.4465,1.4465,1.4465,1.4465,1.4465,1.4465,1.4465,1.4465,1.4465,1.4465,1.4465,1.4367,1.4182,1.3906,1.3496,1.3145,1.2935,1.2905,1.2905,1.2905,1.2905,1.2905,1.2905,1.2905,1.2905,1.2905,1.2905,1.2905,1.2905,1.2905,1.2905,1.2905,1.2905,1.2905,1.2905,1.2905,1.2642,1.2104,1.1898,1.1541,0.9326,0.999,1.0897,1.0928,1.1895,1.2866,1.2866,1.2866,1.2876,1.2895,1.2905,1.2905,1.2905,1.2905,1.2905,1.2905,1.2905,1.2905,1.2905,1.2905,1.2905,1.2905,1.3242,1.3486,1.3486,1.3486,1.3662,1.4055,1.4085,1.428,1.4746,1.4766,1.4951,1.5361,1.5371,1.5371,1.5371,1.5362,1.5391,1.5391,1.5371,1.541,1.541,1.541,1.541,1.541,1.541,1.541,1.541,1.541,1.541,1.541,1.541,1.541,1.541,1.54,1.54,1.541,1.54,1.5391,1.5391,1.5381,1.5371,1.5371,1.5371,1.5371,1.5371,1.5371,1.5371,1.5371,1.5371,1.5371,1.5371,1.5371,1.5371,1.5371,1.5371,1.5371,1.5371,1.5371,1.5371,1.5371,1.5371,1.5039,1.4756,1.4746,1.4348,1.3773,1.3013,1.2905,1.2905,1.2905,1.2905,1.2905,1.2905,1.2905,1.2905,1.2905,1.2905,1.2905,1.2905,1.2905,1.2905,1.2905,1.2905,1.2905,1.2905,1.2905,1.2881,1.2856,1.2129,1.1789,1.0645,1.1036,1.1506,1.207,1.2573,1.2905,1.2905,1.2905,1.2905,1.2905,1.2905,1.2905,1.2905,1.2905,1.2905,1.2905,1.2905,1.3003,1.3262,1.3301,1.3398,1.3656,1.3812,1.4007,1.4326,1.4065,1.4075,1.4531,1.4561,1.4746,1.5176,1.5205,1.5264,1.541,1.541,1.541,1.541,1.541,1.541,1.541,1.541,1.541,1.541,1.541,1.541,1.541,1.541,1.541,1.541,1.541,1.541,1.541,1.541,1.541,1.541,1.541,1.541,1.541,1.541,1.541,1.541,1.541,1.541,1.541,1.541,1.541,1.541,1.541,1.541,1.541,1.541,1.541,1.541,1.541,1.541,1.541,1.541,1.541,1.541,1.541,1.541,1.541,1.541,1.5293,1.5107,1.4852,1.4414,1.4007,1.3724,1.3685,1.3685,1.3685,1.3467,1.3301,1.3301,1.3037,1.2905,1.2905,1.2905,1.2905,1.2905,1.2905,1.2905,1.2905,1.2905,1.2905,1.2905,1.2905,1.2905,1.2881,1.2642,1.2525,1.1371,1.1606,1.1822,1.268,1.2905,1.2905,1.2905,1.2905,1.2905,1.2905,1.2778,1.2695,1.2876,1.2754,1.2744,1.3057,1.3232,1.3418,1.3665,1.3867,1.4004,1.4094,1.4241,1.4473,1.4784,1.4668,1.4679,1.499,1.501,1.5127,1.54,1.541,1.541,1.541,1.541,1.541,1.541,1.541,1.541,1.541,1.541,1.541,1.541,1.541,1.541,1.541,1.541,1.541,1.541,1.541,1.541,1.541,1.541,1.541,1.541,1.541,1.541,1.541,1.541,1.541,1.541,1.541,1.541,1.541,1.541,1.541,1.541,1.541,1.541,1.541,1.541,1.541,1.541,1.541,1.541,1.541,1.541,1.541,1.541,1.541,1.541,1.541,1.541,1.541,1.5322,1.5049,1.4775,1.4455,1.4143,1.4104,1.4104,1.4104,1.387,1.3646,1.3516,1.3262,1.3037,1.2915,1.2905,1.2905,1.2905,1.2905,1.2905,1.2905,1.2905,1.2905,1.2905,1.2905,1.2905,1.2905,1.2905,1.2905,1.141,1.1655,1.1881,1.269,1.2905,1.2905,1.2905,1.2905,1.2895,1.2846,1.249,1.2281,1.2656,1.2432,1.2437,1.3281,1.3773,1.4085,1.4133,1.4521,1.4639,1.4221,1.4561,1.4814,1.4814,1.5176,1.541,1.541,1.541,1.541,1.541,1.541,1.541,1.541,1.541,1.541,1.541,1.541,1.541,1.541,1.541,1.541,1.541,1.541,1.541,1.541,1.541,1.541,1.541,1.541,1.541,1.541,1.541,1.541,1.541,1.541,1.541,1.541,1.541,1.541,1.541,1.541,1.541,1.541,1.541,1.541,1.541,1.541,1.541,1.541,1.5439,1.5468,1.5468,1.5497,1.5517,1.5497,1.5468,1.5468,1.5439,1.541,1.541,1.541,1.541,1.541,1.541,1.541,1.541,1.5089,1.428,1.4172,1.4172,1.4172,1.4153,1.3977,1.3603,1.3555,1.3369,1.2993,1.2954,1.2935,1.2935,1.2915,1.2905,1.2905,1.2905,1.2905,1.2905,1.2905,1.2905,1.2905,1.2905,1.2905,1.1914,1.2295,1.2621,1.2846,1.2905,1.2905,1.2905,1.2905,1.2719,1.2077,1.1829,1.1465,1.0595,1.1152,1.1829,1.2044,1.2959,1.3887,1.4531,1.4717,1.4863,1.5068,1.5157,1.5254,1.5254,1.5352,1.541,1.541,1.541,1.541,1.541,1.541,1.541,1.541,1.541,1.541,1.541,1.541,1.541,1.541,1.541,1.541,1.541,1.541,1.541,1.541,1.541,1.541,1.541,1.541,1.541,1.541,1.541,1.541,1.541,1.541,1.541,1.541,1.541,1.541,1.541,1.541,1.541,1.541,1.541,1.541,1.541,1.541,1.541,1.5526,1.6093,1.6208,1.6368,1.6912,1.7052,1.6884,1.634,1.6208,1.6065,1.5497,1.541,1.541,1.541,1.541,1.541,1.541,1.541,1.5332,1.5089,1.5059,1.5059,1.5059,1.4805,1.457,1.4473,1.4133,1.3899,1.3792,1.3516,1.335,1.335,1.3071,1.2905,1.2905,1.2905,1.2905,1.2905,1.2905,1.2905,1.2905,1.2905,1.2905,1.2393,1.2695,1.2905,1.2905,1.2905,1.2798,1.2416,1.2328,1.2025,1.0928,1.0713,1.043,0.9503,1.0586,1.1653,1.1816,1.3252,1.4512,1.499,1.5253,1.539,1.541,1.541,1.541,1.541,1.541,1.541,1.541,1.541,1.541,1.541,1.541,1.541,1.541,1.541,1.541,1.541,1.541,1.541,1.541,1.541,1.541,1.541,1.541,1.541,1.541,1.541,1.541,1.541,1.541,1.541,1.541,1.541,1.541,1.541,1.541,1.541,1.541,1.541,1.541,1.541,1.541,1.541,1.541,1.541,1.541,1.541,1.541,1.541,1.5584,1.6322,1.6492,1.668,1.7413,1.7605,1.7495,1.7062,1.6978,1.6866,1.6443,1.6112,1.5892,1.5892,1.5604,1.541,1.541,1.541,1.541,1.541,1.541,1.541,1.541,1.5205,1.498,1.4833,1.4561,1.4309,1.4114,1.389,1.3753,1.3753,1.3379,1.3154,1.3154,1.2993,1.2905,1.2905,1.2905,1.2905,1.2905,1.2905,1.2905,1.2783,1.2905,1.2905,1.2905,1.2905,1.267,1.1802,1.1557,1.1115,0.9718,0.9378,0.9211,0.8733,1.0078,1.1428,1.194,1.3773,1.5215,1.5391,1.5732,1.587,1.5459,1.541,1.541,1.541,1.541,1.541,1.541,1.541,1.541,1.541,1.541,1.541,1.541,1.541,1.541,1.541,1.541,1.541,1.541,1.541,1.541,1.541,1.541,1.541,1.5391,1.5469,1.5469,1.542,1.5508,1.5518,1.542,1.5478,1.5459,1.541,1.541,1.541,1.541,1.541,1.541,1.541,1.541,1.5468,1.5555,1.5555,1.5604,1.569,1.569,1.569,1.5853,1.6595,1.6793,1.6978,1.7715,1.7907,1.7879,1.777,1.766,1.7605,1.7605,1.709,1.6652,1.6652,1.6112,1.5661,1.5555,1.5555,1.5497,1.541,1.541,1.541,1.541,1.541,1.5264,1.4902,1.4873,1.4707,1.4299,1.4221,1.4192,1.4192,1.3792,1.3594,1.3594,1.3174,1.2993,1.2993,1.2935,1.2905,1.2905,1.2905,1.2905,1.2886,1.2905,1.2905,1.2905,1.2905,1.267,1.1802,1.1301,1.0557,0.8943,0.8295,0.7798,0.6989,0.8281,0.9824,1.0936,1.2656,1.4209,1.5264,1.5478,1.5498,1.542,1.541,1.541,1.541,1.541,1.541,1.541,1.541,1.541,1.541,1.541,1.541,1.541,1.541,1.541,1.541,1.541,1.541,1.541,1.541,1.541,1.541,1.541,1.541,1.543,1.5821,1.5772,1.5469,1.6171,1.6044,1.5449,1.584,1.5732,1.541,1.541,1.541,1.541,1.541,1.541,1.541,1.541,1.5806,1.6322,1.6322,1.6726,1.7219,1.7219,1.7219,1.7385,1.814,1.8313,1.8489,1.9228,1.9423,1.9254,1.8635,1.8043,1.7605,1.7605,1.7495,1.7413,1.7413,1.7302,1.6996,1.6397,1.6322,1.6093,1.5468,1.541,1.541,1.541,1.541,1.5381,1.5312,1.5303,1.5264,1.5167,1.4863,1.4678,1.4678,1.4231,1.3997,1.3997,1.3613,1.3398,1.3398,1.3047,1.2905,1.2905,1.2905,1.2905,1.2905,1.2905,1.2905,1.2905,1.2905,1.2494,1.0918,1.04,0.9611,0.7485,0.7031,0.6765,0.5887,0.7515,0.9209,0.9814,1.1934,1.3799,1.4601,1.5098,1.541,1.541,1.541,1.541,1.541,1.541,1.541,1.541,1.541,1.541,1.541,1.541,1.541,1.541,1.541,1.541,1.541,1.541,1.541,1.541,1.5644,1.5752,1.5762,1.5996,1.6073,1.6063,1.6105,1.6074,1.6083,1.6299,1.6269,1.6093,1.6328,1.6279,1.6073,1.6073,1.5947,1.5781,1.5985,1.6238,1.6471,1.6686,1.6646,1.6492,1.6492,1.7006,1.7605,1.7605,1.7605,1.777,1.8501,1.8688,1.8874,1.9605,1.9798,1.9695,1.9345,1.8992,1.8741,1.8741,1.8436,1.8167,1.8167,1.7852,1.7468,1.7146,1.7062,1.681,1.6065,1.6301,1.6244,1.5497,1.5748,1.5806,1.5439,1.5748,1.5806,1.541,1.5225,1.5107,1.5107,1.4697,1.4473,1.4473,1.4026,1.3802,1.3802,1.3633,1.3418,1.3203,1.3203,1.3096,1.2905,1.2905,1.2905,1.2905,1.2905,1.2314,1.0089,0.9524,0.8772,0.6301,0.5967,0.5946,0.5351,0.6998,0.8603,0.9062,1.1258,1.3198,1.3997,1.4795,1.5312,1.54,1.541,1.541,1.541,1.541,1.541,1.541,1.541,1.541,1.541,1.541,1.5459,1.5547,1.5459,1.5508,1.5693,1.5478,1.5478,1.5664,1.5947,1.6144,1.6251,1.6572,1.6697,1.6687,1.6455,1.6494,1.6687,1.6553,1.6697,1.6981,1.707,1.7176,1.7274,1.7274,1.7073,1.684,1.7153,1.7511,1.7865,1.8162,1.7771,1.7158,1.7158,1.7584,1.807,1.807,1.807,1.8194,1.8794,1.8939,1.9097,1.9669,1.9798,1.9798,1.9798,1.9798,1.9798,1.9798,1.9333,1.8939,1.8939,1.8474,1.8015,1.7841,1.7852,1.7578,1.6838,1.7246,1.7163,1.5997,1.6397,1.651,1.5911,1.6397,1.6482,1.5911,1.5719,1.5642,1.5642,1.5173,1.4922,1.4922,1.4492,1.425,1.425,1.4153,1.3938,1.3643,1.3545,1.333,1.2905,1.2905,1.2905,1.2905,1.2905,1.2314,1.0089,0.9318,0.8437,0.6242,0.5488,0.5322,0.5675,0.623,0.7271,0.9231,1.0439,1.1823,1.3821,1.4541,1.498,1.5371,1.541,1.541,1.541,1.541,1.541,1.541,1.541,1.541,1.541,1.541,1.5596,1.6016,1.5615,1.5771,1.657,1.5811,1.5811,1.658,1.624,1.6279,1.6638,1.6687,1.6697,1.6716,1.7109,1.7061,1.6755,1.7496,1.783,1.7915,1.8291,1.8686,1.9074,1.9074,1.9041,1.9007,1.9052,1.9101,1.9126,1.9171,1.9258,1.9313,1.9313,1.9443,1.9618,1.9618,1.9618,1.9618,1.9669,1.9695,1.9721,1.9773,1.9798,1.9798,1.9798,1.9798,1.9798,1.9798,1.9747,1.9695,1.9695,1.9631,1.9371,1.8688,1.8608,1.834,1.7594,1.755,1.755,1.7413,1.7468,1.7468,1.7401,1.7468,1.7468,1.7413,1.6782,1.6397,1.6397,1.5718,1.5352,1.5352,1.4941,1.4727,1.4727,1.4299,1.4085,1.4036,1.3656,1.3486,1.2905,1.2905,1.2905,1.2905,1.2686,1.1924,0.9728,0.8936,0.8023,0.5829,0.5234,0.5156,0.5341,0.5742,0.6572,0.8192,0.9396,1.0605,1.1979,1.3252,1.4072,1.4248,1.4727,1.5127,1.5391,1.541,1.541,1.541,1.541,1.5527,1.5821,1.5831,1.6006,1.6455,1.6268,1.6346,1.6697,1.6356,1.6356,1.6697,1.6816,1.6985,1.7139,1.7383,1.7467,1.7467,1.7422,1.774,1.8257,1.8338,1.8837,1.9591,1.9746,1.9924,2.007,2.007,1.991,1.9696,1.9969,2.0247,2.0492,2.0778,2.1021,2.1088,2.0293,2.0428,2.0815,2.0815,2.0815,2.0815,2.0815,2.0564,2.0352,2.0352,2.0049,1.9798,1.9798,1.9798,1.9798,1.9798,1.9798,1.9798,1.9798,1.9798,1.9695,1.9397,1.9371,1.9097,1.8367,1.8661,1.8741,1.8301,1.8259,1.8085,1.7633,1.8004,1.807,1.7633,1.733,1.7174,1.7174,1.6884,1.6528,1.6065,1.5891,1.5612,1.5156,1.5431,1.5182,1.4521,1.4811,1.4562,1.2866,1.2905,1.2905,1.2905,1.2559,1.1648,0.9484,0.8698,0.7769,0.5555,0.5098,0.5098,0.5098,0.5371,0.6016,0.731,0.8367,0.9533,1.0918,1.2275,1.3271,1.3627,1.4228,1.4756,1.5186,1.5342,1.541,1.541,1.5527,1.5801,1.6261,1.6418,1.6602,1.6882,1.6765,1.6824,1.7077,1.6824,1.6824,1.7077,1.7295,1.7606,1.7955,1.8265,1.8529,1.8734,1.8461,1.8852,1.9661,1.9319,1.9896,2.0974,2.0974,2.1132,2.1353,2.1353,2.1121,2.0896,2.1225,2.1523,2.1813,2.2158,2.2383,2.2368,2.1479,2.1321,2.1493,2.1493,2.1493,2.1493,2.1493,2.1232,2.0893,2.0729,2.0377,2.0012,1.9836,1.9798,1.9798,1.9798,1.9798,1.9798,1.9798,1.9798,1.9798,1.9798,1.9798,1.9618,1.9097,1.9475,1.9605,1.9097,1.9044,1.8821,1.8274,1.8741,1.8794,1.8274,1.8043,1.7934,1.7934,1.7715,1.7357,1.6849,1.6838,1.6567,1.6054,1.6557,1.6399,1.5641,1.6034,1.5584,1.2764,1.2905,1.2905,1.2905,1.2559,1.1648,0.9484,0.8698,0.7769,0.5555,0.5098,0.5098,0.5098,0.5108,0.5545,0.6895,0.7457,0.8626,1.123,1.195,1.2691,1.3948,1.4104,1.428,1.4746,1.5166,1.541,1.541,1.584,1.6281,1.6668,1.7139,1.7406,1.7373,1.6921,1.7106,1.7988,1.7126,1.7126,1.7988,1.7578,1.8041,1.9266,1.9266,1.9748,2.0558,2.059,2.059,2.059,2.0579,2.1101,2.1877,2.1877,2.2384,2.3078,2.3078,2.3065,2.3065,2.3078,2.3065,2.3065,2.3078,2.3095,2.3095,2.3095,2.233,2.1493,2.1493,2.1493,2.1493,2.1493,2.1509,2.137,2.083,2.0691,2.0528,1.9924,1.9798,1.9798,1.9798,1.9798,1.9798,1.9798,1.9798,1.9798,1.9798,1.9798,1.9798,1.9798,1.9798,1.9798,1.9798,1.9798,1.9798,1.9773,1.9773,1.9798,1.9773,1.9097,1.8688,1.8688,1.7988,1.7605,1.7578,1.7578,1.7578,1.7578,1.7578,1.7578,1.7556,1.7167,1.635,1.1572,1.177,1.1858,1.1271,1.0781,1.003,0.847,0.7798,0.7051,0.5438,0.5098,0.5098,0.5098,0.5098,0.5827,0.8047,0.8271,0.8982,1.1281,1.2207,1.2822,1.3232,1.4307,1.5068,1.5205,1.5332,1.541,1.541,1.584,1.629,1.6677,1.7148,1.7519,1.7803,1.7686,1.7734,1.8008,1.7744,1.7744,1.8008,1.8488,1.8909,1.9299,1.9911,2.0333,2.059,2.059,2.0942,2.1491,2.1491,2.197,2.272,2.272,2.2884,2.3108,2.3108,2.3108,2.3108,2.3108,2.3108,2.3108,2.3108,2.3108,2.3108,2.3108,2.2857,2.2581,2.2581,2.2581,2.2581,2.2581,2.2305,2.1907,2.1355,2.0968,2.0528,1.9924,1.9798,1.9798,1.9798,1.9798,1.9798,1.9798,1.9798,1.9798,1.9798,1.9798,1.9798,1.9798,1.9798,1.9798,1.9798,1.9798,1.9798,1.9798,1.9798,1.9798,1.9798,1.9579,1.9449,1.9449,1.9228,1.8874,1.8367,1.8355,1.8085,1.7605,1.8124,1.8355,1.8328,1.7693,1.7211,1.0775,1.0982,1.0968,1.044,0.9908,0.9195,0.7978,0.733,0.6634,0.5361,0.5098,0.5098,0.5098,0.5098,0.5691,0.75,0.7866,0.8659,1.0822,1.1858,1.2641,1.3271,1.4434,1.5176,1.5176,1.5322,1.5478,1.5644,1.6064,1.6504,1.6953,1.7383,1.7744,1.8008,1.8008,1.8008,1.8008,1.8337,1.8496,1.8496,1.9365,1.9944,2.0301,2.0846,2.127,2.1542,2.1542,2.1834,0.0,2.2353,2.2641,2.3108,2.3108,2.3108,2.3108,2.3108,2.3108,2.3108,2.3108,2.3108,2.3108,2.3108,2.3108,2.3108,2.3108,2.3108,2.3108,2.3108,2.3108,2.3108,2.3108,2.2844,2.2456,2.1933,2.1543,2.1157,2.0564,2.0275,2.0125,2.0125,1.9949,1.9798,1.9798,1.9798,1.9798,1.9798,1.9798,1.9798,1.9798,1.9798,1.9798,1.9798,1.9798,1.9798,1.9798,1.9798,1.9798,1.9798,1.9798,1.9798,1.9798,1.9798,1.9579,1.9123,1.9123,1.8874,1.8421,1.8874,1.9123,1.9097,1.8635,1.8274,0.0,1.0387,1.0145,1.0076,0.9642,0.8954,0.7876,0.7172,0.0,0.5353,0.5127,0.5146,0.5234,0.5185,0.5342,0.6019,0.6751,0.7988,1.0185,1.1252,1.2436,1.4046,1.46,1.4872,1.4901,1.5205,1.5596,1.6056,1.6484,1.6892,1.7363,1.7783,1.8008,1.8008,1.8076,1.8076,1.8076,1.8888,1.9332,1.9398,2.0268,2.1101,2.1908,2.1951,2.2384,2.3108,2.3108,2.3108,2.3108,2.3108,2.3108,2.3108,2.3108,2.3108,2.3108,2.3108,2.3108,2.3108,2.3108,2.3108,2.3108,2.3108,2.3108,2.3108,2.3108,2.3108,2.3108,2.3108,2.3108,2.3108,2.3108,2.3108,2.2957,2.2447,2.2309,2.2159,2.1606,2.1119,2.0754,2.0754,2.0289,1.9861,1.9861,1.9823,1.9798,1.9798,1.9798,1.9798,1.9798,1.9798,1.9798,1.9798,1.9798,1.9798,1.9798,1.9798,1.9798,1.9798,1.9798,1.9798,1.9798,1.9798,1.9798,1.9798,1.9798,1.9798,1.9798,1.9798,1.9798,1.9798,1.9798,1.9423,0.8158,0.0,0.8713,0.7837,0.7676,0.7552,0.0,0.655,0.6159,0.5539,0.5396,0.5654,0.6479,0.5963,0.625,0.8829,0.8848,0.9424,1.1946,1.3306,1.4451,1.5517,1.541,1.5391,1.5762,1.5547,1.5596,1.6056,1.6484,1.6892,1.7363,1.7783,1.8008,1.8008,1.8654,1.8977,1.8977,1.921,1.9628,2.0301,2.1175,2.169,2.1908,2.2537,2.2914,2.3108,2.3108,2.3108,2.3108,2.3108,2.3108,2.3108,2.3108,2.3108,2.3108,2.3108,2.3108,2.3108,2.3108,2.3108,2.3108,2.3108,2.3108,2.3108,2.3108,2.3108,2.3108,2.3108,2.3108,2.3108,2.3108,2.3108,2.2957,2.2447,2.2309,2.2159,2.1606,2.1393,2.132,2.132,2.0867,2.049,2.049,2.01,1.9798,1.9798,1.9798,1.9798,1.9798,1.9798,1.9798,1.9798,1.9798,1.9798,1.9798,1.9798,1.9798,1.9798,1.9798,1.9798,1.9798,1.9798,1.9798,1.9798,1.9798,1.9798,1.9798,1.9798,1.9798,1.9798,1.9798,1.9721,0.6931,0.7803,0.8486,0.7872,0.7756,0.7713,0.736,0.6724,0.6099,0.5752,0.568,0.5933,0.6766,0.6803,0.7284,0.9096,0.9835,1.1036,1.3443,1.4863,1.5771,1.6065,1.6035,1.6025,1.6095,1.588,1.6007,1.6652,1.6894,1.7217,1.7646,1.8275,1.8596,1.8596,1.9431,1.9683,1.9299,2.0074,2.0719,2.1207,2.2063,2.2445,2.2476,2.2884,2.3108,2.3108,2.3108,2.3108,2.3108,2.3108,2.3108,2.3108,2.3108,2.3108,2.3108,2.3108,2.3108,2.3108,2.3108,2.3108,2.3108,2.3108,2.3108,2.3108,2.3108,2.3108,2.3108,2.3108,2.3108,2.3108,2.3108,2.3108,2.3032,2.2732,2.2656,2.2581,2.2309,2.2046,2.187,2.187,2.1418,2.1069,2.1069,2.0603,2.02,2.02,1.9974,1.9798,1.9798,1.9798,1.9798,1.9798,1.9798,1.9798,1.9798,1.9798,1.9798,1.9798,1.9798,1.9798,1.9798,1.9798,1.9798,1.9798,1.9798,1.9798,1.9798,1.9798,1.9798,1.9798,1.9798,1.9798,0.6635,0.7842,0.9001,0.8639,0.8619,0.8619,0.8294,0.7245,0.6307,0.6226,0.6143,0.6372,0.7327,0.7958,0.8545,0.9225,1.0953,1.2883,1.4721,1.594,1.654,1.6164,1.652,1.6681,1.6435,1.6406,1.6712,1.751,1.7481,1.7625,1.8182,1.8888,1.9365,1.9497,2.0333,2.043,1.9683,2.1164,2.197,2.2106,2.275,2.3108,2.3108,2.3108,2.3108,2.3108,2.3108,2.3108,2.3108,2.3108,2.3108,2.3108,2.3108,2.3108,2.3108,2.3108,2.3108,2.3108,2.3108,2.3108,2.3108,2.3108,2.3108,2.3108,2.3108,2.3108,2.3108,2.3108,2.3108,2.3108,2.3108,2.3108,2.3108,2.3108,2.3108,2.3108,2.3108,2.2732,2.2406,2.2406,2.1995,2.1606,2.1606,2.1182,2.0792,2.0704,2.025,1.9899,1.9811,1.9798,1.9798,1.9798,1.9798,1.9798,1.9798,1.9798,1.9798,1.9798,1.9798,1.9798,1.9798,1.9798,1.9798,1.9798,1.9798,1.9798,1.9798,1.9798,1.9798,1.9798,1.9798,1.9798,0.8279,0.9516,0.9918,0.7868,0.8534,0.9442,0.8501,0.7597,0.7077,0.7511,0.7238,0.777,1.058,1.015,1.0396,1.3552,1.4631,1.5227,1.5668,1.6202,1.642,1.6146,1.6818,1.7402,1.7666,1.7697,1.7926,1.8383,1.7778,1.7879,1.9056,1.9243,1.9628,2.0365,2.1239,2.1659,2.1491,2.1784,2.2249,2.2914,2.3035,2.3108,2.3108,2.3108,2.3108,2.3108,2.3108,2.3108,2.3108,2.3108,2.3108,2.3108,2.3108,2.3108,2.3108,2.3108,2.3108,2.3108,2.3108,2.3108,2.3108,2.3108,2.3108,2.3108,2.3108,2.3108,2.3108,2.3108,2.3108,2.3108,2.3108,2.3108,2.3108,2.3108,2.3108,2.3108,2.3108,2.3045,2.2982,2.2982,2.2531,2.2184,2.2184,2.1732,2.1232,2.0767,2.0616,2.0377,1.9861,1.9798,1.9798,1.9798,1.9798,1.9798,1.9798,1.9798,1.9798,1.9798,1.9798,1.9798,1.9798,1.9798,1.9798,1.9798,1.9798,1.9798,1.9798,1.9798,1.9798,1.9798,1.9798,1.9798,0.7545,0.8989,1.0067,0.9243,1.0614,1.2046,1.1555,1.0901,1.038,1.0343,1.0147,1.0493,1.2277,1.2448,1.3201,1.5994,1.642,1.6595,1.7114,1.7546,1.779,1.7717,1.8253,1.8733,1.9004,1.8593,1.8701,1.9607,1.8897,1.8892,1.9933,2.0462,2.0878,2.1302,2.2125,2.2537,2.2537,2.2537,2.272,2.3108,2.3108,2.3108,2.3108,2.3108,2.3108,2.3108,2.3108,2.3108,2.3108,2.3108,2.3108,2.3108,2.3108,2.3108,2.3108,2.3108,2.3108,2.3108,2.3108,2.3108,2.3108,2.3108,2.3108,2.3108,2.3108,2.3108,2.3108,2.3108,2.3108,2.3108,2.3108,2.3108,2.3108,2.3108,2.3108,2.3108,2.3108,2.3108,2.3108,2.3108,2.2895,2.2732,2.2732,2.2297,2.1845,2.1594,2.1333,2.093,2.0365,2.0302,2.015,1.9836,1.9798,1.9798,1.9798,1.9798,1.9798,1.9798,1.9798,1.9798,1.9798,1.9798,1.9798,1.9798,1.9798,1.9798,1.9798,1.9798,1.9798,1.9798,1.9798,1.9798,0.7263,0.8701,1.0244,1.0933,1.2319,1.3644,1.4179,1.3539,1.2864,1.2969,1.2881,1.3044,1.383,1.4878,1.609,1.7505,1.7678,1.7825,1.8317,1.8662,1.8886,1.8951,1.949,1.995,2.0167,1.9702,1.9797,2.0824,2.0107,1.9977,2.0846,2.1522,2.1982,2.2199,2.2793,2.3108,2.3108,2.3108,2.3108,2.3108,2.3108,2.3108,2.3108,2.3108,2.3108,2.3108,2.3108,2.3108,2.3108,2.3108,2.3108,2.3108,2.3108,2.3108,2.3108,2.3108,2.3108,2.3108,2.3108,2.3108,2.3108,2.3108,2.3108,2.3108,2.3108,2.3108,2.3108,2.3108,2.3108,2.3108,2.3108,2.3108,2.3108,2.3108,2.3108,2.3108,2.3108,2.3108,2.3108,2.3108,2.3108,2.3108,2.3108,2.2757,2.2431,2.2334,2.1945,2.1481,2.0955,2.088,2.0717,2.0238,2.0087,1.9949,1.9811,1.9798,1.9798,1.9798,1.9798,1.9798,1.9798,1.9798,1.9798,1.9798,1.9798,1.9798,1.9798,1.9798,1.9798,1.9798,1.9798,1.9798,0.9241,1.0143,1.0921,1.1999,1.2027,1.2319,1.4356,1.3224,1.2294,1.4293,1.4324,1.445,1.5974,1.7583,1.8559,1.8223,1.8971,1.9386,1.8762,1.8691,1.8686,1.8566,1.9605,2.0558,2.1063,2.1429,2.1705,2.1815,2.1005,2.0878,2.1753,2.1877,2.2249,2.2975,2.3078,2.3108,2.3108,2.3108,2.3108,2.3108,2.3108,2.3108,2.3108,2.3108,2.3108,2.3108,2.3108,2.3108,2.3108,2.3108,2.3108,2.3108,2.3108,2.3108,2.3108,2.3108,2.3108,2.3108,2.3108,2.3108,2.3108,2.3108,2.3108,2.3108,2.3108,2.3108,2.3108,2.3108,2.3108,2.3108,2.3108,2.3108,2.3108,2.3108,2.3108,2.3108,2.3108,2.3108,2.3108,2.3108,2.3108,2.3108,2.3108,2.307,2.2869,2.2355,2.2284,2.2058,2.1493,2.143,2.1446,2.1368,2.093,2.0415,1.9849,1.9798,1.9798,1.9798,1.9798,1.9798,1.9798,1.9798,1.9798,1.9798,1.9798,1.9798,1.9798,1.9798,1.9798,1.9798,1.9798,1.9798,0.8166,0.9504,1.0969,1.2112,1.2784,1.3644,1.5467,1.6036,1.6534,1.7702,1.7513,1.7237,1.7513,1.8631,1.9334,1.877,1.9321,1.982,1.9931,1.9941,2.0165,2.0778,2.13,2.179,2.2332,2.2078,2.2094,2.2598,2.1877,2.1772,2.2598,2.2641,2.2793,2.3078,2.3108,2.3108,2.3108,2.3108,2.3108,2.3108,2.3108,2.3108,2.3108,2.3108,2.3108,2.3108,2.3108,2.3108,2.3108,2.3108,2.3108,2.3108,2.3108,2.3108,2.3108,2.3108,2.3108,2.3108,2.3108,2.3108,2.3108,2.3108,2.3108,2.3108,2.3108,2.3108,2.3108,2.3108,2.3108,2.3108,2.3108,2.3484,2.3708,2.3215,2.3484,2.3708,2.3215,2.3108,2.3108,2.3108,2.3108,2.3108,2.3108,2.3108,2.3032,2.2832,2.2794,2.2757,2.2685,2.2691,2.2548,2.2225,2.1582,2.0981,2.0415,2.0679,2.0552,1.9849,1.9798,1.9798,1.9798,1.9798,1.9798,1.9798,1.9798,1.9798,1.9798,1.9798,1.9798,1.9798,1.9798,1.9798,0.8491,0.9942,1.1723,1.2693,1.3778,1.4991,1.6459,1.7516,1.8506,1.9585,1.9246,1.8682,1.8481,1.892,1.9233,1.9033,1.9434,1.9999,2.0616,2.0691,2.1106,2.2184,2.2309,2.2493,2.3045,2.2598,2.2506,2.3078,2.2598,2.2506,2.3078,2.3108,2.3108,2.3108,2.3108,2.3108,2.3108,2.3108,2.3108,2.3108,2.3108,2.3108,2.3108,2.3108,2.3108,2.3108,2.3108,2.3108,2.3108,2.3108,2.3108,2.3108,2.3108,2.3108,2.3108,2.3108,2.3108,2.3108,2.3108,2.3108,2.3108,2.3108,2.3275,2.3424,2.3198,2.3275,2.3424,2.3155,2.3275,2.3484,2.3484,2.3884,2.4147,2.3619,2.4076,2.4509,2.3959,2.3813,2.3813,2.3813,2.3813,2.3813,2.3813,2.3813,2.3813,2.3813,2.3813,2.3874,2.402,2.4023,2.3822,2.3245,2.2747,2.2225,2.168,2.1762,2.1434,2.0502,2.0218,1.9987,1.9811,1.9798,1.9798,1.9798,1.9798,1.9798,1.9798,1.9798,1.9798,1.9798,1.9798,1.9798,1.0845,1.1908,1.3341,1.3946,1.4928,1.6019,1.7172,1.6961,1.714,1.9359,1.897,1.8368,1.8907,1.8556,1.8392,1.8907,1.9434,2.0012,2.0616,2.0704,2.1119,2.2184,2.2322,2.2506,2.3058,2.3108,2.3108,2.3108,2.3108,2.3108,2.3108,2.3108,2.3108,2.3108,2.3108,2.3108,2.3108,2.3108,2.3108,2.3108,2.3108,2.3108,2.3108,2.3108,2.3108,2.3108,2.3108,2.3108,2.3108,2.3108,2.3108,2.3108,2.3108,2.3108,2.3108,2.3108,2.3108,2.3108,2.3108,2.3108,2.3108,2.3138,2.3649,2.4147,2.3365,2.3679,2.4147,2.3335,2.3708,2.4321,2.4321,2.4321,2.4321,2.4321,2.4879,2.5398,2.5398,2.5398,2.5398,2.5398,2.5398,2.5398,2.5398,2.5398,2.5398,2.5398,2.5398,2.5398,2.5398,2.5398,2.519,2.4581,2.4512,2.4289,2.3745,2.3041,2.2392,2.1847,2.1118,2.044,1.9823,1.9798,1.9798,1.9798,1.9798,1.9798,1.9798,1.9798,1.9798,1.9798,1.9798,1.9798,0.9266,1.1057,1.3235,1.3416,1.5748,1.8105,1.8444,1.8694,1.9133,2.0214,2.0176,1.9748,1.9121,1.9196,1.9258,1.9045,1.9811,2.0629,2.1194,2.1581,2.2083,2.2782,2.2857,2.2932,2.3083,2.3108,2.3108,2.3108,2.3108,2.3108,2.3108,2.3108,2.3108,2.3108,2.3108,2.3108,2.3108,2.3108,2.3108,2.3108,2.3108,2.3108,2.3108,2.3108,2.3108,2.3108,2.3108,2.3108,2.3108,2.3108,2.3108,2.3108,2.3108,2.3108,2.3108,2.3108,2.3108,2.3198,2.3738,2.3943,2.4031,2.4553,2.4894,2.5035,2.4781,2.4894,2.5007,2.4781,2.4894,2.5063,2.5063,2.5453,2.5728,2.5203,2.5646,2.6041,2.5508,2.5398,2.5398,2.5398,2.5398,2.5398,2.5398,2.5398,2.5398,2.5398,2.5398,2.5591,2.6122,2.6176,2.6105,2.5932,2.5448,2.4886,2.4317,2.4462,2.4163,2.32,2.2445,2.1366,1.9862,2.0245,2.0283,1.9798,2.0245,2.0283,1.9798,1.9798,1.9798,1.9798,1.9798,1.9798,1.1563,1.3328,1.5296,1.5723,1.7252,1.8857,1.9522,1.9748,1.9899,2.0277,2.0189,1.9874,1.9422,1.9396,1.9509,1.966,2.0264,2.0968,2.1707,2.2108,2.2493,2.3045,2.3108,2.3108,2.3108,2.3108,2.3108,2.3108,2.3108,2.3108,2.3108,2.3108,2.3108,2.3108,2.3108,2.3108,2.3108,2.3108,2.3108,2.3108,2.3108,2.3108,2.3108,2.3108,2.3108,2.3108,2.3108,2.3108,2.3108,2.3108,2.3108,2.3108,2.3108,2.3108,2.3108,2.3108,2.3305,2.3662,2.4147,2.4481,2.4823,2.5259,2.5591,2.5783,2.5481,2.5591,2.5783,2.5481,2.5618,2.5837,2.5837,2.639,2.6747,2.6,2.639,2.6826,2.6375,2.6269,2.6269,2.6269,2.6269,2.6269,2.6269,2.6269,2.6269,2.6269,2.6269,2.6428,2.6878,2.693,2.693,2.693,2.6549,2.6138,2.5764,2.58,2.5428,2.4518,2.3749,2.275,2.1392,2.1008,2.0708,2.0557,2.0966,2.0843,2.0207,2.0434,2.0421,2.0207,2.0446,2.0533,1.5605,1.6999,1.8292,1.9321,1.8957,1.8744,2.0277,2.0175,1.9823,1.9874,1.9434,1.9233,1.9786,1.9497,1.9522,2.0591,2.0805,2.1194,2.2171,2.2347,2.2543,2.3045,2.3108,2.3108,2.3108,2.3108,2.3108,2.3108,2.3108,2.3108,2.3108,2.3108,2.3108,2.3108,2.3108,2.3108,2.3108,2.3108,2.3108,2.3108,2.3108,2.3108,2.3108,2.3108,2.3108,2.3108,2.3108,2.3108,2.3108,2.3108,2.3108,2.3108,2.3108,2.3125,2.3215,2.3215,2.3708,2.4408,2.4481,2.4922,2.5508,2.5591,2.6054,2.6484,2.581,2.6054,2.6443,2.5783,2.6081,2.659,2.659,2.71,2.7433,2.6747,2.7111,2.76,2.76,2.76,2.76,2.76,2.76,2.76,2.76,2.76,2.76,2.76,2.76,2.76,2.76,2.76,2.76,2.76,2.76,2.76,2.76,2.6982,2.6356,2.5825,2.5041,2.442,2.3991,2.2113,2.1291,2.1779,2.1795,2.1496,2.0894,2.1424,2.1424,2.0894,2.1448,2.1697,1.2099,1.4356,1.7014,1.7727,1.8694,1.9547,1.9911,1.9886,1.9924,2.0415,2.0024,1.9811,2.0402,2.0415,2.0553,2.1232,2.1681,2.2046,2.2284,2.2656,2.297,2.3095,2.3108,2.3108,2.3108,2.3108,2.3108,2.3108,2.3108,2.3108,2.3108,2.3108,2.3108,2.3108,2.3108,2.3108,2.3108,2.3108,2.3108,2.3108,2.3108,2.3108,2.3108,2.3108,2.3108,2.3108,2.3108,2.3108,2.3108,2.3108,2.3108,2.3108,2.3108,2.3484,2.4031,2.4031,2.4509,2.5259,2.5837,2.6122,2.6363,2.6941,2.7214,2.7331,2.7163,2.724,2.7331,2.7163,2.724,2.7357,2.7357,2.7484,2.756,2.7408,2.7484,2.76,2.76,2.76,2.76,2.76,2.76,2.76,2.76,2.76,2.76,2.76,2.76,2.76,2.76,2.76,2.76,2.76,2.76,2.76,2.76,2.7458,2.7297,2.7174,2.6036,2.5535,2.5958,2.4105,2.2893,2.2491,2.2484,2.2161,2.152,2.1639,2.1625,2.152,2.1639,2.1697,1.314,1.5159,1.7187,1.8267,1.9171,1.9798,1.9798,1.9798,1.9886,2.0188,2.0264,2.0339,2.0641,2.0905,2.127,2.1794,2.2121,2.2397,2.2644,2.292,2.3108,2.3108,2.3108,2.3108,2.3108,2.3108,2.3108,2.3108,2.3108,2.3108,2.3108,2.3108,2.3108,2.3108,2.3108,2.3108,2.3108,2.3108,2.3108,2.3108,2.3108,2.3108,2.3108,2.3108,2.3108,2.3108,2.3108,2.3108,2.3108,2.3108,2.3335,2.3679,2.3679,2.4134,2.4823,2.4823,2.5287,2.5987,2.6363,2.6721,2.71,2.7473,2.76,2.76,2.76,2.76,2.76,2.76,2.76,2.76,2.76,2.76,2.76,2.76,2.76,2.76,2.76,2.76,2.76,2.76,2.76,2.76,2.76,2.76,2.76,2.76,2.76,2.76,2.76,2.76,2.76,2.76,2.76,2.76,2.76,2.76,2.76,2.76,2.6939,2.6697,2.7051,2.5814,2.4615,2.3621,2.3935,2.3461,2.217,2.2783,2.2769,2.2193,2.2492,2.2606,1.4481,1.6283,1.7674,1.9371,1.9798,1.9798,1.9798,1.9798,1.9823,1.9924,2.0352,2.0729,2.0817,2.1282,2.1807,2.2359,2.2447,2.2581,2.3045,2.3108,2.3108,2.3108,2.3108,2.3108,2.3108,2.3108,2.3108,2.3108,2.3108,2.3108,2.3108,2.3108,2.3108,2.3108,2.3108,2.3108,2.3108,2.3108,2.3108,2.3108,2.3108,2.3108,2.3108,2.3108,2.3108,2.3108,2.3258,2.3305,2.3305,2.3442,2.3872,2.4481,2.4481,2.4922,2.5591,2.5591,2.6068,2.6695,2.6695,2.71,2.76,2.76,2.76,2.76,2.76,2.76,2.76,2.76,2.76,2.76,2.76,2.76,2.76,2.76,2.76,2.76,2.76,2.76,2.76,2.76,2.76,2.76,2.76,2.76,2.76,2.76,2.76,2.76,2.76,2.76,2.76,2.76,2.76,2.76,2.76,2.76,2.76,2.76,2.76,2.76,2.76,2.7076,2.6198,2.4963,2.5367,2.4807,2.3186,2.414,2.4118,2.3209,2.3481,2.367,1.0646,1.3647,1.7114,1.9271,1.9798,1.9798,1.9798,1.9798,1.9936,2.0478,2.0641,2.0842,2.132,2.1832,2.2355,2.2907,2.2995,2.302,2.3095,2.3108,2.3108,2.3108,2.3108,2.3108,2.3108,2.3108,2.3108,2.3108,2.3108,2.3108,2.3108,2.3108,2.3108,2.3108,2.3108,2.3108,2.3108,2.3108,2.3108,2.3108,2.3108,2.3108,2.3108,2.3108,2.3108,2.3125,2.3826,2.4147,2.4205,2.4838,2.5147,2.5259,2.5259,2.5701,2.6336,2.6336,2.6826,2.7458,2.7458,2.7524,2.76,2.76,2.76,2.76,2.76,2.76,2.76,2.76,2.76,2.76,2.76,2.76,2.76,2.76,2.76,2.76,2.76,2.76,2.76,2.76,2.76,2.76,2.76,2.76,2.76,2.76,2.76,2.76,2.76,2.76,2.76,2.76,2.76,2.76,2.76,2.76,2.76,2.76,2.76,2.76,2.76,2.751,2.7121,2.6348,2.5854,2.5478,2.5214,2.4798,2.4798,2.5199,2.4089,2.3924,1.1565,1.4325,1.7027,1.9258,1.9798,1.9798,1.9798,1.9798,1.9962,2.0578,2.0943,2.1292,2.1845,2.2397,2.2832,2.3058,2.3108,2.3108,2.3108,2.3108,2.3108,2.3108,2.3108,2.3108,2.3108,2.3108,2.3108,2.3108,2.3108,2.3108,2.3108,2.3108,2.3108,2.3108,2.3108,2.3108,2.3108,2.3108,2.3108,2.3108,2.3108,2.3108,2.3108,2.3573,2.3767,2.3796,2.4147,2.4538,2.4922,2.5259,2.5646,2.6014,2.6014,2.6469,2.7126,2.7126,2.7331,2.76,2.76,2.76,2.76,2.76,2.76,2.76,2.76,2.76,2.76,2.76,2.76,2.76,2.76,2.76,2.76,2.76,2.76,2.76,2.76,2.76,2.76,2.76,2.76,2.76,2.76,2.76,2.76,2.76,2.76,2.76,2.76,2.76,2.76,2.76,2.76,2.76,2.76,2.76,2.76,2.76,2.76,2.76,2.76,2.76,2.7465,2.7165,2.6881,2.6348,2.5615,2.5689,2.5689,2.56,2.5001,2.4881,1.1807,1.4016,1.5856,1.8342,1.9183,1.9459,1.9748,1.9798,2.0012,2.0754,2.1232,2.1707,2.2397,2.2832,2.3108,2.3108,2.3108,2.3108,2.3108,2.3108,2.3108,2.3108,2.3108,2.3108,2.3108,2.3108,2.3108,2.3108,2.3108,2.3108,2.3108,2.3108,2.3108,2.3108,2.3108,2.3108,2.3108,2.3108,2.3108,2.3108,2.3108,2.3215,2.3424,2.4031,2.4509,2.4879,2.4879,2.5175,2.5701,2.5892,2.6269,2.6774,2.6774,2.7126,2.76,2.76,2.76,2.76,2.76,2.76,2.76,2.76,2.76,2.76,2.76,2.76,2.76,2.76,2.76,2.76,2.76,2.76,2.76,2.76,2.76,2.76,2.76,2.76,2.76,2.76,2.76,2.76,2.76,2.76,2.76,2.76,2.76,2.76,2.76,2.76,2.76,2.76,2.76,2.76,2.76,2.76,2.76,2.76,2.76,2.76,2.76,2.76,2.76,2.76,2.76,2.7121,2.6108,2.6437,2.6422,2.6093,2.5764,2.5689,0.8862,1.0585,1.263,1.5848,1.7466,1.8555,1.9572,1.9798,2.0112,2.1217,2.1468,2.182,2.2869,2.3083,2.3108,2.3108,2.3108,2.3108,2.3108,2.3108,2.3108,2.3108,2.3108,2.3108,2.3108,2.3108,2.3108,2.3108,2.3108,2.3108,2.3108,2.3108,2.3108,2.3108,2.3108,2.3108,2.3108,2.3108,2.3108,2.3108,2.3108,2.3514,2.4234,2.4292,2.5063,2.6404,2.6404,2.6404,2.651,2.7188,2.7524,2.7534,2.7534,2.7575,2.76,2.76,2.76,2.76,2.76,2.76,2.76,2.76,2.76,2.76,2.76,2.76,2.76,2.76,2.76,2.76,2.76,2.76,2.76,2.76,2.76,2.76,2.76,2.76,2.76,2.76,2.76,2.76,2.76,2.76,2.76,2.76,2.76,2.76,2.76,2.76,2.76,2.76,2.76,2.76,2.76,2.76,2.76,2.76,2.76,2.76,2.76,2.76,2.76,2.76,2.76,2.757,2.7495,2.6896,2.6926,2.7465,2.6183,2.5944,0.8559,0.9793,1.1136,1.3729,1.576,1.7202,1.7578,1.8794,2.0125,2.1282,2.1493,2.1832,2.2895,2.3108,2.3108,2.3108,2.3108,2.3108,2.3108,2.3108,2.3108,2.3108,2.3108,2.3108,2.3108,2.3108,2.3108,2.3108,2.3108,2.3108,2.3108,2.3108,2.3108,2.3108,2.3108,2.3108,2.3108,2.3108,2.3108,2.3108,2.3619,2.4031,2.4321,2.5287,2.6014,2.6537,2.7008,2.7203,2.7229,2.7484,2.76,2.76,2.76,2.76,2.76,2.76,2.76,2.76,2.76,2.76,2.76,2.76,2.76,2.76,2.76,2.76,2.76,2.76,2.76,2.76,2.76,2.76,2.76,2.76,2.76,2.76,2.76,2.76,2.76,2.76,2.76,2.76,2.76,2.76,2.76,2.76,2.76,2.76,2.76,2.76,2.76,2.76,2.76,2.76,2.76,2.76,2.76,2.76,2.76,2.76,2.76,2.76,2.76,2.76,2.76,2.76,2.76,2.736,2.736,2.7585,2.7121,2.7016,0.7174,0.8268,0.9642,1.2062,1.3616,1.5046,1.6914,1.803,1.9183,2.0893,2.1355,2.1769,2.2656,2.2982,2.3108,2.3108,2.3108,2.3108,2.3108,2.3108,2.3108,2.3108,2.3108,2.3108,2.3108,2.3108,2.3108,2.3108,2.3108,2.3108,2.3108,2.3108,2.3108,2.3108,2.3108,2.3108,2.3108,2.3365,2.3514,2.3514,2.4308,2.4794,2.5063,2.6041,2.6642,2.6904,2.7382,2.76,2.76,2.76,2.76,2.76,2.76,2.76,2.76,2.76,2.775,2.7944,2.7944,2.7944,2.7974,2.8199,2.7959,2.7645,2.7869,2.7779,2.76,2.76,2.76,2.7645,2.7884,2.7944,2.7884,2.7645,2.76,2.76,2.76,2.76,2.76,2.76,2.76,2.76,2.76,2.76,2.76,2.76,2.76,2.76,2.76,2.76,2.76,2.76,2.76,2.76,2.76,2.76,2.76,2.76,2.76,2.76,2.76,2.76,2.76,2.76,2.76,2.76,2.76,2.76,2.76,2.76,2.76,2.76,0.0,0.0,0.0,1.0747,1.1048,1.2074,1.7478,1.7516,1.7212,2.0025,2.1031,2.1581,2.2196,2.2732,2.3108,2.3108,2.3108,2.3108,2.3108,2.3108,2.3108,2.3108,2.3108,2.3108,2.3108,2.3108,2.3108,2.3108,2.3108,2.3108,2.3108,2.3108,2.3108,2.3108,2.3138,2.3138,2.3138,2.3943,2.4321,2.435,2.5063,2.581,2.651,2.651,2.693,2.76,2.76,2.76,2.76,2.76,2.76,2.763,2.763,2.7645,2.766,2.766,2.8079,2.8622,2.8622,2.8622,2.8742,2.9397,2.8723,2.7779,2.8427,2.8184,2.766,2.766,2.766,2.7809,2.8457,2.8622,2.8457,2.7794,2.763,2.7615,2.76,2.76,2.76,2.76,2.76,2.76,2.76,2.76,2.76,2.76,2.76,2.76,2.76,2.76,2.76,2.76,2.76,2.76,2.76,2.76,2.76,2.76,2.76,2.76,2.76,2.76,2.76,2.76,2.76,2.76,2.76,2.76,2.76,2.76,2.76,2.76,0.5466,0.0,0.0,0.0,0.0,0.0,1.149,1.3015,1.4908,1.7737,1.8731,1.9773,2.192,2.2732,2.3108,2.3108,2.3108,2.3108,2.3108,2.3108,2.3108,2.3108,2.3108,2.3108,2.3108,2.3108,2.3108,2.3108,2.3108,2.3108,2.3108,2.3108,2.3108,2.3108,2.3649,2.3972,2.3972,2.4724,2.5091,2.5091,2.5837,2.6283,2.651,2.7034,2.7408,2.76,2.76,2.76,2.76,2.76,2.7899,2.8308,2.8308,2.8607,2.9052,2.9052,2.9172,2.931,2.931,2.931,2.9367,2.9547,2.9352,2.9082,2.9277,2.9202,2.9052,2.9052,2.9052,2.9097,2.9292,2.931,2.9146,2.8472,2.8308,2.8173,2.7705,2.76,2.76,2.76,2.76,2.76,2.76,2.76,2.76,2.76,2.76,2.76,2.76,2.76,2.76,2.76,2.76,2.76,2.76,2.76,2.76,2.76,2.76,2.76,2.76,2.76,2.76,2.76,2.76,2.76,2.76,2.76,2.76,2.76,2.76,2.76,0.5625,0.5648,0.5994,0.677,0.0,0.0,1.1278,1.2491,1.399,1.7662,1.902,2.0062,2.1669,2.2581,2.3215,2.3543,2.3305,2.3108,2.3108,2.3108,2.3108,2.3108,2.3108,2.3108,2.3108,2.3108,2.3108,2.3108,2.3108,2.3258,2.3573,2.359,2.3738,2.4034,2.4221,2.4452,2.4766,2.5481,2.5864,2.5864,2.6616,2.6956,2.6982,2.7408,2.76,2.76,2.76,2.7764,2.8034,2.8034,2.8233,2.8622,2.8906,2.9277,2.9606,2.9606,2.9771,2.9968,2.9968,2.9968,3.0013,3.0298,3.0028,2.9651,2.9894,2.9789,2.9606,2.9606,2.9786,2.9909,2.9681,2.9774,2.9804,2.916,2.9011,2.8906,2.8528,2.8438,2.8274,2.7705,2.76,2.76,2.76,2.76,2.76,2.76,2.76,2.76,2.76,2.76,2.76,2.76,2.76,2.76,2.76,2.76,2.76,2.76,2.76,2.76,2.76,2.76,2.76,2.76,2.786,2.7984,2.7968,2.771,2.76,2.76,2.76,2.76,0.5788,0.5753,0.6424,0.8063,0.7011,0.0,1.3419,1.3479,1.3463,1.7781,1.9586,2.0443,2.0695,2.1562,2.2496,2.3218,2.3026,2.2892,2.3207,2.3168,2.3108,2.3108,2.3198,2.3198,2.3108,2.3198,2.3198,2.3108,2.3185,2.3543,2.4263,2.4379,2.4709,2.537,2.4851,2.4879,2.5508,2.6256,2.6616,2.6642,2.728,2.76,2.76,2.76,2.7645,2.7705,2.7705,2.8094,2.8712,2.8786,2.8816,2.8876,2.9487,2.9756,2.9804,2.9804,3.0148,3.0612,3.0612,3.0612,3.0717,3.1316,3.0746,2.9909,3.0447,3.0278,2.9952,3.0018,3.0437,3.0712,3.0181,3.0425,3.0681,3.0075,2.9939,2.9909,2.9833,2.9818,2.9471,2.8288,2.7936,2.7824,2.7824,2.7824,2.7794,2.772,2.7705,2.769,2.76,2.76,2.76,2.76,2.76,2.76,2.76,2.76,2.76,2.76,2.76,2.76,2.76,2.76,2.76,2.76,2.8189,2.8535,2.8606,2.7919,2.76,2.76,2.76,2.76,0.8351,0.7747,0.7517,0.7612,0.8104,0.0,0.7631,0.871,1.0191,1.1344,1.2544,1.3918,1.5704,1.6541,1.7037,1.7182,1.9294,2.1663,2.3778,2.3514,2.3108,2.3108,2.3649,2.3796,2.3155,2.3679,2.3796,2.3138,2.3708,2.4147,2.4292,2.4879,2.5259,2.5398,2.5837,2.6149,2.6283,2.7008,2.7382,2.7382,2.7524,2.76,2.76,2.76,2.7899,2.8397,2.8397,2.8786,2.943,2.9924,3.0133,3.0148,3.0268,3.0657,3.1122,3.1122,3.1197,3.1301,3.1301,3.1301,3.1331,3.1466,3.1331,3.1152,3.1271,3.165,3.2145,3.2683,3.2892,3.2971,3.2855,3.2892,3.2839,3.2159,3.201,3.1867,3.1337,3.1211,3.1131,3.087,2.995,2.9217,2.9217,2.9217,2.9037,2.8487,2.8397,2.8203,2.766,2.76,2.76,2.76,2.76,2.76,2.76,2.76,2.76,2.76,2.76,2.76,2.76,2.76,2.76,2.76,2.8189,2.8732,2.9225,2.8125,2.76,2.76,2.76,2.76,0.8775,0.8179,0.819,0.8786,0.8723,0.0,0.0,0.9071,0.9558,1.1375,1.1899,1.2483,1.3939,1.4637,1.5125,1.5487,1.8295,2.04,2.0441,2.2644,2.4105,2.3738,2.406,2.3972,2.3198,2.3826,2.4292,2.4237,2.4951,2.5398,2.5398,2.5755,2.6122,2.6481,2.6496,2.6669,2.7049,2.7408,2.76,2.76,2.76,2.7779,2.8109,2.8109,2.8442,2.9086,2.9086,2.9445,3.0058,3.0372,3.0717,3.0987,3.0987,3.1197,3.1511,3.1511,3.1511,3.1511,3.1511,3.1739,3.2064,3.2064,3.2284,3.2555,3.2555,3.2799,3.3172,3.3521,3.3582,3.3582,3.3582,3.3582,3.3528,3.3175,3.3095,3.3024,3.2672,3.2592,3.2592,3.2592,3.2037,3.1384,3.0701,3.0325,2.9983,2.9648,2.932,2.8992,2.8648,2.8603,2.8583,2.855,2.8545,2.8516,2.8503,2.8222,2.8042,2.8042,2.776,2.76,2.76,2.7894,2.8328,2.8934,2.895,2.9248,2.9848,2.895,2.8328,2.8042,2.7735,2.776,0.945,0.9095,0.9563,1.0355,0.966,0.93,0.0,0.0,0.0,1.2073,1.2144,1.1938,1.2487,1.2841,1.3275,1.4005,1.6706,1.8078,1.6148,2.0393,2.3442,2.2697,2.3844,2.4169,2.2706,2.3063,2.3943,2.5301,2.5376,2.5707,2.6467,2.6642,2.6982,2.7575,2.7008,2.6982,2.76,2.76,2.766,2.7794,2.7794,2.8154,2.8786,2.8786,2.9146,2.9786,2.9786,3.0118,3.0702,3.0702,3.1002,3.1511,3.1511,3.1511,3.1511,3.1511,3.1511,3.1524,3.1668,3.2092,3.2614,3.2734,3.3172,3.3608,3.3761,3.3786,3.3811,3.3937,3.4003,3.4003,3.4003,3.4003,3.4003,3.4003,3.4003,3.4003,3.4003,3.4003,3.4003,3.4003,3.4003,3.3557,3.2216,3.1532,3.1133,3.0992,3.0509,3.0141,3.0004,2.9989,2.9944,2.9906,2.9902,2.9878,2.9831,2.9383,2.9115,2.9115,2.8507,2.8101,2.7991,2.8323,2.9081,3.0272,2.9827,2.987,3.0477,2.987,2.9203,2.8487,2.8125,2.8165,1.296,1.288,1.315,1.1241,1.194,1.2134,0.8419,0.0,0.9387,0.7987,0.0,0.8476,0.8549,0.0,0.0,0.8661,1.103,1.2871,1.3191,1.5787,1.7397,1.6586,2.2279,2.4807,2.1062,2.0314,2.1532,2.5122,2.2836,2.2801,2.6297,2.7111,2.7509,2.76,2.7524,2.7524,2.76,2.76,2.7899,2.8487,2.8487,2.8831,2.9502,2.9502,2.9804,3.0402,3.0402,3.0763,3.1391,3.1391,3.1436,3.1511,3.1511,3.1511,3.1511,3.1511,3.1511,3.1582,3.2244,3.2547,3.2695,3.3287,3.3531,3.371,3.4309,3.4479,3.4616,3.5207,3.5362,3.5362,3.5362,3.5362,3.5362,3.5362,3.5362,3.5362,3.5362,3.5362,3.5362,3.5362,3.5362,3.4955,3.3602,3.3307,3.3058,3.246,3.2306,3.2058,3.1461,3.1381,3.1374,3.1366,3.135,3.1366,3.1357,3.1286,3.1262,3.1262,3.056,2.9943,2.9379,2.8797,2.9081,3.0272,3.023,3.0497,3.1112,3.0497,2.9607,2.8511,2.8973,2.8966,1.2416,1.3277,1.427,1.2149,1.273,1.2885,0.9426,0.8394,0.8034,0.7578,0.0,0.0,0.0,0.0,0.0,0.0,0.9268,1.0643,0.9029,1.3062,1.6164,1.6133,1.8534,2.0422,2.105,2.0522,2.1948,2.6364,2.3301,2.2974,2.6945,2.7433,2.76,2.76,2.76,2.76,2.76,2.8004,2.8308,2.8607,2.8981,2.9505,3.0118,3.0118,3.0477,3.1077,3.1077,3.1241,3.1511,3.1511,3.1511,3.1524,3.1951,3.1881,3.1553,3.1979,3.2148,3.2244,3.2933,3.3443,3.3862,3.4544,3.4752,3.48,3.5075,3.5184,3.523,3.5515,3.56,3.56,3.56,3.56,3.56,3.56,3.56,3.56,3.56,3.56,3.56,3.56,3.56,3.5424,3.4864,3.4447,3.4072,3.3803,3.3426,3.3088,3.28,3.2752,3.2756,3.2713,3.2711,3.2688,3.2657,3.2321,3.2115,3.2115,3.1498,3.118,3.1273,3.0992,3.1022,3.1457,3.1876,3.1795,3.119,3.1375,3.079,2.954,2.9451,2.9451,1.3306,1.4396,1.5417,1.2769,1.2812,1.2792,0.9989,0.8633,0.7952,0.7914,0.7549,0.0,0.0,0.0,0.0,0.0,0.0,0.8624,0.6231,0.989,1.3085,1.3856,1.4466,0.0,0.0,1.8936,2.023,2.5854,2.2418,2.2283,2.733,2.76,2.76,2.76,2.76,2.76,2.76,2.8248,2.8682,2.8876,2.952,3.0163,3.0763,3.0763,3.1032,3.1511,3.1511,3.1511,3.1511,3.1511,3.1611,3.1853,3.2382,3.2382,3.2145,3.268,3.2868,3.2975,3.3633,3.4309,3.4941,3.543,3.56,3.56,3.56,3.56,3.56,3.56,3.56,3.56,3.56,3.56,3.56,3.56,3.56,3.56,3.56,3.56,3.56,3.56,3.56,3.56,3.56,3.5207,3.4871,3.4871,3.4471,3.4153,3.4153,3.4153,3.4129,3.4071,3.4068,3.4068,3.4006,3.3595,3.3272,3.3073,3.2478,3.2334,3.2713,3.2585,3.253,3.2594,3.3136,3.2882,3.1799,3.2324,3.2004,3.0821,3.0184,3.0038,1.7592,1.764,1.7409,1.2925,1.2328,1.1976,0.8709,0.9366,1.015,0.8281,0.9366,1.0066,0.8207,0.0,0.0,0.0,0.0,0.0,0.0,0.5531,0.574,0.7059,1.0564,0.0,0.0,1.3759,1.4382,0.0,1.8585,1.9396,2.718,2.76,2.76,2.76,2.76,2.76,2.76,2.8248,2.8921,2.9592,3.0178,3.0808,3.1466,3.1466,3.1481,3.1511,3.1511,3.1511,3.1511,3.1511,3.1938,3.2559,3.2586,3.2986,3.3531,3.3556,3.3572,3.3659,3.4333,3.5005,3.5577,3.56,3.56,3.56,3.56,3.56,3.56,3.56,3.56,3.56,3.56,3.56,3.56,3.56,3.56,3.56,3.56,3.56,3.56,3.56,3.56,3.56,3.56,3.5577,3.5577,3.5577,3.5538,3.5554,3.5554,3.5554,3.5538,3.5543,3.5543,3.5526,3.5532,3.5493,3.5188,3.4484,3.3856,3.3489,3.3381,3.2801,3.2763,3.3351,3.3389,3.3389,3.3339,3.3355,3.2983,3.2222,3.1472,3.0838,0.0,1.9588,2.0125,1.4632,1.466,1.4737,0.9698,0.9725,1.0254,0.8296,0.9456,1.021,0.8251,0.0,0.0,0.0,0.0,0.0,0.0,0.0,0.4574,0.0,0.0,0.0,0.0,0.0,0.0,0.0,2.0591,0.0,2.7315,2.76,2.76,2.76,2.76,2.76,2.76,2.8723,2.9397,2.9621,3.0672,3.1271,3.1511,3.1511,3.1511,3.1511,3.1511,3.1511,3.1511,3.1511,3.1923,3.2641,3.3093,3.3659,3.426,3.426,3.426,3.4358,3.5028,3.5407,3.56,3.56,3.56,3.56,3.56,3.56,3.56,3.56,3.56,3.56,3.56,3.56,3.56,3.56,3.56,3.56,3.56,3.56,3.56,3.56,3.56,3.56,3.56,3.56,3.56,3.56,3.56,3.56,3.56,3.56,3.56,3.56,3.56,3.56,3.56,3.56,3.5481,3.525,3.5037,3.4897,3.4856,3.4667,3.4409,3.4134,3.4624,3.4366,3.3406,3.3897,3.3744,3.3017,3.2763,3.2019,1.942,2.0981,0.0,1.6821,1.7044,1.6982,1.1527,1.1471,1.2014,1.0058,1.0264,1.0927,1.1311,0.0,0.0,0.0,0.0,0.0,0.0,0.4489,0.0,0.0,0.0,0.0,0.0,0.0,0.0,0.0,0.0,0.0,0.0,2.76,2.76,2.76,2.76,2.76,2.76,2.8693,2.934,2.9621,3.0657,3.1271,3.1511,3.1511,3.1511,3.1511,3.1511,3.1511,3.1511,3.1511,3.2092,3.2986,3.3443,3.4161,3.4965,3.4965,3.4965,3.5028,3.5447,3.56,3.56,3.56,3.56,3.56,3.56,3.56,3.56,3.56,3.56,3.56,3.56,3.56,3.56,3.56,3.56,3.56,3.56,3.56,3.56,3.56,3.56,3.56,3.56,3.56,3.56,3.56,3.56,3.56,3.56,3.56,3.56,3.56,3.56,3.56,3.56,3.56,3.56,3.56,3.56,3.56,3.56,3.56,3.538,3.4895,3.5346,3.5126,3.4163,3.4658,3.4506,3.3795,3.3795,3.3136]}]]